<?xml version="1.0" encoding="UTF-8"?>
<gpx version="1.1" creator="2bulu-scraper" xmlns="http://www.topografix.com/GPX/1/1">
  <metadata><name>古宇湖环湖徒步</name><desc>source: 2bulu.com trackId=79163875; exported 2026-09-01T17:58:41.898Z</desc>
    <bounds minlat="29.3148503" minlon="105.1913227" maxlat="29.3486614" maxlon="105.2599229"/>
    <link href="https://www.2bulu.com/track/t-86L%252FFEFB5oXp%252FR2KBg5Tzw%253D%253D.htm"><text>2bulu 源页面</text></link>
  </metadata>
  <wpt lat="29.3486357" lon="105.2485659"><ele>375</ele><name>
        </name></wpt>
  <wpt lat="29.3471648" lon="105.2474079"><ele>352</ele><name>
        </name></wpt>
  <wpt lat="29.3471467" lon="105.2475039"><ele>352</ele><name>
        </name></wpt>
  <wpt lat="29.3461388" lon="105.247151"><ele>316</ele><name>
        </name></wpt>
  <wpt lat="29.3447189" lon="105.2379737"><ele>337</ele><name>
        </name></wpt>
  <wpt lat="29.3412711" lon="105.2331991"><ele>357</ele><name>
        </name></wpt>
  <wpt lat="29.3401057" lon="105.2327061"><ele>374</ele><name>
        </name></wpt>
  <wpt lat="29.3400998" lon="105.2326771"><ele>371</ele><name>
        </name></wpt>
  <wpt lat="29.3401541" lon="105.2283828"><ele>356</ele><name>
        </name></wpt>
  <wpt lat="29.3399658" lon="105.2282055"><ele>364</ele><name>
        </name></wpt>
  <wpt lat="29.3393824" lon="105.2272406"><ele>379</ele><name>
        </name></wpt>
  <wpt lat="29.3399467" lon="105.2245829"><ele>368</ele><name>
        </name></wpt>
  <wpt lat="29.3399206" lon="105.2230415"><ele>352</ele><name>
        </name></wpt>
  <wpt lat="29.3368681" lon="105.2161677"><ele>345</ele><name>
        </name></wpt>
  <wpt lat="29.3371466" lon="105.2156798"><ele>373</ele><name>
        </name></wpt>
  <wpt lat="29.3366844" lon="105.2123027"><ele>373</ele><name>
        </name></wpt>
  <wpt lat="29.3366722" lon="105.2121387"><ele>374</ele><name>
        </name></wpt>
  <wpt lat="29.3365647" lon="105.2118395"><ele>362</ele><name>
        </name></wpt>
  <wpt lat="29.3350642" lon="105.2107132"><ele>324</ele><name>
        </name></wpt>
  <wpt lat="29.3292877" lon="105.2000892"><ele>348</ele><name>
        </name></wpt>
  <wpt lat="29.3251398" lon="105.1919078"><ele>355</ele><name>
        </name></wpt>
  <wpt lat="29.3187878" lon="105.2140275"><ele>416</ele><name>
        </name></wpt>
  <wpt lat="29.3242606" lon="105.2141019"><ele>309</ele><name>
        </name></wpt>
  <wpt lat="29.3320217" lon="105.234726"><ele>351</ele><name>
        </name></wpt>
  <wpt lat="29.332947" lon="105.241731"><ele>314</ele><name>
        </name></wpt>
  <wpt lat="29.3333797" lon="105.2421951"><ele>361</ele><name>
        </name></wpt>
  <wpt lat="29.3310833" lon="105.2445831"><ele>360</ele><name>
        </name></wpt>
  <wpt lat="29.3291303" lon="105.2438653"><ele>304</ele><name>
        </name></wpt>
  <wpt lat="29.3265957" lon="105.2458562"><ele>304</ele><name>
        </name></wpt>
  <wpt lat="29.3253513" lon="105.2469393"><ele>307</ele><name>
        </name></wpt>
  <wpt lat="29.3259848" lon="105.2547585"><ele>349</ele><name>
        </name></wpt>
  <wpt lat="29.3376192" lon="105.2547575"><ele>317</ele><name>
        </name></wpt>
  <wpt lat="29.3410178" lon="105.2568713"><ele>378</ele><name>
        </name></wpt>
  <wpt lat="29.3410906" lon="105.2568674"><ele>378</ele><name>
        </name></wpt>
  <wpt lat="29.3420307" lon="105.256365"><ele>383</ele><name>
        </name></wpt>
  <trk><name>古宇湖环湖徒步</name>
      <trkseg>
        <trkpt lat="29.3475232" lon="105.2499737"><ele>364.9</ele><time>2026-02-13T16:55:25.000Z</time></trkpt>
        <trkpt lat="29.3475876" lon="105.2499096"><ele>364.9</ele><time>2026-02-13T16:55:35.000Z</time></trkpt>
        <trkpt lat="29.3476162" lon="105.2498032"><ele>365.03</ele><time>2026-02-13T16:55:43.000Z</time></trkpt>
        <trkpt lat="29.3475742" lon="105.2497002"><ele>365.39</ele><time>2026-02-13T16:55:53.000Z</time></trkpt>
        <trkpt lat="29.3475317" lon="105.2495855"><ele>365.88</ele><time>2026-02-13T16:56:05.000Z</time></trkpt>
        <trkpt lat="29.3475981" lon="105.2495498"><ele>366.14</ele><time>2026-02-13T16:56:15.000Z</time></trkpt>
        <trkpt lat="29.3477057" lon="105.2495577"><ele>366.17</ele><time>2026-02-13T16:56:25.000Z</time></trkpt>
        <trkpt lat="29.3478118" lon="105.2495644"><ele>366.82</ele><time>2026-02-13T16:56:33.000Z</time></trkpt>
        <trkpt lat="29.347918" lon="105.2495598"><ele>367.08</ele><time>2026-02-13T16:56:41.000Z</time></trkpt>
        <trkpt lat="29.3480272" lon="105.2495634"><ele>366.83</ele><time>2026-02-13T16:56:49.000Z</time></trkpt>
        <trkpt lat="29.3481253" lon="105.2495849"><ele>366.7</ele><time>2026-02-13T16:56:57.000Z</time></trkpt>
        <trkpt lat="29.348227" lon="105.2496102"><ele>366.23</ele><time>2026-02-13T16:57:07.000Z</time></trkpt>
        <trkpt lat="29.3483296" lon="105.2496257"><ele>365.81</ele><time>2026-02-13T16:57:17.000Z</time></trkpt>
        <trkpt lat="29.3484304" lon="105.2495961"><ele>365.71</ele><time>2026-02-13T16:57:27.000Z</time></trkpt>
        <trkpt lat="29.3485103" lon="105.2495099"><ele>365.61</ele><time>2026-02-13T16:57:37.000Z</time></trkpt>
        <trkpt lat="29.348558" lon="105.2493976"><ele>365.41</ele><time>2026-02-13T16:57:47.000Z</time></trkpt>
        <trkpt lat="29.3485674" lon="105.249273"><ele>365.4</ele><time>2026-02-13T16:57:57.000Z</time></trkpt>
        <trkpt lat="29.3485578" lon="105.2491489"><ele>365.89</ele><time>2026-02-13T16:58:15.000Z</time></trkpt>
        <trkpt lat="29.3485607" lon="105.2490345"><ele>367.94</ele><time>2026-02-13T16:58:29.000Z</time></trkpt>
        <trkpt lat="29.3485561" lon="105.248926"><ele>370.81</ele><time>2026-02-13T16:58:39.000Z</time></trkpt>
        <trkpt lat="29.3486176" lon="105.2488748"><ele>373.52</ele><time>2026-02-13T16:58:51.000Z</time></trkpt>
        <trkpt lat="29.3485857" lon="105.2488164"><ele>374.93</ele><time>2026-02-13T16:58:59.000Z</time></trkpt>
        <trkpt lat="29.3485679" lon="105.2487167"><ele>375.46</ele><time>2026-02-13T16:59:07.000Z</time></trkpt>
        <trkpt lat="29.3485997" lon="105.2486056"><ele>376.1</ele><time>2026-02-13T16:59:19.000Z</time></trkpt>
        <trkpt lat="29.3486357" lon="105.2485659"><ele>376.08</ele><time>2026-02-13T16:59:25.000Z</time></trkpt>
        <trkpt lat="29.3486567" lon="105.2484817"><ele>375.92</ele><time>2026-02-13T16:59:59.000Z</time></trkpt>
        <trkpt lat="29.3486614" lon="105.2483755"><ele>373.81</ele><time>2026-02-13T17:00:11.000Z</time></trkpt>
        <trkpt lat="29.3486389" lon="105.2482558"><ele>370.97</ele><time>2026-02-13T17:00:21.000Z</time></trkpt>
        <trkpt lat="29.3486138" lon="105.2481419"><ele>367.22</ele><time>2026-02-13T17:00:29.000Z</time></trkpt>
        <trkpt lat="29.3485372" lon="105.2480895"><ele>364.02</ele><time>2026-02-13T17:00:37.000Z</time></trkpt>
        <trkpt lat="29.3484664" lon="105.2480228"><ele>362.17</ele><time>2026-02-13T17:00:43.000Z</time></trkpt>
        <trkpt lat="29.3483586" lon="105.2479941"><ele>360.68</ele><time>2026-02-13T17:00:51.000Z</time></trkpt>
        <trkpt lat="29.3482558" lon="105.2480152"><ele>359.77</ele><time>2026-02-13T17:00:57.000Z</time></trkpt>
        <trkpt lat="29.3481474" lon="105.2480395"><ele>358.39</ele><time>2026-02-13T17:01:03.000Z</time></trkpt>
        <trkpt lat="29.3480457" lon="105.2480054"><ele>357.04</ele><time>2026-02-13T17:01:09.000Z</time></trkpt>
        <trkpt lat="29.3480066" lon="105.2479099"><ele>356.34</ele><time>2026-02-13T17:01:15.000Z</time></trkpt>
        <trkpt lat="29.3480182" lon="105.2477817"><ele>355.41</ele><time>2026-02-13T17:01:23.000Z</time></trkpt>
        <trkpt lat="29.3480559" lon="105.2476577"><ele>354.95</ele><time>2026-02-13T17:01:31.000Z</time></trkpt>
        <trkpt lat="29.3480476" lon="105.2475784"><ele>354.26</ele><time>2026-02-13T17:01:39.000Z</time></trkpt>
        <trkpt lat="29.3479702" lon="105.2475345"><ele>353.75</ele><time>2026-02-13T17:01:49.000Z</time></trkpt>
        <trkpt lat="29.3478624" lon="105.2475069"><ele>351.69</ele><time>2026-02-13T17:01:55.000Z</time></trkpt>
        <trkpt lat="29.347765" lon="105.2474624"><ele>350.41</ele><time>2026-02-13T17:02:01.000Z</time></trkpt>
        <trkpt lat="29.3476969" lon="105.2473862"><ele>350.01</ele><time>2026-02-13T17:02:07.000Z</time></trkpt>
        <trkpt lat="29.3476078" lon="105.2472995"><ele>350.46</ele><time>2026-02-13T17:02:15.000Z</time></trkpt>
        <trkpt lat="29.3475177" lon="105.2472502"><ele>350.4</ele><time>2026-02-13T17:02:21.000Z</time></trkpt>
        <trkpt lat="29.3474151" lon="105.2472466"><ele>350.41</ele><time>2026-02-13T17:02:29.000Z</time></trkpt>
        <trkpt lat="29.3473231" lon="105.2473039"><ele>350.59</ele><time>2026-02-13T17:02:37.000Z</time></trkpt>
        <trkpt lat="29.3472333" lon="105.2473798"><ele>350.95</ele><time>2026-02-13T17:02:45.000Z</time></trkpt>
        <trkpt lat="29.3471648" lon="105.2474079"><ele>351.06</ele><time>2026-02-13T17:02:53.000Z</time></trkpt>
        <trkpt lat="29.3471467" lon="105.2475039"><ele>351.3</ele><time>2026-02-13T17:04:13.000Z</time></trkpt>
        <trkpt lat="29.3471316" lon="105.2474178"><ele>351.14</ele><time>2026-02-13T17:04:37.000Z</time></trkpt>
        <trkpt lat="29.3470961" lon="105.2475153"><ele>350.38</ele><time>2026-02-13T17:05:57.000Z</time></trkpt>
        <trkpt lat="29.3470806" lon="105.2473824"><ele>349.87</ele><time>2026-02-13T17:06:03.000Z</time></trkpt>
        <trkpt lat="29.347122" lon="105.2473762"><ele>348.93</ele><time>2026-02-13T17:06:09.000Z</time></trkpt>
        <trkpt lat="29.3471792" lon="105.2475074"><ele>348.93</ele><time>2026-02-13T17:07:11.000Z</time></trkpt>
        <trkpt lat="29.3471035" lon="105.2474424"><ele>349.14</ele><time>2026-02-13T17:19:17.000Z</time></trkpt>
        <trkpt lat="29.3469823" lon="105.2474184"><ele>348.69</ele><time>2026-02-13T17:19:29.000Z</time></trkpt>
        <trkpt lat="29.3468862" lon="105.2474084"><ele>346.43</ele><time>2026-02-13T17:19:35.000Z</time></trkpt>
        <trkpt lat="29.3467834" lon="105.2474004"><ele>343.58</ele><time>2026-02-13T17:19:41.000Z</time></trkpt>
        <trkpt lat="29.3466841" lon="105.2473942"><ele>340.93</ele><time>2026-02-13T17:19:47.000Z</time></trkpt>
        <trkpt lat="29.3465721" lon="105.2473973"><ele>337.72</ele><time>2026-02-13T17:19:53.000Z</time></trkpt>
        <trkpt lat="29.3464737" lon="105.2473798"><ele>334.81</ele><time>2026-02-13T17:19:59.000Z</time></trkpt>
        <trkpt lat="29.3463638" lon="105.247351"><ele>331.14</ele><time>2026-02-13T17:20:05.000Z</time></trkpt>
        <trkpt lat="29.346265" lon="105.2473225"><ele>329.48</ele><time>2026-02-13T17:20:11.000Z</time></trkpt>
        <trkpt lat="29.3461534" lon="105.2472957"><ele>326.1</ele><time>2026-02-13T17:20:19.000Z</time></trkpt>
        <trkpt lat="29.3460599" lon="105.2472576"><ele>321.74</ele><time>2026-02-13T17:20:27.000Z</time></trkpt>
        <trkpt lat="29.3461155" lon="105.2472602"><ele>318.97</ele><time>2026-02-13T17:20:37.000Z</time></trkpt>
        <trkpt lat="29.34613" lon="105.2471797"><ele>316.98</ele><time>2026-02-13T17:21:27.000Z</time></trkpt>
        <trkpt lat="29.3461388" lon="105.247151"><ele>316.25</ele><time>2026-02-13T17:21:37.000Z</time></trkpt>
        <trkpt lat="29.3462322" lon="105.2472315"><ele>316.34</ele><time>2026-02-13T17:30:33.000Z</time></trkpt>
        <trkpt lat="29.3463531" lon="105.2472601"><ele>315.73</ele><time>2026-02-13T17:30:41.000Z</time></trkpt>
        <trkpt lat="29.3463059" lon="105.2473101"><ele>317.27</ele><time>2026-02-13T17:30:53.000Z</time></trkpt>
        <trkpt lat="29.3462091" lon="105.2472906"><ele>316.64</ele><time>2026-02-13T17:31:01.000Z</time></trkpt>
        <trkpt lat="29.3462622" lon="105.2472814"><ele>313.22</ele><time>2026-02-13T17:31:13.000Z</time></trkpt>
        <trkpt lat="29.3463569" lon="105.2472872"><ele>313.85</ele><time>2026-02-13T17:31:19.000Z</time></trkpt>
        <trkpt lat="29.346467" lon="105.2473088"><ele>315.79</ele><time>2026-02-13T17:31:25.000Z</time></trkpt>
        <trkpt lat="29.3465775" lon="105.2473321"><ele>319.17</ele><time>2026-02-13T17:31:31.000Z</time></trkpt>
        <trkpt lat="29.3466817" lon="105.2473541"><ele>322.65</ele><time>2026-02-13T17:31:39.000Z</time></trkpt>
        <trkpt lat="29.346601" lon="105.2473034"><ele>325.84</ele><time>2026-02-13T17:33:27.000Z</time></trkpt>
        <trkpt lat="29.3464986" lon="105.247282"><ele>325.97</ele><time>2026-02-13T17:33:35.000Z</time></trkpt>
        <trkpt lat="29.3464003" lon="105.2472649"><ele>324.6</ele><time>2026-02-13T17:33:43.000Z</time></trkpt>
        <trkpt lat="29.3462894" lon="105.2472555"><ele>321.76</ele><time>2026-02-13T17:33:49.000Z</time></trkpt>
        <trkpt lat="29.3461803" lon="105.2472271"><ele>318.54</ele><time>2026-02-13T17:33:55.000Z</time></trkpt>
        <trkpt lat="29.3461027" lon="105.2471545"><ele>317.22</ele><time>2026-02-13T17:33:59.000Z</time></trkpt>
        <trkpt lat="29.3460452" lon="105.247063"><ele>314.97</ele><time>2026-02-13T17:34:07.000Z</time></trkpt>
        <trkpt lat="29.3459768" lon="105.246976"><ele>312.94</ele><time>2026-02-13T17:34:15.000Z</time></trkpt>
        <trkpt lat="29.3459203" lon="105.2468857"><ele>312.39</ele><time>2026-02-13T17:34:25.000Z</time></trkpt>
        <trkpt lat="29.3458942" lon="105.2467785"><ele>312.04</ele><time>2026-02-13T17:34:33.000Z</time></trkpt>
        <trkpt lat="29.3458461" lon="105.2466861"><ele>311.46</ele><time>2026-02-13T17:34:41.000Z</time></trkpt>
        <trkpt lat="29.3457646" lon="105.2466336"><ele>310.64</ele><time>2026-02-13T17:34:49.000Z</time></trkpt>
        <trkpt lat="29.3456697" lon="105.246601"><ele>310.2</ele><time>2026-02-13T17:34:57.000Z</time></trkpt>
        <trkpt lat="29.345564" lon="105.2465897"><ele>310.62</ele><time>2026-02-13T17:35:07.000Z</time></trkpt>
        <trkpt lat="29.3454675" lon="105.2465742"><ele>311.06</ele><time>2026-02-13T17:35:13.000Z</time></trkpt>
        <trkpt lat="29.3453698" lon="105.24652"><ele>311.47</ele><time>2026-02-13T17:35:21.000Z</time></trkpt>
        <trkpt lat="29.3452809" lon="105.2464349"><ele>311.88</ele><time>2026-02-13T17:35:29.000Z</time></trkpt>
        <trkpt lat="29.3452064" lon="105.2463289"><ele>312.34</ele><time>2026-02-13T17:35:37.000Z</time></trkpt>
        <trkpt lat="29.3451462" lon="105.2462165"><ele>312.76</ele><time>2026-02-13T17:35:45.000Z</time></trkpt>
        <trkpt lat="29.3450995" lon="105.2461181"><ele>313.13</ele><time>2026-02-13T17:35:51.000Z</time></trkpt>
        <trkpt lat="29.3450698" lon="105.2460031"><ele>313.44</ele><time>2026-02-13T17:35:59.000Z</time></trkpt>
        <trkpt lat="29.3450644" lon="105.2458926"><ele>313.14</ele><time>2026-02-13T17:36:05.000Z</time></trkpt>
        <trkpt lat="29.3450788" lon="105.2457684"><ele>312.89</ele><time>2026-02-13T17:36:13.000Z</time></trkpt>
        <trkpt lat="29.345133" lon="105.2456607"><ele>312.76</ele><time>2026-02-13T17:36:21.000Z</time></trkpt>
        <trkpt lat="29.3452171" lon="105.245582"><ele>312.46</ele><time>2026-02-13T17:36:29.000Z</time></trkpt>
        <trkpt lat="29.3453002" lon="105.2455142"><ele>312.47</ele><time>2026-02-13T17:36:37.000Z</time></trkpt>
        <trkpt lat="29.3453652" lon="105.2454263"><ele>312.46</ele><time>2026-02-13T17:36:45.000Z</time></trkpt>
        <trkpt lat="29.3454034" lon="105.2453107"><ele>312.36</ele><time>2026-02-13T17:36:53.000Z</time></trkpt>
        <trkpt lat="29.3454013" lon="105.2451969"><ele>312.12</ele><time>2026-02-13T17:36:57.000Z</time></trkpt>
        <trkpt lat="29.3453928" lon="105.2450748"><ele>311.82</ele><time>2026-02-13T17:37:01.000Z</time></trkpt>
        <trkpt lat="29.3453868" lon="105.2449517"><ele>311.75</ele><time>2026-02-13T17:37:05.000Z</time></trkpt>
        <trkpt lat="29.3453994" lon="105.2448277"><ele>311.72</ele><time>2026-02-13T17:37:09.000Z</time></trkpt>
        <trkpt lat="29.3454576" lon="105.2447254"><ele>311.34</ele><time>2026-02-13T17:37:13.000Z</time></trkpt>
        <trkpt lat="29.3455059" lon="105.2446307"><ele>311.16</ele><time>2026-02-13T17:37:17.000Z</time></trkpt>
        <trkpt lat="29.3455668" lon="105.2445534"><ele>312.39</ele><time>2026-02-13T17:37:23.000Z</time></trkpt>
        <trkpt lat="29.345649" lon="105.2444664"><ele>313.33</ele><time>2026-02-13T17:37:31.000Z</time></trkpt>
        <trkpt lat="29.3457434" lon="105.2443863"><ele>313.07</ele><time>2026-02-13T17:37:39.000Z</time></trkpt>
        <trkpt lat="29.3458418" lon="105.2443097"><ele>312.75</ele><time>2026-02-13T17:37:47.000Z</time></trkpt>
        <trkpt lat="29.3459153" lon="105.2442328"><ele>310.94</ele><time>2026-02-13T17:37:53.000Z</time></trkpt>
        <trkpt lat="29.3459863" lon="105.2441646"><ele>309.63</ele><time>2026-02-13T17:37:59.000Z</time></trkpt>
        <trkpt lat="29.3460531" lon="105.244094"><ele>308.71</ele><time>2026-02-13T17:38:05.000Z</time></trkpt>
        <trkpt lat="29.3460882" lon="105.243976"><ele>308.34</ele><time>2026-02-13T17:38:13.000Z</time></trkpt>
        <trkpt lat="29.3460921" lon="105.2438524"><ele>308.45</ele><time>2026-02-13T17:38:19.000Z</time></trkpt>
        <trkpt lat="29.346041" lon="105.2437357"><ele>308.79</ele><time>2026-02-13T17:38:27.000Z</time></trkpt>
        <trkpt lat="29.3459529" lon="105.2436436"><ele>309.26</ele><time>2026-02-13T17:38:35.000Z</time></trkpt>
        <trkpt lat="29.3458765" lon="105.243565"><ele>309.35</ele><time>2026-02-13T17:38:41.000Z</time></trkpt>
        <trkpt lat="29.3458607" lon="105.2434457"><ele>309.27</ele><time>2026-02-13T17:38:49.000Z</time></trkpt>
        <trkpt lat="29.3458822" lon="105.2433078"><ele>309.09</ele><time>2026-02-13T17:38:57.000Z</time></trkpt>
        <trkpt lat="29.3459212" lon="105.2431853"><ele>308.83</ele><time>2026-02-13T17:39:05.000Z</time></trkpt>
        <trkpt lat="29.3459039" lon="105.2430685"><ele>307.98</ele><time>2026-02-13T17:39:11.000Z</time></trkpt>
        <trkpt lat="29.3458694" lon="105.2429612"><ele>307.72</ele><time>2026-02-13T17:39:17.000Z</time></trkpt>
        <trkpt lat="29.3458379" lon="105.2428534"><ele>307.96</ele><time>2026-02-13T17:39:23.000Z</time></trkpt>
        <trkpt lat="29.3458339" lon="105.2427326"><ele>308.18</ele><time>2026-02-13T17:39:31.000Z</time></trkpt>
        <trkpt lat="29.3457845" lon="105.2426162"><ele>307.53</ele><time>2026-02-13T17:39:43.000Z</time></trkpt>
        <trkpt lat="29.3456847" lon="105.2425171"><ele>309.01</ele><time>2026-02-13T17:39:49.000Z</time></trkpt>
        <trkpt lat="29.3456018" lon="105.2424285"><ele>310.33</ele><time>2026-02-13T17:39:53.000Z</time></trkpt>
        <trkpt lat="29.3455495" lon="105.2423295"><ele>311.1</ele><time>2026-02-13T17:39:57.000Z</time></trkpt>
        <trkpt lat="29.3455247" lon="105.2422094"><ele>311.78</ele><time>2026-02-13T17:40:03.000Z</time></trkpt>
        <trkpt lat="29.345515" lon="105.2420809"><ele>313.2</ele><time>2026-02-13T17:40:11.000Z</time></trkpt>
        <trkpt lat="29.3455067" lon="105.2419537"><ele>315.85</ele><time>2026-02-13T17:40:19.000Z</time></trkpt>
        <trkpt lat="29.3455096" lon="105.2418229"><ele>318.4</ele><time>2026-02-13T17:40:27.000Z</time></trkpt>
        <trkpt lat="29.345516" lon="105.2416995"><ele>320.82</ele><time>2026-02-13T17:40:35.000Z</time></trkpt>
        <trkpt lat="29.3455125" lon="105.2415738"><ele>322.79</ele><time>2026-02-13T17:40:43.000Z</time></trkpt>
        <trkpt lat="29.3455343" lon="105.2414527"><ele>324.87</ele><time>2026-02-13T17:40:51.000Z</time></trkpt>
        <trkpt lat="29.3455726" lon="105.24134"><ele>326.23</ele><time>2026-02-13T17:40:59.000Z</time></trkpt>
        <trkpt lat="29.3456223" lon="105.2412299"><ele>327</ele><time>2026-02-13T17:41:07.000Z</time></trkpt>
        <trkpt lat="29.3456855" lon="105.2411275"><ele>327.76</ele><time>2026-02-13T17:41:15.000Z</time></trkpt>
        <trkpt lat="29.3457501" lon="105.241026"><ele>328.42</ele><time>2026-02-13T17:41:23.000Z</time></trkpt>
        <trkpt lat="29.3457854" lon="105.2409263"><ele>328.56</ele><time>2026-02-13T17:41:29.000Z</time></trkpt>
        <trkpt lat="29.3457861" lon="105.2408168"><ele>328.78</ele><time>2026-02-13T17:41:35.000Z</time></trkpt>
        <trkpt lat="29.3457495" lon="105.2407032"><ele>328.39</ele><time>2026-02-13T17:41:39.000Z</time></trkpt>
        <trkpt lat="29.3457123" lon="105.2405725"><ele>327.09</ele><time>2026-02-13T17:41:43.000Z</time></trkpt>
        <trkpt lat="29.3456839" lon="105.2404359"><ele>325.68</ele><time>2026-02-13T17:41:47.000Z</time></trkpt>
        <trkpt lat="29.3456587" lon="105.2402909"><ele>324.38</ele><time>2026-02-13T17:41:51.000Z</time></trkpt>
        <trkpt lat="29.3456249" lon="105.2401432"><ele>322.74</ele><time>2026-02-13T17:41:55.000Z</time></trkpt>
        <trkpt lat="29.3455675" lon="105.2400129"><ele>322.2</ele><time>2026-02-13T17:41:59.000Z</time></trkpt>
        <trkpt lat="29.3455039" lon="105.2398926"><ele>322.46</ele><time>2026-02-13T17:42:03.000Z</time></trkpt>
        <trkpt lat="29.3454312" lon="105.2397806"><ele>323.97</ele><time>2026-02-13T17:42:07.000Z</time></trkpt>
        <trkpt lat="29.3453425" lon="105.2396741"><ele>325.22</ele><time>2026-02-13T17:42:11.000Z</time></trkpt>
        <trkpt lat="29.3452647" lon="105.239558"><ele>326.26</ele><time>2026-02-13T17:42:15.000Z</time></trkpt>
        <trkpt lat="29.3452252" lon="105.239428"><ele>327.1</ele><time>2026-02-13T17:42:19.000Z</time></trkpt>
        <trkpt lat="29.3452159" lon="105.2392999"><ele>328.04</ele><time>2026-02-13T17:42:23.000Z</time></trkpt>
        <trkpt lat="29.3452234" lon="105.23918"><ele>328.35</ele><time>2026-02-13T17:42:27.000Z</time></trkpt>
        <trkpt lat="29.345243" lon="105.2390671"><ele>328.67</ele><time>2026-02-13T17:42:31.000Z</time></trkpt>
        <trkpt lat="29.3452643" lon="105.2389532"><ele>328.92</ele><time>2026-02-13T17:42:35.000Z</time></trkpt>
        <trkpt lat="29.3452774" lon="105.2388322"><ele>329.26</ele><time>2026-02-13T17:42:39.000Z</time></trkpt>
        <trkpt lat="29.3452724" lon="105.2387028"><ele>328.74</ele><time>2026-02-13T17:42:43.000Z</time></trkpt>
        <trkpt lat="29.3452467" lon="105.2385651"><ele>327.92</ele><time>2026-02-13T17:42:47.000Z</time></trkpt>
        <trkpt lat="29.3452011" lon="105.2384358"><ele>327.45</ele><time>2026-02-13T17:42:51.000Z</time></trkpt>
        <trkpt lat="29.3451391" lon="105.2383235"><ele>326.66</ele><time>2026-02-13T17:42:55.000Z</time></trkpt>
        <trkpt lat="29.3450658" lon="105.2382306"><ele>326.86</ele><time>2026-02-13T17:42:59.000Z</time></trkpt>
        <trkpt lat="29.3449858" lon="105.2381526"><ele>327.16</ele><time>2026-02-13T17:43:03.000Z</time></trkpt>
        <trkpt lat="29.3449108" lon="105.2380806"><ele>328.18</ele><time>2026-02-13T17:43:07.000Z</time></trkpt>
        <trkpt lat="29.3448749" lon="105.2380513"><ele>329.35</ele><time>2026-02-13T17:43:11.000Z</time></trkpt>
        <trkpt lat="29.3447991" lon="105.2380468"><ele>330.79</ele><time>2026-02-13T17:43:25.000Z</time></trkpt>
        <trkpt lat="29.3447457" lon="105.2380576"><ele>333.37</ele><time>2026-02-13T17:43:43.000Z</time></trkpt>
        <trkpt lat="29.3447189" lon="105.2379737"><ele>335.3</ele><time>2026-02-13T17:44:25.000Z</time></trkpt>
        <trkpt lat="29.3447017" lon="105.2378304"><ele>336.38</ele><time>2026-02-13T17:44:31.000Z</time></trkpt>
        <trkpt lat="29.344673" lon="105.2377046"><ele>336.41</ele><time>2026-02-13T17:44:35.000Z</time></trkpt>
        <trkpt lat="29.3446482" lon="105.2375716"><ele>336.49</ele><time>2026-02-13T17:44:39.000Z</time></trkpt>
        <trkpt lat="29.3446043" lon="105.2374497"><ele>336.24</ele><time>2026-02-13T17:44:43.000Z</time></trkpt>
        <trkpt lat="29.3445489" lon="105.2373348"><ele>335.78</ele><time>2026-02-13T17:44:47.000Z</time></trkpt>
        <trkpt lat="29.3444841" lon="105.2372297"><ele>335.37</ele><time>2026-02-13T17:44:51.000Z</time></trkpt>
        <trkpt lat="29.3444186" lon="105.2371246"><ele>334.37</ele><time>2026-02-13T17:44:55.000Z</time></trkpt>
        <trkpt lat="29.3443499" lon="105.2370265"><ele>333.8</ele><time>2026-02-13T17:44:59.000Z</time></trkpt>
        <trkpt lat="29.344271" lon="105.2369465"><ele>333.43</ele><time>2026-02-13T17:45:03.000Z</time></trkpt>
        <trkpt lat="29.3441696" lon="105.2368927"><ele>333.34</ele><time>2026-02-13T17:45:09.000Z</time></trkpt>
        <trkpt lat="29.3440477" lon="105.2369014"><ele>333.91</ele><time>2026-02-13T17:45:17.000Z</time></trkpt>
        <trkpt lat="29.3439501" lon="105.2369451"><ele>334.12</ele><time>2026-02-13T17:45:21.000Z</time></trkpt>
        <trkpt lat="29.3438649" lon="105.2370147"><ele>334.98</ele><time>2026-02-13T17:45:25.000Z</time></trkpt>
        <trkpt lat="29.3437821" lon="105.237082"><ele>336.22</ele><time>2026-02-13T17:45:29.000Z</time></trkpt>
        <trkpt lat="29.3437491" lon="105.2371202"><ele>337.76</ele><time>2026-02-13T17:45:31.000Z</time></trkpt>
        <trkpt lat="29.3437234" lon="105.2370451"><ele>338.89</ele><time>2026-02-13T17:45:57.000Z</time></trkpt>
        <trkpt lat="29.34367" lon="105.236951"><ele>340.37</ele><time>2026-02-13T17:46:05.000Z</time></trkpt>
        <trkpt lat="29.3435902" lon="105.2368714"><ele>341.26</ele><time>2026-02-13T17:46:13.000Z</time></trkpt>
        <trkpt lat="29.3435047" lon="105.2368036"><ele>342.33</ele><time>2026-02-13T17:46:21.000Z</time></trkpt>
        <trkpt lat="29.343427" lon="105.2367127"><ele>343.01</ele><time>2026-02-13T17:46:29.000Z</time></trkpt>
        <trkpt lat="29.3433538" lon="105.2366065"><ele>344.18</ele><time>2026-02-13T17:46:37.000Z</time></trkpt>
        <trkpt lat="29.3432796" lon="105.2364998"><ele>345.08</ele><time>2026-02-13T17:46:45.000Z</time></trkpt>
        <trkpt lat="29.3432035" lon="105.2363944"><ele>345.67</ele><time>2026-02-13T17:46:53.000Z</time></trkpt>
        <trkpt lat="29.3431364" lon="105.2362844"><ele>346.34</ele><time>2026-02-13T17:47:01.000Z</time></trkpt>
        <trkpt lat="29.3430605" lon="105.2361776"><ele>347.07</ele><time>2026-02-13T17:47:09.000Z</time></trkpt>
        <trkpt lat="29.3429846" lon="105.2360708"><ele>348.35</ele><time>2026-02-13T17:47:17.000Z</time></trkpt>
        <trkpt lat="29.3429182" lon="105.2359887"><ele>348.8</ele><time>2026-02-13T17:47:23.000Z</time></trkpt>
        <trkpt lat="29.342841" lon="105.2358975"><ele>348.91</ele><time>2026-02-13T17:47:31.000Z</time></trkpt>
        <trkpt lat="29.3427787" lon="105.2357891"><ele>349.66</ele><time>2026-02-13T17:47:39.000Z</time></trkpt>
        <trkpt lat="29.342752" lon="105.23566"><ele>350.47</ele><time>2026-02-13T17:47:47.000Z</time></trkpt>
        <trkpt lat="29.3427486" lon="105.2355204"><ele>351</ele><time>2026-02-13T17:47:55.000Z</time></trkpt>
        <trkpt lat="29.3427234" lon="105.2354059"><ele>352.42</ele><time>2026-02-13T17:48:03.000Z</time></trkpt>
        <trkpt lat="29.34268" lon="105.2353125"><ele>353.7</ele><time>2026-02-13T17:48:11.000Z</time></trkpt>
        <trkpt lat="29.3426367" lon="105.2352219"><ele>355.4</ele><time>2026-02-13T17:48:19.000Z</time></trkpt>
        <trkpt lat="29.342591" lon="105.2351317"><ele>357.46</ele><time>2026-02-13T17:48:27.000Z</time></trkpt>
        <trkpt lat="29.3424891" lon="105.2351056"><ele>359.11</ele><time>2026-02-13T17:48:39.000Z</time></trkpt>
        <trkpt lat="29.3423895" lon="105.2350997"><ele>359.41</ele><time>2026-02-13T17:48:53.000Z</time></trkpt>
        <trkpt lat="29.342358" lon="105.2350908"><ele>359.95</ele><time>2026-02-13T17:48:55.000Z</time></trkpt>
        <trkpt lat="29.3422741" lon="105.2350369"><ele>360.21</ele><time>2026-02-13T17:49:11.000Z</time></trkpt>
        <trkpt lat="29.3421676" lon="105.234998"><ele>360.42</ele><time>2026-02-13T17:49:17.000Z</time></trkpt>
        <trkpt lat="29.3421031" lon="105.2348924"><ele>359.92</ele><time>2026-02-13T17:49:25.000Z</time></trkpt>
        <trkpt lat="29.3420449" lon="105.2347754"><ele>359.56</ele><time>2026-02-13T17:49:33.000Z</time></trkpt>
        <trkpt lat="29.34198" lon="105.2346665"><ele>358.51</ele><time>2026-02-13T17:49:41.000Z</time></trkpt>
        <trkpt lat="29.341907" lon="105.2345715"><ele>358.19</ele><time>2026-02-13T17:49:47.000Z</time></trkpt>
        <trkpt lat="29.3418642" lon="105.2344756"><ele>357.76</ele><time>2026-02-13T17:49:53.000Z</time></trkpt>
        <trkpt lat="29.3418307" lon="105.2343569"><ele>357.11</ele><time>2026-02-13T17:50:01.000Z</time></trkpt>
        <trkpt lat="29.3418548" lon="105.2342517"><ele>356.56</ele><time>2026-02-13T17:50:07.000Z</time></trkpt>
        <trkpt lat="29.3418632" lon="105.2341912"><ele>356.47</ele><time>2026-02-13T17:50:11.000Z</time></trkpt>
        <trkpt lat="29.3418551" lon="105.2341029"><ele>356.67</ele><time>2026-02-13T17:50:21.000Z</time></trkpt>
        <trkpt lat="29.3418232" lon="105.234009"><ele>356.26</ele><time>2026-02-13T17:50:27.000Z</time></trkpt>
        <trkpt lat="29.3417628" lon="105.2339318"><ele>356.27</ele><time>2026-02-13T17:50:33.000Z</time></trkpt>
        <trkpt lat="29.3416749" lon="105.2338668"><ele>356.33</ele><time>2026-02-13T17:50:41.000Z</time></trkpt>
        <trkpt lat="29.3415892" lon="105.2338098"><ele>356.45</ele><time>2026-02-13T17:50:47.000Z</time></trkpt>
        <trkpt lat="29.3415006" lon="105.2337296"><ele>356.32</ele><time>2026-02-13T17:50:55.000Z</time></trkpt>
        <trkpt lat="29.3414329" lon="105.233643"><ele>356.08</ele><time>2026-02-13T17:51:01.000Z</time></trkpt>
        <trkpt lat="29.3413891" lon="105.2335462"><ele>355.79</ele><time>2026-02-13T17:51:09.000Z</time></trkpt>
        <trkpt lat="29.3413647" lon="105.2334367"><ele>355.58</ele><time>2026-02-13T17:51:17.000Z</time></trkpt>
        <trkpt lat="29.3413704" lon="105.233324"><ele>355.52</ele><time>2026-02-13T17:51:23.000Z</time></trkpt>
        <trkpt lat="29.3413941" lon="105.2332091"><ele>356.44</ele><time>2026-02-13T17:51:31.000Z</time></trkpt>
        <trkpt lat="29.3413294" lon="105.2331816"><ele>357.8</ele><time>2026-02-13T17:51:51.000Z</time></trkpt>
        <trkpt lat="29.3412711" lon="105.2331991"><ele>357.5</ele><time>2026-02-13T17:51:57.000Z</time></trkpt>
        <trkpt lat="29.3411741" lon="105.233236"><ele>357.59</ele><time>2026-02-13T17:52:09.000Z</time></trkpt>
        <trkpt lat="29.3410589" lon="105.2332768"><ele>357.93</ele><time>2026-02-13T17:52:17.000Z</time></trkpt>
        <trkpt lat="29.3409478" lon="105.2333152"><ele>358.12</ele><time>2026-02-13T17:52:25.000Z</time></trkpt>
        <trkpt lat="29.3408517" lon="105.2333542"><ele>358.66</ele><time>2026-02-13T17:52:33.000Z</time></trkpt>
        <trkpt lat="29.3407502" lon="105.2334059"><ele>359.15</ele><time>2026-02-13T17:52:39.000Z</time></trkpt>
        <trkpt lat="29.3406401" lon="105.2334415"><ele>360.27</ele><time>2026-02-13T17:52:45.000Z</time></trkpt>
        <trkpt lat="29.3405289" lon="105.233429"><ele>362.32</ele><time>2026-02-13T17:52:53.000Z</time></trkpt>
        <trkpt lat="29.3404337" lon="105.233391"><ele>364.58</ele><time>2026-02-13T17:53:03.000Z</time></trkpt>
        <trkpt lat="29.3403445" lon="105.2333306"><ele>367.37</ele><time>2026-02-13T17:53:11.000Z</time></trkpt>
        <trkpt lat="29.3403058" lon="105.2332203"><ele>370.28</ele><time>2026-02-13T17:53:21.000Z</time></trkpt>
        <trkpt lat="29.3402585" lon="105.2331198"><ele>372.2</ele><time>2026-02-13T17:53:29.000Z</time></trkpt>
        <trkpt lat="29.3402154" lon="105.2330511"><ele>373.17</ele><time>2026-02-13T17:53:39.000Z</time></trkpt>
        <trkpt lat="29.3401942" lon="105.2329537"><ele>373.8</ele><time>2026-02-13T17:53:57.000Z</time></trkpt>
        <trkpt lat="29.3401591" lon="105.2328552"><ele>373.12</ele><time>2026-02-13T17:54:03.000Z</time></trkpt>
        <trkpt lat="29.3401377" lon="105.2327977"><ele>372.43</ele><time>2026-02-13T17:54:07.000Z</time></trkpt>
        <trkpt lat="29.3401057" lon="105.2327061"><ele>372.15</ele><time>2026-02-13T17:54:35.000Z</time></trkpt>
        <trkpt lat="29.3400998" lon="105.2326771"><ele>371.37</ele><time>2026-02-13T17:54:39.000Z</time></trkpt>
        <trkpt lat="29.3400807" lon="105.2325917"><ele>371.34</ele><time>2026-02-13T17:55:11.000Z</time></trkpt>
        <trkpt lat="29.3400847" lon="105.2324996"><ele>371.62</ele><time>2026-02-13T17:55:19.000Z</time></trkpt>
        <trkpt lat="29.3400466" lon="105.2323984"><ele>371.62</ele><time>2026-02-13T17:56:43.000Z</time></trkpt>
        <trkpt lat="29.3400193" lon="105.2322756"><ele>371.53</ele><time>2026-02-13T17:56:53.000Z</time></trkpt>
        <trkpt lat="29.3399814" lon="105.2321895"><ele>372.1</ele><time>2026-02-13T17:57:03.000Z</time></trkpt>
        <trkpt lat="29.3399599" lon="105.2320947"><ele>372.57</ele><time>2026-02-13T17:58:33.000Z</time></trkpt>
        <trkpt lat="29.3399397" lon="105.2320307"><ele>372.23</ele><time>2026-02-13T17:58:43.000Z</time></trkpt>
        <trkpt lat="29.3399089" lon="105.2319393"><ele>371.49</ele><time>2026-02-13T17:59:37.000Z</time></trkpt>
        <trkpt lat="29.3399129" lon="105.2318602"><ele>370.04</ele><time>2026-02-13T17:59:43.000Z</time></trkpt>
        <trkpt lat="29.3399096" lon="105.2319261"><ele>368.74</ele><time>2026-02-13T18:00:05.000Z</time></trkpt>
        <trkpt lat="29.3399392" lon="105.2320366"><ele>368.31</ele><time>2026-02-13T18:00:09.000Z</time></trkpt>
        <trkpt lat="29.3399716" lon="105.2321612"><ele>369.18</ele><time>2026-02-13T18:00:13.000Z</time></trkpt>
        <trkpt lat="29.3399919" lon="105.2322166"><ele>370.08</ele><time>2026-02-13T18:00:31.000Z</time></trkpt>
        <trkpt lat="29.3400249" lon="105.2323199"><ele>370.99</ele><time>2026-02-13T18:02:23.000Z</time></trkpt>
        <trkpt lat="29.3400751" lon="105.2324382"><ele>371.88</ele><time>2026-02-13T18:02:33.000Z</time></trkpt>
        <trkpt lat="29.3400942" lon="105.2324682"><ele>372.01</ele><time>2026-02-13T18:02:37.000Z</time></trkpt>
        <trkpt lat="29.3400513" lon="105.2323699"><ele>371.92</ele><time>2026-02-13T18:03:31.000Z</time></trkpt>
        <trkpt lat="29.3400031" lon="105.2322397"><ele>371.66</ele><time>2026-02-13T18:03:35.000Z</time></trkpt>
        <trkpt lat="29.3399566" lon="105.2321017"><ele>371.96</ele><time>2026-02-13T18:03:39.000Z</time></trkpt>
        <trkpt lat="29.3399085" lon="105.2319517"><ele>371.4</ele><time>2026-02-13T18:03:43.000Z</time></trkpt>
        <trkpt lat="29.3399168" lon="105.231832"><ele>370.51</ele><time>2026-02-13T18:04:01.000Z</time></trkpt>
        <trkpt lat="29.3399263" lon="105.2318921"><ele>369.34</ele><time>2026-02-13T18:04:09.000Z</time></trkpt>
        <trkpt lat="29.3399594" lon="105.2320144"><ele>369.1</ele><time>2026-02-13T18:04:13.000Z</time></trkpt>
        <trkpt lat="29.3399949" lon="105.232144"><ele>369.7</ele><time>2026-02-13T18:04:17.000Z</time></trkpt>
        <trkpt lat="29.3400322" lon="105.2322748"><ele>370.44</ele><time>2026-02-13T18:04:21.000Z</time></trkpt>
        <trkpt lat="29.3400752" lon="105.2324067"><ele>370.54</ele><time>2026-02-13T18:04:25.000Z</time></trkpt>
        <trkpt lat="29.3400874" lon="105.2324367"><ele>370.24</ele><time>2026-02-13T18:04:31.000Z</time></trkpt>
        <trkpt lat="29.340024" lon="105.2323142"><ele>370.31</ele><time>2026-02-13T18:05:57.000Z</time></trkpt>
        <trkpt lat="29.3399794" lon="105.2321876"><ele>370.78</ele><time>2026-02-13T18:06:01.000Z</time></trkpt>
        <trkpt lat="29.3399428" lon="105.2320657"><ele>371.23</ele><time>2026-02-13T18:06:05.000Z</time></trkpt>
        <trkpt lat="29.339903" lon="105.2319313"><ele>371.29</ele><time>2026-02-13T18:06:09.000Z</time></trkpt>
        <trkpt lat="29.3399097" lon="105.2319772"><ele>370.68</ele><time>2026-02-13T18:06:23.000Z</time></trkpt>
        <trkpt lat="29.3399477" lon="105.232098"><ele>370.39</ele><time>2026-02-13T18:06:29.000Z</time></trkpt>
        <trkpt lat="29.3400052" lon="105.2322475"><ele>370.76</ele><time>2026-02-13T18:06:35.000Z</time></trkpt>
        <trkpt lat="29.3400314" lon="105.2323407"><ele>371.05</ele><time>2026-02-13T18:06:39.000Z</time></trkpt>
        <trkpt lat="29.340008" lon="105.2322885"><ele>370.88</ele><time>2026-02-13T18:06:51.000Z</time></trkpt>
        <trkpt lat="29.3399644" lon="105.2321455"><ele>370.79</ele><time>2026-02-13T18:06:57.000Z</time></trkpt>
        <trkpt lat="29.3399171" lon="105.2319976"><ele>370.59</ele><time>2026-02-13T18:07:01.000Z</time></trkpt>
        <trkpt lat="29.3399381" lon="105.2320179"><ele>369.82</ele><time>2026-02-13T18:07:15.000Z</time></trkpt>
        <trkpt lat="29.3399692" lon="105.232123"><ele>369.67</ele><time>2026-02-13T18:07:21.000Z</time></trkpt>
        <trkpt lat="29.3399776" lon="105.2321724"><ele>370.35</ele><time>2026-02-13T18:07:23.000Z</time></trkpt>
        <trkpt lat="29.3399472" lon="105.2320686"><ele>370.94</ele><time>2026-02-13T18:08:41.000Z</time></trkpt>
        <trkpt lat="29.3399133" lon="105.2319584"><ele>370.59</ele><time>2026-02-13T18:08:49.000Z</time></trkpt>
        <trkpt lat="29.3398907" lon="105.2319379"><ele>370.2</ele><time>2026-02-13T18:08:53.000Z</time></trkpt>
        <trkpt lat="29.3399109" lon="105.2320124"><ele>370.06</ele><time>2026-02-13T18:09:19.000Z</time></trkpt>
        <trkpt lat="29.3399391" lon="105.2321483"><ele>369.91</ele><time>2026-02-13T18:09:25.000Z</time></trkpt>
        <trkpt lat="29.3399774" lon="105.2322752"><ele>369.29</ele><time>2026-02-13T18:09:29.000Z</time></trkpt>
        <trkpt lat="29.339988" lon="105.2322664"><ele>369.1</ele><time>2026-02-13T18:09:39.000Z</time></trkpt>
        <trkpt lat="29.3399631" lon="105.232176"><ele>369.38</ele><time>2026-02-13T18:09:47.000Z</time></trkpt>
        <trkpt lat="29.3399441" lon="105.2321084"><ele>370.12</ele><time>2026-02-13T18:09:53.000Z</time></trkpt>
        <trkpt lat="29.3399911" lon="105.2321971"><ele>370.26</ele><time>2026-02-13T18:10:59.000Z</time></trkpt>
        <trkpt lat="29.3399908" lon="105.2322184"><ele>370.76</ele><time>2026-02-13T18:11:01.000Z</time></trkpt>
        <trkpt lat="29.3399626" lon="105.2321016"><ele>370.45</ele><time>2026-02-13T18:12:07.000Z</time></trkpt>
        <trkpt lat="29.3399855" lon="105.2322016"><ele>370.27</ele><time>2026-02-13T18:14:35.000Z</time></trkpt>
        <trkpt lat="29.3400245" lon="105.2322449"><ele>370.61</ele><time>2026-02-13T18:14:39.000Z</time></trkpt>
        <trkpt lat="29.3400817" lon="105.2323199"><ele>371.03</ele><time>2026-02-13T18:14:47.000Z</time></trkpt>
        <trkpt lat="29.3400917" lon="105.2323338"><ele>371.08</ele><time>2026-02-13T18:14:49.000Z</time></trkpt>
        <trkpt lat="29.3400023" lon="105.2322688"><ele>371.12</ele><time>2026-02-13T18:26:07.000Z</time></trkpt>
        <trkpt lat="29.339977" lon="105.2321659"><ele>371.39</ele><time>2026-02-13T18:44:21.000Z</time></trkpt>
        <trkpt lat="29.3399424" lon="105.2320469"><ele>372.16</ele><time>2026-02-13T18:44:55.000Z</time></trkpt>
        <trkpt lat="29.3399066" lon="105.2319422"><ele>371.52</ele><time>2026-02-13T18:45:05.000Z</time></trkpt>
        <trkpt lat="29.339888" lon="105.2318257"><ele>370.39</ele><time>2026-02-13T18:45:15.000Z</time></trkpt>
        <trkpt lat="29.3398875" lon="105.2317142"><ele>368.87</ele><time>2026-02-13T18:45:23.000Z</time></trkpt>
        <trkpt lat="29.3398898" lon="105.231677"><ele>367.21</ele><time>2026-02-13T18:45:25.000Z</time></trkpt>
        <trkpt lat="29.339942" lon="105.2316135"><ele>366.33</ele><time>2026-02-13T18:45:47.000Z</time></trkpt>
        <trkpt lat="29.3400101" lon="105.2315295"><ele>367.69</ele><time>2026-02-13T18:45:57.000Z</time></trkpt>
        <trkpt lat="29.3400502" lon="105.2314707"><ele>369.49</ele><time>2026-02-13T18:46:03.000Z</time></trkpt>
        <trkpt lat="29.3400348" lon="105.2313728"><ele>370.62</ele><time>2026-02-13T18:46:19.000Z</time></trkpt>
        <trkpt lat="29.3400197" lon="105.231255"><ele>372</ele><time>2026-02-13T18:46:33.000Z</time></trkpt>
        <trkpt lat="29.339994" lon="105.2311391"><ele>372.63</ele><time>2026-02-13T18:46:45.000Z</time></trkpt>
        <trkpt lat="29.3399357" lon="105.2310481"><ele>374.13</ele><time>2026-02-13T18:46:55.000Z</time></trkpt>
        <trkpt lat="29.3399173" lon="105.2309465"><ele>375.47</ele><time>2026-02-13T18:47:03.000Z</time></trkpt>
        <trkpt lat="29.3399004" lon="105.2308378"><ele>376.57</ele><time>2026-02-13T18:47:11.000Z</time></trkpt>
        <trkpt lat="29.3398873" lon="105.2307304"><ele>377.11</ele><time>2026-02-13T18:47:21.000Z</time></trkpt>
        <trkpt lat="29.3398609" lon="105.230631"><ele>378.25</ele><time>2026-02-13T18:47:35.000Z</time></trkpt>
        <trkpt lat="29.3398478" lon="105.2305802"><ele>379.26</ele><time>2026-02-13T18:47:45.000Z</time></trkpt>
        <trkpt lat="29.3398815" lon="105.2304986"><ele>379.38</ele><time>2026-02-13T18:47:59.000Z</time></trkpt>
        <trkpt lat="29.3399482" lon="105.2304142"><ele>378.36</ele><time>2026-02-13T18:48:11.000Z</time></trkpt>
        <trkpt lat="29.3400272" lon="105.2303439"><ele>377.39</ele><time>2026-02-13T18:48:33.000Z</time></trkpt>
        <trkpt lat="29.3401191" lon="105.2303159"><ele>375.52</ele><time>2026-02-13T18:48:43.000Z</time></trkpt>
        <trkpt lat="29.3401642" lon="105.2302808"><ele>374.15</ele><time>2026-02-13T18:48:49.000Z</time></trkpt>
        <trkpt lat="29.3402008" lon="105.2301948"><ele>373.32</ele><time>2026-02-13T18:49:01.000Z</time></trkpt>
        <trkpt lat="29.3402009" lon="105.2300895"><ele>372.79</ele><time>2026-02-13T18:49:09.000Z</time></trkpt>
        <trkpt lat="29.3402315" lon="105.229989"><ele>372.49</ele><time>2026-02-13T18:49:25.000Z</time></trkpt>
        <trkpt lat="29.3402574" lon="105.2298737"><ele>371.99</ele><time>2026-02-13T18:49:39.000Z</time></trkpt>
        <trkpt lat="29.3402794" lon="105.2297702"><ele>371.46</ele><time>2026-02-13T18:49:49.000Z</time></trkpt>
        <trkpt lat="29.3403029" lon="105.2296577"><ele>371.32</ele><time>2026-02-13T18:50:09.000Z</time></trkpt>
        <trkpt lat="29.3403326" lon="105.2295446"><ele>371.42</ele><time>2026-02-13T18:50:19.000Z</time></trkpt>
        <trkpt lat="29.340326" lon="105.2294322"><ele>370.23</ele><time>2026-02-13T18:50:31.000Z</time></trkpt>
        <trkpt lat="29.3403584" lon="105.2293384"><ele>368.35</ele><time>2026-02-13T18:50:43.000Z</time></trkpt>
        <trkpt lat="29.3403896" lon="105.2292376"><ele>367.31</ele><time>2026-02-13T18:50:55.000Z</time></trkpt>
        <trkpt lat="29.3403951" lon="105.2291296"><ele>365.65</ele><time>2026-02-13T18:51:25.000Z</time></trkpt>
        <trkpt lat="29.3404359" lon="105.2290366"><ele>363.45</ele><time>2026-02-13T18:51:49.000Z</time></trkpt>
        <trkpt lat="29.3405163" lon="105.2289704"><ele>361.04</ele><time>2026-02-13T18:52:05.000Z</time></trkpt>
        <trkpt lat="29.3405616" lon="105.2288801"><ele>359.26</ele><time>2026-02-13T18:52:15.000Z</time></trkpt>
        <trkpt lat="29.3405536" lon="105.2287722"><ele>358.07</ele><time>2026-02-13T18:52:25.000Z</time></trkpt>
        <trkpt lat="29.3404888" lon="105.2286859"><ele>357.35</ele><time>2026-02-13T18:52:31.000Z</time></trkpt>
        <trkpt lat="29.3404468" lon="105.2285867"><ele>356.85</ele><time>2026-02-13T18:52:37.000Z</time></trkpt>
        <trkpt lat="29.3403836" lon="105.2285016"><ele>356.44</ele><time>2026-02-13T18:52:45.000Z</time></trkpt>
        <trkpt lat="29.3403051" lon="105.2284415"><ele>356.25</ele><time>2026-02-13T18:52:53.000Z</time></trkpt>
        <trkpt lat="29.3402132" lon="105.2284178"><ele>356.21</ele><time>2026-02-13T18:53:03.000Z</time></trkpt>
        <trkpt lat="29.3401541" lon="105.2283828"><ele>356.6</ele><time>2026-02-13T18:53:11.000Z</time></trkpt>
        <trkpt lat="29.3400884" lon="105.2283152"><ele>357.53</ele><time>2026-02-13T18:53:41.000Z</time></trkpt>
        <trkpt lat="29.3400695" lon="105.2282933"><ele>359.33</ele><time>2026-02-13T18:53:43.000Z</time></trkpt>
        <trkpt lat="29.3400165" lon="105.2282307"><ele>360.39</ele><time>2026-02-13T18:54:17.000Z</time></trkpt>
        <trkpt lat="29.3399658" lon="105.2282055"><ele>361.98</ele><time>2026-02-13T18:54:25.000Z</time></trkpt>
        <trkpt lat="29.3399263" lon="105.2281224"><ele>363.69</ele><time>2026-02-13T18:55:05.000Z</time></trkpt>
        <trkpt lat="29.3398514" lon="105.2280504"><ele>364.75</ele><time>2026-02-13T18:55:15.000Z</time></trkpt>
        <trkpt lat="29.339791" lon="105.2279559"><ele>366.03</ele><time>2026-02-13T18:55:27.000Z</time></trkpt>
        <trkpt lat="29.3397445" lon="105.2278438"><ele>366.84</ele><time>2026-02-13T18:55:37.000Z</time></trkpt>
        <trkpt lat="29.3397229" lon="105.2277299"><ele>367.89</ele><time>2026-02-13T18:55:47.000Z</time></trkpt>
        <trkpt lat="29.3396723" lon="105.2276286"><ele>368.44</ele><time>2026-02-13T18:55:57.000Z</time></trkpt>
        <trkpt lat="29.339608" lon="105.2275263"><ele>369.35</ele><time>2026-02-13T18:56:07.000Z</time></trkpt>
        <trkpt lat="29.3395296" lon="105.227455"><ele>371.21</ele><time>2026-02-13T18:56:19.000Z</time></trkpt>
        <trkpt lat="29.3394617" lon="105.2273833"><ele>373.82</ele><time>2026-02-13T18:56:27.000Z</time></trkpt>
        <trkpt lat="29.3393983" lon="105.2273108"><ele>376.09</ele><time>2026-02-13T18:56:37.000Z</time></trkpt>
        <trkpt lat="29.3393824" lon="105.2272406"><ele>377.35</ele><time>2026-02-13T18:56:45.000Z</time></trkpt>
        <trkpt lat="29.3393506" lon="105.2271412"><ele>378.01</ele><time>2026-02-13T18:57:09.000Z</time></trkpt>
        <trkpt lat="29.3392778" lon="105.2270705"><ele>379.21</ele><time>2026-02-13T18:57:21.000Z</time></trkpt>
        <trkpt lat="29.339206" lon="105.2269861"><ele>380.28</ele><time>2026-02-13T18:57:31.000Z</time></trkpt>
        <trkpt lat="29.3391269" lon="105.2269119"><ele>381.69</ele><time>2026-02-13T18:57:39.000Z</time></trkpt>
        <trkpt lat="29.3390578" lon="105.2268377"><ele>382.76</ele><time>2026-02-13T18:57:47.000Z</time></trkpt>
        <trkpt lat="29.3389872" lon="105.2267659"><ele>383.93</ele><time>2026-02-13T18:57:55.000Z</time></trkpt>
        <trkpt lat="29.3389806" lon="105.2266654"><ele>384.41</ele><time>2026-02-13T18:58:05.000Z</time></trkpt>
        <trkpt lat="29.3389662" lon="105.2265507"><ele>384.46</ele><time>2026-02-13T18:58:13.000Z</time></trkpt>
        <trkpt lat="29.3389922" lon="105.2264434"><ele>384.33</ele><time>2026-02-13T18:58:23.000Z</time></trkpt>
        <trkpt lat="29.3389659" lon="105.2263515"><ele>383.05</ele><time>2026-02-13T18:58:31.000Z</time></trkpt>
        <trkpt lat="29.3389273" lon="105.2262529"><ele>382.05</ele><time>2026-02-13T18:58:39.000Z</time></trkpt>
        <trkpt lat="29.3389074" lon="105.2261318"><ele>380.83</ele><time>2026-02-13T18:58:49.000Z</time></trkpt>
        <trkpt lat="29.3388773" lon="105.2260192"><ele>379.71</ele><time>2026-02-13T18:58:57.000Z</time></trkpt>
        <trkpt lat="29.3388482" lon="105.2258998"><ele>379.25</ele><time>2026-02-13T18:59:07.000Z</time></trkpt>
        <trkpt lat="29.3388318" lon="105.2257847"><ele>378.19</ele><time>2026-02-13T18:59:15.000Z</time></trkpt>
        <trkpt lat="29.3387964" lon="105.2256758"><ele>376.74</ele><time>2026-02-13T18:59:25.000Z</time></trkpt>
        <trkpt lat="29.3387857" lon="105.2255692"><ele>376.58</ele><time>2026-02-13T18:59:33.000Z</time></trkpt>
        <trkpt lat="29.33878" lon="105.2254599"><ele>376.32</ele><time>2026-02-13T18:59:41.000Z</time></trkpt>
        <trkpt lat="29.3387892" lon="105.225337"><ele>376.33</ele><time>2026-02-13T18:59:49.000Z</time></trkpt>
        <trkpt lat="29.3387894" lon="105.2252234"><ele>376.92</ele><time>2026-02-13T18:59:59.000Z</time></trkpt>
        <trkpt lat="29.3388184" lon="105.2251059"><ele>377.47</ele><time>2026-02-13T19:00:09.000Z</time></trkpt>
        <trkpt lat="29.3388725" lon="105.2249983"><ele>377.76</ele><time>2026-02-13T19:00:17.000Z</time></trkpt>
        <trkpt lat="29.3389269" lon="105.2248952"><ele>377.89</ele><time>2026-02-13T19:00:27.000Z</time></trkpt>
        <trkpt lat="29.3389712" lon="105.2247854"><ele>377.68</ele><time>2026-02-13T19:00:37.000Z</time></trkpt>
        <trkpt lat="29.3390231" lon="105.2246735"><ele>377.37</ele><time>2026-02-13T19:00:47.000Z</time></trkpt>
        <trkpt lat="29.3390664" lon="105.2245605"><ele>376.21</ele><time>2026-02-13T19:00:57.000Z</time></trkpt>
        <trkpt lat="29.3391207" lon="105.2244813"><ele>374.9</ele><time>2026-02-13T19:01:05.000Z</time></trkpt>
        <trkpt lat="29.339216" lon="105.2244385"><ele>374.27</ele><time>2026-02-13T19:01:21.000Z</time></trkpt>
        <trkpt lat="29.339313" lon="105.2244206"><ele>373.17</ele><time>2026-02-13T19:01:29.000Z</time></trkpt>
        <trkpt lat="29.3394159" lon="105.2244523"><ele>372.36</ele><time>2026-02-13T19:01:41.000Z</time></trkpt>
        <trkpt lat="29.3395127" lon="105.2244881"><ele>372.71</ele><time>2026-02-13T19:01:49.000Z</time></trkpt>
        <trkpt lat="29.3395738" lon="105.2245864"><ele>372.96</ele><time>2026-02-13T19:01:59.000Z</time></trkpt>
        <trkpt lat="29.3396602" lon="105.2246697"><ele>373.13</ele><time>2026-02-13T19:02:07.000Z</time></trkpt>
        <trkpt lat="29.3396981" lon="105.2247717"><ele>373.24</ele><time>2026-02-13T19:02:19.000Z</time></trkpt>
        <trkpt lat="29.3397737" lon="105.22485"><ele>373.13</ele><time>2026-02-13T19:02:29.000Z</time></trkpt>
        <trkpt lat="29.339819" lon="105.2248219"><ele>372.04</ele><time>2026-02-13T19:02:37.000Z</time></trkpt>
        <trkpt lat="29.3398743" lon="105.2247387"><ele>371.34</ele><time>2026-02-13T19:02:45.000Z</time></trkpt>
        <trkpt lat="29.3399207" lon="105.224636"><ele>370.34</ele><time>2026-02-13T19:02:53.000Z</time></trkpt>
        <trkpt lat="29.3399467" lon="105.2245829"><ele>369.68</ele><time>2026-02-13T19:02:59.000Z</time></trkpt>
        <trkpt lat="29.3399922" lon="105.2245097"><ele>369.47</ele><time>2026-02-13T19:03:09.000Z</time></trkpt>
        <trkpt lat="29.3400573" lon="105.2244267"><ele>368.98</ele><time>2026-02-13T19:03:17.000Z</time></trkpt>
        <trkpt lat="29.3400958" lon="105.224406"><ele>369.44</ele><time>2026-02-13T19:03:21.000Z</time></trkpt>
        <trkpt lat="29.3400439" lon="105.2244658"><ele>369.56</ele><time>2026-02-13T19:03:53.000Z</time></trkpt>
        <trkpt lat="29.3399614" lon="105.2245675"><ele>370.22</ele><time>2026-02-13T19:04:01.000Z</time></trkpt>
        <trkpt lat="29.3398901" lon="105.2246887"><ele>370.41</ele><time>2026-02-13T19:04:09.000Z</time></trkpt>
        <trkpt lat="29.3398182" lon="105.2247973"><ele>370.64</ele><time>2026-02-13T19:04:17.000Z</time></trkpt>
        <trkpt lat="29.3397239" lon="105.2248573"><ele>370.68</ele><time>2026-02-13T19:04:25.000Z</time></trkpt>
        <trkpt lat="29.3396631" lon="105.2247848"><ele>370.8</ele><time>2026-02-13T19:04:33.000Z</time></trkpt>
        <trkpt lat="29.339597" lon="105.2246706"><ele>371.5</ele><time>2026-02-13T19:04:47.000Z</time></trkpt>
        <trkpt lat="29.3395327" lon="105.2245678"><ele>372.72</ele><time>2026-02-13T19:04:55.000Z</time></trkpt>
        <trkpt lat="29.3394567" lon="105.2244936"><ele>373.62</ele><time>2026-02-13T19:05:03.000Z</time></trkpt>
        <trkpt lat="29.3393658" lon="105.2244352"><ele>374.55</ele><time>2026-02-13T19:05:13.000Z</time></trkpt>
        <trkpt lat="29.3392717" lon="105.2244204"><ele>374.83</ele><time>2026-02-13T19:05:23.000Z</time></trkpt>
        <trkpt lat="29.3391762" lon="105.2244515"><ele>375.08</ele><time>2026-02-13T19:05:33.000Z</time></trkpt>
        <trkpt lat="29.3391109" lon="105.2244004"><ele>374.58</ele><time>2026-02-13T19:06:07.000Z</time></trkpt>
        <trkpt lat="29.3391374" lon="105.2243196"><ele>374.05</ele><time>2026-02-13T19:06:37.000Z</time></trkpt>
        <trkpt lat="29.3390973" lon="105.2243755"><ele>373.53</ele><time>2026-02-13T19:07:41.000Z</time></trkpt>
        <trkpt lat="29.3391739" lon="105.2244486"><ele>372.85</ele><time>2026-02-13T19:07:55.000Z</time></trkpt>
        <trkpt lat="29.3392766" lon="105.2244462"><ele>372.58</ele><time>2026-02-13T19:08:11.000Z</time></trkpt>
        <trkpt lat="29.3393794" lon="105.2244669"><ele>372.11</ele><time>2026-02-13T19:08:21.000Z</time></trkpt>
        <trkpt lat="29.3394824" lon="105.2245016"><ele>371.99</ele><time>2026-02-13T19:08:33.000Z</time></trkpt>
        <trkpt lat="29.3395613" lon="105.2245789"><ele>372.34</ele><time>2026-02-13T19:08:41.000Z</time></trkpt>
        <trkpt lat="29.3396426" lon="105.2246572"><ele>372.9</ele><time>2026-02-13T19:08:49.000Z</time></trkpt>
        <trkpt lat="29.3396838" lon="105.2247553"><ele>373.16</ele><time>2026-02-13T19:08:59.000Z</time></trkpt>
        <trkpt lat="29.3397401" lon="105.2248509"><ele>373.6</ele><time>2026-02-13T19:09:09.000Z</time></trkpt>
        <trkpt lat="29.3398042" lon="105.2248253"><ele>372.79</ele><time>2026-02-13T19:09:17.000Z</time></trkpt>
        <trkpt lat="29.339866" lon="105.2247464"><ele>370.88</ele><time>2026-02-13T19:09:23.000Z</time></trkpt>
        <trkpt lat="29.3399209" lon="105.2246452"><ele>369.73</ele><time>2026-02-13T19:09:29.000Z</time></trkpt>
        <trkpt lat="29.3399812" lon="105.2245451"><ele>369.17</ele><time>2026-02-13T19:09:35.000Z</time></trkpt>
        <trkpt lat="29.3400459" lon="105.2244477"><ele>369.04</ele><time>2026-02-13T19:09:43.000Z</time></trkpt>
        <trkpt lat="29.3401331" lon="105.2244447"><ele>369.47</ele><time>2026-02-13T19:09:57.000Z</time></trkpt>
        <trkpt lat="29.340194" lon="105.2245203"><ele>368.6</ele><time>2026-02-13T19:10:13.000Z</time></trkpt>
        <trkpt lat="29.3402847" lon="105.2245437"><ele>367.06</ele><time>2026-02-13T19:10:29.000Z</time></trkpt>
        <trkpt lat="29.3403781" lon="105.2245379"><ele>365.63</ele><time>2026-02-13T19:10:37.000Z</time></trkpt>
        <trkpt lat="29.3404701" lon="105.2244861"><ele>365.03</ele><time>2026-02-13T19:10:45.000Z</time></trkpt>
        <trkpt lat="29.3405471" lon="105.2244128"><ele>364.26</ele><time>2026-02-13T19:10:51.000Z</time></trkpt>
        <trkpt lat="29.3405979" lon="105.2242991"><ele>364.04</ele><time>2026-02-13T19:10:57.000Z</time></trkpt>
        <trkpt lat="29.3405986" lon="105.2241665"><ele>363.99</ele><time>2026-02-13T19:11:03.000Z</time></trkpt>
        <trkpt lat="29.3405345" lon="105.2240732"><ele>364.31</ele><time>2026-02-13T19:11:13.000Z</time></trkpt>
        <trkpt lat="29.3404585" lon="105.2239943"><ele>364.52</ele><time>2026-02-13T19:11:21.000Z</time></trkpt>
        <trkpt lat="29.3404067" lon="105.2238987"><ele>364.84</ele><time>2026-02-13T19:11:29.000Z</time></trkpt>
        <trkpt lat="29.3403593" lon="105.2238396"><ele>364.62</ele><time>2026-02-13T19:11:35.000Z</time></trkpt>
        <trkpt lat="29.3403517" lon="105.2237471"><ele>364.51</ele><time>2026-02-13T19:12:05.000Z</time></trkpt>
        <trkpt lat="29.3403096" lon="105.2236448"><ele>363.2</ele><time>2026-02-13T19:12:39.000Z</time></trkpt>
        <trkpt lat="29.3402341" lon="105.2235576"><ele>359.72</ele><time>2026-02-13T19:12:47.000Z</time></trkpt>
        <trkpt lat="29.3401522" lon="105.2234922"><ele>356.82</ele><time>2026-02-13T19:12:53.000Z</time></trkpt>
        <trkpt lat="29.3400573" lon="105.2234285"><ele>355.46</ele><time>2026-02-13T19:13:01.000Z</time></trkpt>
        <trkpt lat="29.3399615" lon="105.2233617"><ele>354.75</ele><time>2026-02-13T19:13:09.000Z</time></trkpt>
        <trkpt lat="29.3399123" lon="105.223257"><ele>354.31</ele><time>2026-02-13T19:13:17.000Z</time></trkpt>
        <trkpt lat="29.3398844" lon="105.2231295"><ele>354.51</ele><time>2026-02-13T19:13:25.000Z</time></trkpt>
        <trkpt lat="29.3399206" lon="105.2230415"><ele>353.94</ele><time>2026-02-13T19:13:39.000Z</time></trkpt>
        <trkpt lat="29.3400033" lon="105.2229798"><ele>353.58</ele><time>2026-02-13T19:13:51.000Z</time></trkpt>
        <trkpt lat="29.3401077" lon="105.2229724"><ele>351.89</ele><time>2026-02-13T19:14:03.000Z</time></trkpt>
        <trkpt lat="29.3402229" lon="105.2229628"><ele>349.46</ele><time>2026-02-13T19:14:11.000Z</time></trkpt>
        <trkpt lat="29.340242" lon="105.2228891"><ele>347.65</ele><time>2026-02-13T19:14:25.000Z</time></trkpt>
        <trkpt lat="29.340259" lon="105.2227776"><ele>346.28</ele><time>2026-02-13T19:14:33.000Z</time></trkpt>
        <trkpt lat="29.3403202" lon="105.2226921"><ele>345.06</ele><time>2026-02-13T19:14:41.000Z</time></trkpt>
        <trkpt lat="29.3403687" lon="105.2225969"><ele>343.7</ele><time>2026-02-13T19:14:49.000Z</time></trkpt>
        <trkpt lat="29.3403755" lon="105.2225577"><ele>342.96</ele><time>2026-02-13T19:14:53.000Z</time></trkpt>
        <trkpt lat="29.3404048" lon="105.2226246"><ele>342.86</ele><time>2026-02-13T19:15:09.000Z</time></trkpt>
        <trkpt lat="29.3404321" lon="105.2227488"><ele>340.8</ele><time>2026-02-13T19:15:17.000Z</time></trkpt>
        <trkpt lat="29.3404907" lon="105.2228627"><ele>340.11</ele><time>2026-02-13T19:15:25.000Z</time></trkpt>
        <trkpt lat="29.3405468" lon="105.2228235"><ele>339.66</ele><time>2026-02-13T19:15:37.000Z</time></trkpt>
        <trkpt lat="29.3405276" lon="105.2227158"><ele>338.49</ele><time>2026-02-13T19:15:47.000Z</time></trkpt>
        <trkpt lat="29.3405235" lon="105.2225965"><ele>337.86</ele><time>2026-02-13T19:15:55.000Z</time></trkpt>
        <trkpt lat="29.3405" lon="105.2224831"><ele>337.39</ele><time>2026-02-13T19:16:37.000Z</time></trkpt>
        <trkpt lat="29.340466" lon="105.222378"><ele>337.84</ele><time>2026-02-13T19:16:47.000Z</time></trkpt>
        <trkpt lat="29.3404459" lon="105.2223399"><ele>337.58</ele><time>2026-02-13T19:16:51.000Z</time></trkpt>
        <trkpt lat="29.3405024" lon="105.2224071"><ele>337.48</ele><time>2026-02-13T19:17:03.000Z</time></trkpt>
        <trkpt lat="29.3405456" lon="105.2225163"><ele>337.31</ele><time>2026-02-13T19:17:09.000Z</time></trkpt>
        <trkpt lat="29.3406156" lon="105.2225062"><ele>337.74</ele><time>2026-02-13T19:17:17.000Z</time></trkpt>
        <trkpt lat="29.3407054" lon="105.2225119"><ele>335.93</ele><time>2026-02-13T19:17:23.000Z</time></trkpt>
        <trkpt lat="29.3408172" lon="105.2225298"><ele>335.09</ele><time>2026-02-13T19:17:31.000Z</time></trkpt>
        <trkpt lat="29.3409326" lon="105.2225269"><ele>333.9</ele><time>2026-02-13T19:17:37.000Z</time></trkpt>
        <trkpt lat="29.3410227" lon="105.2224518"><ele>332.01</ele><time>2026-02-13T19:17:43.000Z</time></trkpt>
        <trkpt lat="29.3410759" lon="105.2223358"><ele>330.46</ele><time>2026-02-13T19:17:49.000Z</time></trkpt>
        <trkpt lat="29.3410571" lon="105.2222187"><ele>329.21</ele><time>2026-02-13T19:17:55.000Z</time></trkpt>
        <trkpt lat="29.340998" lon="105.222119"><ele>329.12</ele><time>2026-02-13T19:18:01.000Z</time></trkpt>
        <trkpt lat="29.340932" lon="105.2220233"><ele>330.94</ele><time>2026-02-13T19:18:05.000Z</time></trkpt>
        <trkpt lat="29.340884" lon="105.2219112"><ele>333.42</ele><time>2026-02-13T19:18:13.000Z</time></trkpt>
        <trkpt lat="29.3408078" lon="105.2218075"><ele>336.98</ele><time>2026-02-13T19:18:21.000Z</time></trkpt>
        <trkpt lat="29.3407381" lon="105.2217227"><ele>340.43</ele><time>2026-02-13T19:18:29.000Z</time></trkpt>
        <trkpt lat="29.3406474" lon="105.2216399"><ele>342.52</ele><time>2026-02-13T19:18:39.000Z</time></trkpt>
        <trkpt lat="29.3405703" lon="105.2215695"><ele>343.22</ele><time>2026-02-13T19:18:45.000Z</time></trkpt>
        <trkpt lat="29.3405456" lon="105.2215436"><ele>344.59</ele><time>2026-02-13T19:18:47.000Z</time></trkpt>
        <trkpt lat="29.3404963" lon="105.2214647"><ele>345.44</ele><time>2026-02-13T19:18:59.000Z</time></trkpt>
        <trkpt lat="29.340497" lon="105.2213606"><ele>346.18</ele><time>2026-02-13T19:19:07.000Z</time></trkpt>
        <trkpt lat="29.3405612" lon="105.2212852"><ele>347.04</ele><time>2026-02-13T19:19:17.000Z</time></trkpt>
        <trkpt lat="29.3405374" lon="105.2212083"><ele>347.38</ele><time>2026-02-13T19:19:43.000Z</time></trkpt>
        <trkpt lat="29.3404464" lon="105.2211613"><ele>345.36</ele><time>2026-02-13T19:19:47.000Z</time></trkpt>
        <trkpt lat="29.3403545" lon="105.2211033"><ele>343.67</ele><time>2026-02-13T19:19:51.000Z</time></trkpt>
        <trkpt lat="29.3402449" lon="105.2210345"><ele>342.47</ele><time>2026-02-13T19:19:57.000Z</time></trkpt>
        <trkpt lat="29.3401249" lon="105.2210126"><ele>340.46</ele><time>2026-02-13T19:20:03.000Z</time></trkpt>
        <trkpt lat="29.3400073" lon="105.2210107"><ele>338.74</ele><time>2026-02-13T19:20:11.000Z</time></trkpt>
        <trkpt lat="29.3399743" lon="105.220932"><ele>336.28</ele><time>2026-02-13T19:20:23.000Z</time></trkpt>
        <trkpt lat="29.3399885" lon="105.2208225"><ele>334.48</ele><time>2026-02-13T19:20:29.000Z</time></trkpt>
        <trkpt lat="29.3399722" lon="105.2206965"><ele>332.72</ele><time>2026-02-13T19:20:35.000Z</time></trkpt>
        <trkpt lat="29.3399002" lon="105.2206067"><ele>331.4</ele><time>2026-02-13T19:20:41.000Z</time></trkpt>
        <trkpt lat="29.339838" lon="105.2205567"><ele>330.82</ele><time>2026-02-13T19:20:47.000Z</time></trkpt>
        <trkpt lat="29.3398616" lon="105.2204654"><ele>331.31</ele><time>2026-02-13T19:21:07.000Z</time></trkpt>
        <trkpt lat="29.3399199" lon="105.2203773"><ele>331.66</ele><time>2026-02-13T19:21:15.000Z</time></trkpt>
        <trkpt lat="29.3399823" lon="105.2202786"><ele>332.55</ele><time>2026-02-13T19:21:25.000Z</time></trkpt>
        <trkpt lat="29.3400225" lon="105.220165"><ele>333.88</ele><time>2026-02-13T19:21:33.000Z</time></trkpt>
        <trkpt lat="29.3400645" lon="105.2200524"><ele>334.78</ele><time>2026-02-13T19:21:41.000Z</time></trkpt>
        <trkpt lat="29.3401208" lon="105.2199633"><ele>335.75</ele><time>2026-02-13T19:21:49.000Z</time></trkpt>
        <trkpt lat="29.3401917" lon="105.219874"><ele>336.09</ele><time>2026-02-13T19:21:57.000Z</time></trkpt>
        <trkpt lat="29.3402345" lon="105.2197607"><ele>337.12</ele><time>2026-02-13T19:22:07.000Z</time></trkpt>
        <trkpt lat="29.3402788" lon="105.21965"><ele>338.53</ele><time>2026-02-13T19:22:15.000Z</time></trkpt>
        <trkpt lat="29.3403193" lon="105.2195402"><ele>339.87</ele><time>2026-02-13T19:22:25.000Z</time></trkpt>
        <trkpt lat="29.3403507" lon="105.2194828"><ele>341.47</ele><time>2026-02-13T19:22:33.000Z</time></trkpt>
        <trkpt lat="29.3404313" lon="105.2194506"><ele>342.64</ele><time>2026-02-13T19:22:45.000Z</time></trkpt>
        <trkpt lat="29.340469" lon="105.2194359"><ele>344.06</ele><time>2026-02-13T19:22:49.000Z</time></trkpt>
        <trkpt lat="29.3404027" lon="105.2194498"><ele>344.82</ele><time>2026-02-13T19:23:01.000Z</time></trkpt>
        <trkpt lat="29.3403212" lon="105.2195117"><ele>344.58</ele><time>2026-02-13T19:23:07.000Z</time></trkpt>
        <trkpt lat="29.340228" lon="105.2195807"><ele>344.61</ele><time>2026-02-13T19:23:15.000Z</time></trkpt>
        <trkpt lat="29.3401899" lon="105.2196083"><ele>345.4</ele><time>2026-02-13T19:23:17.000Z</time></trkpt>
        <trkpt lat="29.3401199" lon="105.2196548"><ele>346</ele><time>2026-02-13T19:23:29.000Z</time></trkpt>
        <trkpt lat="29.3401493" lon="105.2196195"><ele>347.15</ele><time>2026-02-13T19:23:37.000Z</time></trkpt>
        <trkpt lat="29.3401508" lon="105.219514"><ele>348.09</ele><time>2026-02-13T19:23:51.000Z</time></trkpt>
        <trkpt lat="29.3401551" lon="105.2194606"><ele>349.7</ele><time>2026-02-13T19:23:55.000Z</time></trkpt>
        <trkpt lat="29.3400944" lon="105.2194938"><ele>351.09</ele><time>2026-02-13T19:24:07.000Z</time></trkpt>
        <trkpt lat="29.3400658" lon="105.2194295"><ele>352.7</ele><time>2026-02-13T19:24:25.000Z</time></trkpt>
        <trkpt lat="29.3401057" lon="105.219326"><ele>354.17</ele><time>2026-02-13T19:24:33.000Z</time></trkpt>
        <trkpt lat="29.3400919" lon="105.2192152"><ele>354.95</ele><time>2026-02-13T19:24:41.000Z</time></trkpt>
        <trkpt lat="29.3400082" lon="105.2191814"><ele>357.27</ele><time>2026-02-13T19:24:55.000Z</time></trkpt>
        <trkpt lat="29.3399116" lon="105.2191604"><ele>358.23</ele><time>2026-02-13T19:25:03.000Z</time></trkpt>
        <trkpt lat="29.3398152" lon="105.2191408"><ele>358.41</ele><time>2026-02-13T19:25:11.000Z</time></trkpt>
        <trkpt lat="29.3397533" lon="105.2192127"><ele>358.51</ele><time>2026-02-13T19:25:33.000Z</time></trkpt>
        <trkpt lat="29.3396776" lon="105.2191708"><ele>357</ele><time>2026-02-13T19:25:39.000Z</time></trkpt>
        <trkpt lat="29.3395871" lon="105.2191364"><ele>355.6</ele><time>2026-02-13T19:25:47.000Z</time></trkpt>
        <trkpt lat="29.3395038" lon="105.2191713"><ele>354.51</ele><time>2026-02-13T19:25:57.000Z</time></trkpt>
        <trkpt lat="29.3394065" lon="105.2191997"><ele>353.14</ele><time>2026-02-13T19:26:05.000Z</time></trkpt>
        <trkpt lat="29.3393821" lon="105.2191256"><ele>351.63</ele><time>2026-02-13T19:26:23.000Z</time></trkpt>
        <trkpt lat="29.3393881" lon="105.2190091"><ele>348.22</ele><time>2026-02-13T19:26:31.000Z</time></trkpt>
        <trkpt lat="29.3394086" lon="105.2188917"><ele>347.04</ele><time>2026-02-13T19:26:39.000Z</time></trkpt>
        <trkpt lat="29.3394263" lon="105.2187777"><ele>346.26</ele><time>2026-02-13T19:26:49.000Z</time></trkpt>
        <trkpt lat="29.3394708" lon="105.2186783"><ele>345.17</ele><time>2026-02-13T19:27:01.000Z</time></trkpt>
        <trkpt lat="29.3395375" lon="105.2185887"><ele>344.77</ele><time>2026-02-13T19:27:13.000Z</time></trkpt>
        <trkpt lat="29.3395273" lon="105.2184806"><ele>344.33</ele><time>2026-02-13T19:27:23.000Z</time></trkpt>
        <trkpt lat="29.3395035" lon="105.2183744"><ele>344.19</ele><time>2026-02-13T19:27:33.000Z</time></trkpt>
        <trkpt lat="29.3394612" lon="105.2182734"><ele>343.94</ele><time>2026-02-13T19:27:43.000Z</time></trkpt>
        <trkpt lat="29.3394744" lon="105.2181744"><ele>345.2</ele><time>2026-02-13T19:28:03.000Z</time></trkpt>
        <trkpt lat="29.3394628" lon="105.2182301"><ele>344.69</ele><time>2026-02-13T19:28:31.000Z</time></trkpt>
        <trkpt lat="29.3394044" lon="105.2182104"><ele>343.08</ele><time>2026-02-13T19:28:37.000Z</time></trkpt>
        <trkpt lat="29.3393536" lon="105.2181333"><ele>341.46</ele><time>2026-02-13T19:28:43.000Z</time></trkpt>
        <trkpt lat="29.3392861" lon="105.2180411"><ele>339.85</ele><time>2026-02-13T19:28:51.000Z</time></trkpt>
        <trkpt lat="29.3391967" lon="105.217965"><ele>338.49</ele><time>2026-02-13T19:28:59.000Z</time></trkpt>
        <trkpt lat="29.3391066" lon="105.2179737"><ele>337.64</ele><time>2026-02-13T19:29:07.000Z</time></trkpt>
        <trkpt lat="29.3390087" lon="105.2179589"><ele>337.98</ele><time>2026-02-13T19:29:15.000Z</time></trkpt>
        <trkpt lat="29.3389743" lon="105.2178703"><ele>340.22</ele><time>2026-02-13T19:29:27.000Z</time></trkpt>
        <trkpt lat="29.3388952" lon="105.217806"><ele>342.52</ele><time>2026-02-13T19:29:39.000Z</time></trkpt>
        <trkpt lat="29.3388641" lon="105.2177845"><ele>343.63</ele><time>2026-02-13T19:29:43.000Z</time></trkpt>
        <trkpt lat="29.3387913" lon="105.2177562"><ele>344.2</ele><time>2026-02-13T19:30:11.000Z</time></trkpt>
        <trkpt lat="29.338731" lon="105.2177424"><ele>346.32</ele><time>2026-02-13T19:30:19.000Z</time></trkpt>
        <trkpt lat="29.3387167" lon="105.2176466"><ele>348.11</ele><time>2026-02-13T19:30:53.000Z</time></trkpt>
        <trkpt lat="29.3387357" lon="105.2175297"><ele>351.12</ele><time>2026-02-13T19:31:01.000Z</time></trkpt>
        <trkpt lat="29.3388027" lon="105.2174264"><ele>353.91</ele><time>2026-02-13T19:31:09.000Z</time></trkpt>
        <trkpt lat="29.3388061" lon="105.2172997"><ele>356.04</ele><time>2026-02-13T19:31:19.000Z</time></trkpt>
        <trkpt lat="29.3388044" lon="105.217216"><ele>358.87</ele><time>2026-02-13T19:31:29.000Z</time></trkpt>
        <trkpt lat="29.3387272" lon="105.2172394"><ele>359.44</ele><time>2026-02-13T19:31:37.000Z</time></trkpt>
        <trkpt lat="29.3386425" lon="105.2173049"><ele>361.48</ele><time>2026-02-13T19:31:47.000Z</time></trkpt>
        <trkpt lat="29.3385574" lon="105.2173825"><ele>363.3</ele><time>2026-02-13T19:31:59.000Z</time></trkpt>
        <trkpt lat="29.3384698" lon="105.2174591"><ele>364.94</ele><time>2026-02-13T19:32:09.000Z</time></trkpt>
        <trkpt lat="29.3383813" lon="105.2175117"><ele>365.29</ele><time>2026-02-13T19:32:19.000Z</time></trkpt>
        <trkpt lat="29.3382859" lon="105.2174939"><ele>365.17</ele><time>2026-02-13T19:32:27.000Z</time></trkpt>
        <trkpt lat="29.3381816" lon="105.2174695"><ele>365.33</ele><time>2026-02-13T19:32:37.000Z</time></trkpt>
        <trkpt lat="29.3381087" lon="105.2174358"><ele>366.19</ele><time>2026-02-13T19:32:49.000Z</time></trkpt>
        <trkpt lat="29.3381109" lon="105.2173372"><ele>366.95</ele><time>2026-02-13T19:33:03.000Z</time></trkpt>
        <trkpt lat="29.3381302" lon="105.2172634"><ele>367.44</ele><time>2026-02-13T19:33:09.000Z</time></trkpt>
        <trkpt lat="29.338131" lon="105.217166"><ele>368.05</ele><time>2026-02-13T19:33:33.000Z</time></trkpt>
        <trkpt lat="29.3382002" lon="105.2171103"><ele>368.71</ele><time>2026-02-13T19:33:51.000Z</time></trkpt>
        <trkpt lat="29.338222" lon="105.2170199"><ele>370.67</ele><time>2026-02-13T19:34:15.000Z</time></trkpt>
        <trkpt lat="29.3382331" lon="105.2169142"><ele>371.57</ele><time>2026-02-13T19:34:31.000Z</time></trkpt>
        <trkpt lat="29.3381895" lon="105.2168162"><ele>370.94</ele><time>2026-02-13T19:34:45.000Z</time></trkpt>
        <trkpt lat="29.3381755" lon="105.2167132"><ele>369.14</ele><time>2026-02-13T19:34:55.000Z</time></trkpt>
        <trkpt lat="29.3381726" lon="105.2165961"><ele>367.27</ele><time>2026-02-13T19:35:07.000Z</time></trkpt>
        <trkpt lat="29.3381114" lon="105.2165227"><ele>365.34</ele><time>2026-02-13T19:35:19.000Z</time></trkpt>
        <trkpt lat="29.3380203" lon="105.2165114"><ele>362.54</ele><time>2026-02-13T19:35:37.000Z</time></trkpt>
        <trkpt lat="29.3380063" lon="105.2164271"><ele>359.37</ele><time>2026-02-13T19:35:49.000Z</time></trkpt>
        <trkpt lat="29.3380093" lon="105.2163946"><ele>357.3</ele><time>2026-02-13T19:35:53.000Z</time></trkpt>
        <trkpt lat="29.3380012" lon="105.2162805"><ele>355.99</ele><time>2026-02-13T19:36:03.000Z</time></trkpt>
        <trkpt lat="29.3379386" lon="105.2161807"><ele>354.71</ele><time>2026-02-13T19:36:11.000Z</time></trkpt>
        <trkpt lat="29.3378401" lon="105.2161221"><ele>353.71</ele><time>2026-02-13T19:36:19.000Z</time></trkpt>
        <trkpt lat="29.3377291" lon="105.2161352"><ele>352.56</ele><time>2026-02-13T19:36:27.000Z</time></trkpt>
        <trkpt lat="29.3376315" lon="105.2162115"><ele>351.95</ele><time>2026-02-13T19:36:35.000Z</time></trkpt>
        <trkpt lat="29.3375179" lon="105.2162328"><ele>351.51</ele><time>2026-02-13T19:36:41.000Z</time></trkpt>
        <trkpt lat="29.3374189" lon="105.216216"><ele>352.85</ele><time>2026-02-13T19:36:49.000Z</time></trkpt>
        <trkpt lat="29.3373633" lon="105.2162175"><ele>355.17</ele><time>2026-02-13T19:36:57.000Z</time></trkpt>
        <trkpt lat="29.337316" lon="105.2162953"><ele>357.31</ele><time>2026-02-13T19:38:07.000Z</time></trkpt>
        <trkpt lat="29.3372282" lon="105.2162654"><ele>358.36</ele><time>2026-02-13T19:38:29.000Z</time></trkpt>
        <trkpt lat="29.3371271" lon="105.2162765"><ele>357.86</ele><time>2026-02-13T19:38:39.000Z</time></trkpt>
        <trkpt lat="29.3370312" lon="105.2162813"><ele>356.13</ele><time>2026-02-13T19:38:51.000Z</time></trkpt>
        <trkpt lat="29.3369577" lon="105.216264"><ele>354.25</ele><time>2026-02-13T19:39:01.000Z</time></trkpt>
        <trkpt lat="29.3368933" lon="105.216198"><ele>352.3</ele><time>2026-02-13T19:39:29.000Z</time></trkpt>
        <trkpt lat="29.3368138" lon="105.2161421"><ele>350.43</ele><time>2026-02-13T19:39:55.000Z</time></trkpt>
        <trkpt lat="29.3368681" lon="105.2161677"><ele>348.39</ele><time>2026-02-13T19:40:41.000Z</time></trkpt>
        <trkpt lat="29.3369547" lon="105.216225"><ele>346.88</ele><time>2026-02-13T19:40:49.000Z</time></trkpt>
        <trkpt lat="29.3370588" lon="105.2162705"><ele>346.92</ele><time>2026-02-13T19:40:59.000Z</time></trkpt>
        <trkpt lat="29.3371511" lon="105.2162659"><ele>347.7</ele><time>2026-02-13T19:41:11.000Z</time></trkpt>
        <trkpt lat="29.3372566" lon="105.2162563"><ele>348.54</ele><time>2026-02-13T19:41:19.000Z</time></trkpt>
        <trkpt lat="29.33732" lon="105.2162696"><ele>349.54</ele><time>2026-02-13T19:41:27.000Z</time></trkpt>
        <trkpt lat="29.3373962" lon="105.2162322"><ele>351.27</ele><time>2026-02-13T19:41:37.000Z</time></trkpt>
        <trkpt lat="29.3373675" lon="105.2161605"><ele>354.75</ele><time>2026-02-13T19:41:57.000Z</time></trkpt>
        <trkpt lat="29.3372928" lon="105.2161015"><ele>359.23</ele><time>2026-02-13T19:42:09.000Z</time></trkpt>
        <trkpt lat="29.3372223" lon="105.2160104"><ele>361.61</ele><time>2026-02-13T19:42:23.000Z</time></trkpt>
        <trkpt lat="29.337169" lon="105.2159089"><ele>363.84</ele><time>2026-02-13T19:42:35.000Z</time></trkpt>
        <trkpt lat="29.3371627" lon="105.2157965"><ele>366.7</ele><time>2026-02-13T19:42:53.000Z</time></trkpt>
        <trkpt lat="29.3371466" lon="105.2156798"><ele>368.8</ele><time>2026-02-13T19:43:11.000Z</time></trkpt>
        <trkpt lat="29.3371388" lon="105.2155671"><ele>371.1</ele><time>2026-02-13T19:43:19.000Z</time></trkpt>
        <trkpt lat="29.3371224" lon="105.215463"><ele>372.51</ele><time>2026-02-13T19:43:27.000Z</time></trkpt>
        <trkpt lat="29.3371068" lon="105.2154186"><ele>373.85</ele><time>2026-02-13T19:43:33.000Z</time></trkpt>
        <trkpt lat="29.3371124" lon="105.2153323"><ele>374.66</ele><time>2026-02-13T19:43:47.000Z</time></trkpt>
        <trkpt lat="29.3371156" lon="105.215232"><ele>374.67</ele><time>2026-02-13T19:43:59.000Z</time></trkpt>
        <trkpt lat="29.3371141" lon="105.2151894"><ele>374.06</ele><time>2026-02-13T19:44:03.000Z</time></trkpt>
        <trkpt lat="29.337138" lon="105.2150999"><ele>373.45</ele><time>2026-02-13T19:44:29.000Z</time></trkpt>
        <trkpt lat="29.3371626" lon="105.2150556"><ele>372.08</ele><time>2026-02-13T19:44:37.000Z</time></trkpt>
        <trkpt lat="29.3370949" lon="105.2150462"><ele>372</ele><time>2026-02-13T19:44:57.000Z</time></trkpt>
        <trkpt lat="29.3370346" lon="105.2149797"><ele>372.37</ele><time>2026-02-13T19:45:17.000Z</time></trkpt>
        <trkpt lat="29.3370171" lon="105.2148743"><ele>374.26</ele><time>2026-02-13T19:45:33.000Z</time></trkpt>
        <trkpt lat="29.3369478" lon="105.2147956"><ele>376.08</ele><time>2026-02-13T19:45:47.000Z</time></trkpt>
        <trkpt lat="29.3368835" lon="105.214694"><ele>378.55</ele><time>2026-02-13T19:46:01.000Z</time></trkpt>
        <trkpt lat="29.3368406" lon="105.2145855"><ele>381.17</ele><time>2026-02-13T19:46:13.000Z</time></trkpt>
        <trkpt lat="29.3368248" lon="105.214475"><ele>383.09</ele><time>2026-02-13T19:46:25.000Z</time></trkpt>
        <trkpt lat="29.3367999" lon="105.2143627"><ele>385.19</ele><time>2026-02-13T19:46:49.000Z</time></trkpt>
        <trkpt lat="29.3367989" lon="105.2142444"><ele>384.99</ele><time>2026-02-13T19:46:59.000Z</time></trkpt>
        <trkpt lat="29.33679" lon="105.2141238"><ele>383.36</ele><time>2026-02-13T19:47:11.000Z</time></trkpt>
        <trkpt lat="29.3367714" lon="105.2140063"><ele>381.11</ele><time>2026-02-13T19:47:21.000Z</time></trkpt>
        <trkpt lat="29.3367574" lon="105.2138939"><ele>379.6</ele><time>2026-02-13T19:47:33.000Z</time></trkpt>
        <trkpt lat="29.3367615" lon="105.2137884"><ele>378.52</ele><time>2026-02-13T19:47:43.000Z</time></trkpt>
        <trkpt lat="29.3367304" lon="105.2136936"><ele>377.42</ele><time>2026-02-13T19:47:51.000Z</time></trkpt>
        <trkpt lat="29.3367" lon="105.2135917"><ele>376.5</ele><time>2026-02-13T19:48:01.000Z</time></trkpt>
        <trkpt lat="29.3366565" lon="105.2134894"><ele>375.89</ele><time>2026-02-13T19:48:11.000Z</time></trkpt>
        <trkpt lat="29.3366484" lon="105.2134412"><ele>375.91</ele><time>2026-02-13T19:48:15.000Z</time></trkpt>
        <trkpt lat="29.3366174" lon="105.213359"><ele>375.96</ele><time>2026-02-13T19:48:37.000Z</time></trkpt>
        <trkpt lat="29.3365619" lon="105.2132722"><ele>376.52</ele><time>2026-02-13T19:48:53.000Z</time></trkpt>
        <trkpt lat="29.3365896" lon="105.2131692"><ele>377.88</ele><time>2026-02-13T19:49:13.000Z</time></trkpt>
        <trkpt lat="29.3365804" lon="105.2130557"><ele>376.94</ele><time>2026-02-13T19:49:25.000Z</time></trkpt>
        <trkpt lat="29.3365797" lon="105.2129399"><ele>376.05</ele><time>2026-02-13T19:49:35.000Z</time></trkpt>
        <trkpt lat="29.3366076" lon="105.2128275"><ele>375.32</ele><time>2026-02-13T19:49:47.000Z</time></trkpt>
        <trkpt lat="29.3366179" lon="105.2127944"><ele>374.63</ele><time>2026-02-13T19:49:49.000Z</time></trkpt>
        <trkpt lat="29.3366545" lon="105.2127237"><ele>374.19</ele><time>2026-02-13T19:49:59.000Z</time></trkpt>
        <trkpt lat="29.3366962" lon="105.2126306"><ele>374.5</ele><time>2026-02-13T19:50:07.000Z</time></trkpt>
        <trkpt lat="29.3366941" lon="105.2125205"><ele>374.45</ele><time>2026-02-13T19:50:21.000Z</time></trkpt>
        <trkpt lat="29.3367009" lon="105.2124155"><ele>374.5</ele><time>2026-02-13T19:50:33.000Z</time></trkpt>
        <trkpt lat="29.3366844" lon="105.2123027"><ele>373.9</ele><time>2026-02-13T19:50:53.000Z</time></trkpt>
        <trkpt lat="29.3366788" lon="105.2122645"><ele>373.7</ele><time>2026-02-13T19:50:57.000Z</time></trkpt>
        <trkpt lat="29.3366759" lon="105.2121848"><ele>373.58</ele><time>2026-02-13T19:51:21.000Z</time></trkpt>
        <trkpt lat="29.3366722" lon="105.2121387"><ele>373.09</ele><time>2026-02-13T19:51:25.000Z</time></trkpt>
        <trkpt lat="29.3365982" lon="105.212067"><ele>373.15</ele><time>2026-02-13T19:52:29.000Z</time></trkpt>
        <trkpt lat="29.3365859" lon="105.2119937"><ele>370.67</ele><time>2026-02-13T19:52:37.000Z</time></trkpt>
        <trkpt lat="29.3365707" lon="105.2118807"><ele>368.39</ele><time>2026-02-13T19:52:53.000Z</time></trkpt>
        <trkpt lat="29.3365647" lon="105.2118395"><ele>365.52</ele><time>2026-02-13T19:52:57.000Z</time></trkpt>
        <trkpt lat="29.3365659" lon="105.2117562"><ele>364.14</ele><time>2026-02-13T19:53:21.000Z</time></trkpt>
        <trkpt lat="29.3365446" lon="105.2116471"><ele>362.09</ele><time>2026-02-13T19:53:29.000Z</time></trkpt>
        <trkpt lat="29.3365147" lon="105.2115296"><ele>360.26</ele><time>2026-02-13T19:53:35.000Z</time></trkpt>
        <trkpt lat="29.3364782" lon="105.2114149"><ele>359.09</ele><time>2026-02-13T19:53:43.000Z</time></trkpt>
        <trkpt lat="29.3364238" lon="105.2113259"><ele>358.04</ele><time>2026-02-13T19:53:53.000Z</time></trkpt>
        <trkpt lat="29.336386" lon="105.2112161"><ele>356.38</ele><time>2026-02-13T19:54:01.000Z</time></trkpt>
        <trkpt lat="29.3363153" lon="105.2111408"><ele>353.75</ele><time>2026-02-13T19:54:15.000Z</time></trkpt>
        <trkpt lat="29.3362377" lon="105.2110473"><ele>350.08</ele><time>2026-02-13T19:54:23.000Z</time></trkpt>
        <trkpt lat="29.3361718" lon="105.2109526"><ele>346.11</ele><time>2026-02-13T19:54:31.000Z</time></trkpt>
        <trkpt lat="29.3361158" lon="105.2108403"><ele>343.16</ele><time>2026-02-13T19:54:39.000Z</time></trkpt>
        <trkpt lat="29.3360679" lon="105.2107213"><ele>339.55</ele><time>2026-02-13T19:54:45.000Z</time></trkpt>
        <trkpt lat="29.3360169" lon="105.2106145"><ele>335.92</ele><time>2026-02-13T19:54:51.000Z</time></trkpt>
        <trkpt lat="29.3359397" lon="105.2105484"><ele>332.73</ele><time>2026-02-13T19:54:59.000Z</time></trkpt>
        <trkpt lat="29.3358412" lon="105.2105309"><ele>330.83</ele><time>2026-02-13T19:55:07.000Z</time></trkpt>
        <trkpt lat="29.335748" lon="105.2105584"><ele>329.19</ele><time>2026-02-13T19:55:15.000Z</time></trkpt>
        <trkpt lat="29.3356405" lon="105.2105853"><ele>327.26</ele><time>2026-02-13T19:55:23.000Z</time></trkpt>
        <trkpt lat="29.3355639" lon="105.2106099"><ele>325.74</ele><time>2026-02-13T19:55:33.000Z</time></trkpt>
        <trkpt lat="29.3354946" lon="105.2106888"><ele>325.09</ele><time>2026-02-13T19:56:23.000Z</time></trkpt>
        <trkpt lat="29.3354612" lon="105.2108303"><ele>324.11</ele><time>2026-02-13T19:56:31.000Z</time></trkpt>
        <trkpt lat="29.3353904" lon="105.2109275"><ele>323.55</ele><time>2026-02-13T19:56:37.000Z</time></trkpt>
        <trkpt lat="29.3353419" lon="105.2108727"><ele>324.88</ele><time>2026-02-13T19:56:43.000Z</time></trkpt>
        <trkpt lat="29.3352635" lon="105.2108082"><ele>324.93</ele><time>2026-02-13T19:56:53.000Z</time></trkpt>
        <trkpt lat="29.3352113" lon="105.2107084"><ele>324.79</ele><time>2026-02-13T19:57:01.000Z</time></trkpt>
        <trkpt lat="29.3351185" lon="105.2106924"><ele>325.11</ele><time>2026-02-13T19:57:15.000Z</time></trkpt>
        <trkpt lat="29.3350642" lon="105.2107132"><ele>324.23</ele><time>2026-02-13T19:57:21.000Z</time></trkpt>
        <trkpt lat="29.3349777" lon="105.2107443"><ele>323.51</ele><time>2026-02-13T19:57:33.000Z</time></trkpt>
        <trkpt lat="29.3349488" lon="105.2107578"><ele>321.7</ele><time>2026-02-13T19:57:35.000Z</time></trkpt>
        <trkpt lat="29.3348812" lon="105.2107852"><ele>320.63</ele><time>2026-02-13T19:57:43.000Z</time></trkpt>
        <trkpt lat="29.3347937" lon="105.2108442"><ele>319.56</ele><time>2026-02-13T19:57:53.000Z</time></trkpt>
        <trkpt lat="29.3347023" lon="105.2108783"><ele>318.38</ele><time>2026-02-13T19:58:01.000Z</time></trkpt>
        <trkpt lat="29.3346814" lon="105.2108021"><ele>317.72</ele><time>2026-02-13T19:58:15.000Z</time></trkpt>
        <trkpt lat="29.3346792" lon="105.2106811"><ele>317.1</ele><time>2026-02-13T19:58:27.000Z</time></trkpt>
        <trkpt lat="29.3347067" lon="105.2105646"><ele>316.07</ele><time>2026-02-13T19:58:37.000Z</time></trkpt>
        <trkpt lat="29.3347093" lon="105.2105078"><ele>315.27</ele><time>2026-02-13T19:58:41.000Z</time></trkpt>
        <trkpt lat="29.3346895" lon="105.2106324"><ele>314.98</ele><time>2026-02-13T20:00:25.000Z</time></trkpt>
        <trkpt lat="29.3346639" lon="105.2107381"><ele>312.7</ele><time>2026-02-13T20:00:35.000Z</time></trkpt>
        <trkpt lat="29.3345974" lon="105.2106903"><ele>313.98</ele><time>2026-02-13T20:00:41.000Z</time></trkpt>
        <trkpt lat="29.3345103" lon="105.2106279"><ele>313.83</ele><time>2026-02-13T20:00:49.000Z</time></trkpt>
        <trkpt lat="29.3344242" lon="105.2105516"><ele>313.87</ele><time>2026-02-13T20:00:57.000Z</time></trkpt>
        <trkpt lat="29.3343576" lon="105.2104643"><ele>313.99</ele><time>2026-02-13T20:01:03.000Z</time></trkpt>
        <trkpt lat="29.3343029" lon="105.2103636"><ele>314.65</ele><time>2026-02-13T20:01:11.000Z</time></trkpt>
        <trkpt lat="29.334252" lon="105.210268"><ele>315.32</ele><time>2026-02-13T20:01:19.000Z</time></trkpt>
        <trkpt lat="29.3342002" lon="105.2101748"><ele>315.58</ele><time>2026-02-13T20:01:27.000Z</time></trkpt>
        <trkpt lat="29.3341424" lon="105.2100665"><ele>315.9</ele><time>2026-02-13T20:01:37.000Z</time></trkpt>
        <trkpt lat="29.3340684" lon="105.2099762"><ele>315.49</ele><time>2026-02-13T20:01:45.000Z</time></trkpt>
        <trkpt lat="29.3339915" lon="105.2099118"><ele>315.29</ele><time>2026-02-13T20:01:53.000Z</time></trkpt>
        <trkpt lat="29.3339165" lon="105.2098512"><ele>314.88</ele><time>2026-02-13T20:01:59.000Z</time></trkpt>
        <trkpt lat="29.3338246" lon="105.2098142"><ele>314.61</ele><time>2026-02-13T20:02:07.000Z</time></trkpt>
        <trkpt lat="29.333732" lon="105.2098277"><ele>314.62</ele><time>2026-02-13T20:02:15.000Z</time></trkpt>
        <trkpt lat="29.3336302" lon="105.2098553"><ele>314.52</ele><time>2026-02-13T20:02:23.000Z</time></trkpt>
        <trkpt lat="29.3335239" lon="105.2098428"><ele>314.64</ele><time>2026-02-13T20:02:31.000Z</time></trkpt>
        <trkpt lat="29.3334323" lon="105.2097827"><ele>314.74</ele><time>2026-02-13T20:02:39.000Z</time></trkpt>
        <trkpt lat="29.3334099" lon="105.2096833"><ele>314.89</ele><time>2026-02-13T20:02:49.000Z</time></trkpt>
        <trkpt lat="29.3334178" lon="105.2096521"><ele>314.89</ele><time>2026-02-13T20:02:51.000Z</time></trkpt>
        <trkpt lat="29.3333909" lon="105.2095801"><ele>314.83</ele><time>2026-02-13T20:03:03.000Z</time></trkpt>
        <trkpt lat="29.3334027" lon="105.2094819"><ele>314.45</ele><time>2026-02-13T20:03:13.000Z</time></trkpt>
        <trkpt lat="29.3334672" lon="105.2093942"><ele>314.02</ele><time>2026-02-13T20:03:25.000Z</time></trkpt>
        <trkpt lat="29.3335638" lon="105.2093681"><ele>313.85</ele><time>2026-02-13T20:03:33.000Z</time></trkpt>
        <trkpt lat="29.3335271" lon="105.2093989"><ele>314.16</ele><time>2026-02-13T20:03:53.000Z</time></trkpt>
        <trkpt lat="29.3334394" lon="105.2094641"><ele>313.95</ele><time>2026-02-13T20:04:05.000Z</time></trkpt>
        <trkpt lat="29.333456" lon="105.209433"><ele>313.7</ele><time>2026-02-13T20:04:53.000Z</time></trkpt>
        <trkpt lat="29.3335496" lon="105.2094032"><ele>312.94</ele><time>2026-02-13T20:05:03.000Z</time></trkpt>
        <trkpt lat="29.3336584" lon="105.2094007"><ele>313.23</ele><time>2026-02-13T20:05:11.000Z</time></trkpt>
        <trkpt lat="29.3337679" lon="105.2094158"><ele>313.33</ele><time>2026-02-13T20:05:19.000Z</time></trkpt>
        <trkpt lat="29.3338714" lon="105.2094432"><ele>313.13</ele><time>2026-02-13T20:05:27.000Z</time></trkpt>
        <trkpt lat="29.3339687" lon="105.2094816"><ele>313.06</ele><time>2026-02-13T20:05:35.000Z</time></trkpt>
        <trkpt lat="29.3340647" lon="105.2095229"><ele>313.11</ele><time>2026-02-13T20:05:43.000Z</time></trkpt>
        <trkpt lat="29.3341603" lon="105.209548"><ele>313.13</ele><time>2026-02-13T20:05:51.000Z</time></trkpt>
        <trkpt lat="29.334252" lon="105.2095379"><ele>313.44</ele><time>2026-02-13T20:05:59.000Z</time></trkpt>
        <trkpt lat="29.334307" lon="105.2094985"><ele>313.74</ele><time>2026-02-13T20:06:07.000Z</time></trkpt>
        <trkpt lat="29.3343834" lon="105.2094509"><ele>313.63</ele><time>2026-02-13T20:08:37.000Z</time></trkpt>
        <trkpt lat="29.3343846" lon="105.2093274"><ele>316.85</ele><time>2026-02-13T20:08:49.000Z</time></trkpt>
        <trkpt lat="29.3343684" lon="105.209217"><ele>317.93</ele><time>2026-02-13T20:08:57.000Z</time></trkpt>
        <trkpt lat="29.3343952" lon="105.2091084"><ele>318.52</ele><time>2026-02-13T20:09:05.000Z</time></trkpt>
        <trkpt lat="29.3344103" lon="105.2089887"><ele>319.06</ele><time>2026-02-13T20:09:13.000Z</time></trkpt>
        <trkpt lat="29.334411" lon="105.2088709"><ele>319.33</ele><time>2026-02-13T20:09:21.000Z</time></trkpt>
        <trkpt lat="29.3344179" lon="105.2087509"><ele>319.3</ele><time>2026-02-13T20:09:29.000Z</time></trkpt>
        <trkpt lat="29.3344283" lon="105.2086343"><ele>319.04</ele><time>2026-02-13T20:09:37.000Z</time></trkpt>
        <trkpt lat="29.3344436" lon="105.2085184"><ele>318.78</ele><time>2026-02-13T20:09:45.000Z</time></trkpt>
        <trkpt lat="29.3344588" lon="105.2083987"><ele>318.47</ele><time>2026-02-13T20:09:53.000Z</time></trkpt>
        <trkpt lat="29.3344511" lon="105.2082882"><ele>318.67</ele><time>2026-02-13T20:10:01.000Z</time></trkpt>
        <trkpt lat="29.3344484" lon="105.2081736"><ele>318.56</ele><time>2026-02-13T20:10:09.000Z</time></trkpt>
        <trkpt lat="29.3344297" lon="105.2080652"><ele>318.36</ele><time>2026-02-13T20:10:17.000Z</time></trkpt>
        <trkpt lat="29.3343947" lon="105.2079566"><ele>318.91</ele><time>2026-02-13T20:10:25.000Z</time></trkpt>
        <trkpt lat="29.3343536" lon="105.2078528"><ele>319.72</ele><time>2026-02-13T20:10:33.000Z</time></trkpt>
        <trkpt lat="29.334318" lon="105.2077457"><ele>320.46</ele><time>2026-02-13T20:10:41.000Z</time></trkpt>
        <trkpt lat="29.3342858" lon="105.2076356"><ele>320.68</ele><time>2026-02-13T20:10:49.000Z</time></trkpt>
        <trkpt lat="29.3342539" lon="105.2075255"><ele>321</ele><time>2026-02-13T20:10:57.000Z</time></trkpt>
        <trkpt lat="29.3342269" lon="105.2074149"><ele>321.22</ele><time>2026-02-13T20:11:05.000Z</time></trkpt>
        <trkpt lat="29.3342033" lon="105.2072982"><ele>321.37</ele><time>2026-02-13T20:11:13.000Z</time></trkpt>
        <trkpt lat="29.3341803" lon="105.2071822"><ele>321.58</ele><time>2026-02-13T20:11:21.000Z</time></trkpt>
        <trkpt lat="29.3341366" lon="105.207128"><ele>321.63</ele><time>2026-02-13T20:11:27.000Z</time></trkpt>
        <trkpt lat="29.3341628" lon="105.2070516"><ele>322.5</ele><time>2026-02-13T20:11:41.000Z</time></trkpt>
        <trkpt lat="29.3342224" lon="105.206954"><ele>323.18</ele><time>2026-02-13T20:11:49.000Z</time></trkpt>
        <trkpt lat="29.3342784" lon="105.206848"><ele>323.87</ele><time>2026-02-13T20:11:57.000Z</time></trkpt>
        <trkpt lat="29.3343334" lon="105.2067398"><ele>324.13</ele><time>2026-02-13T20:12:05.000Z</time></trkpt>
        <trkpt lat="29.3343685" lon="105.2066313"><ele>324.29</ele><time>2026-02-13T20:12:13.000Z</time></trkpt>
        <trkpt lat="29.3343996" lon="105.2065174"><ele>324.59</ele><time>2026-02-13T20:12:21.000Z</time></trkpt>
        <trkpt lat="29.3344495" lon="105.2064062"><ele>324.8</ele><time>2026-02-13T20:12:29.000Z</time></trkpt>
        <trkpt lat="29.3345188" lon="105.2063124"><ele>324.64</ele><time>2026-02-13T20:12:37.000Z</time></trkpt>
        <trkpt lat="29.3346043" lon="105.2062309"><ele>324.28</ele><time>2026-02-13T20:12:45.000Z</time></trkpt>
        <trkpt lat="29.3346917" lon="105.2061474"><ele>323.9</ele><time>2026-02-13T20:12:53.000Z</time></trkpt>
        <trkpt lat="29.3347794" lon="105.2060574"><ele>323.85</ele><time>2026-02-13T20:13:01.000Z</time></trkpt>
        <trkpt lat="29.3348459" lon="105.205957"><ele>323.69</ele><time>2026-02-13T20:13:09.000Z</time></trkpt>
        <trkpt lat="29.334879" lon="105.2058488"><ele>323.6</ele><time>2026-02-13T20:13:17.000Z</time></trkpt>
        <trkpt lat="29.3349006" lon="105.2057391"><ele>323.5</ele><time>2026-02-13T20:13:25.000Z</time></trkpt>
        <trkpt lat="29.3348842" lon="105.2056465"><ele>324.02</ele><time>2026-02-13T20:13:33.000Z</time></trkpt>
        <trkpt lat="29.3348443" lon="105.2055543"><ele>324.24</ele><time>2026-02-13T20:13:51.000Z</time></trkpt>
        <trkpt lat="29.3347956" lon="105.2054638"><ele>324.74</ele><time>2026-02-13T20:14:01.000Z</time></trkpt>
        <trkpt lat="29.3347339" lon="105.2053668"><ele>325.33</ele><time>2026-02-13T20:14:11.000Z</time></trkpt>
        <trkpt lat="29.3346732" lon="105.2052736"><ele>325.62</ele><time>2026-02-13T20:14:19.000Z</time></trkpt>
        <trkpt lat="29.3346054" lon="105.2051963"><ele>325.82</ele><time>2026-02-13T20:14:27.000Z</time></trkpt>
        <trkpt lat="29.3345125" lon="105.2051395"><ele>326.17</ele><time>2026-02-13T20:14:37.000Z</time></trkpt>
        <trkpt lat="29.33442" lon="105.2051046"><ele>326.78</ele><time>2026-02-13T20:14:45.000Z</time></trkpt>
        <trkpt lat="29.3343286" lon="105.2050577"><ele>327.13</ele><time>2026-02-13T20:14:53.000Z</time></trkpt>
        <trkpt lat="29.3342718" lon="105.204962"><ele>327.51</ele><time>2026-02-13T20:15:01.000Z</time></trkpt>
        <trkpt lat="29.3342443" lon="105.2048407"><ele>327.82</ele><time>2026-02-13T20:15:09.000Z</time></trkpt>
        <trkpt lat="29.3342113" lon="105.2047245"><ele>328.01</ele><time>2026-02-13T20:15:17.000Z</time></trkpt>
        <trkpt lat="29.3341551" lon="105.2046259"><ele>328.01</ele><time>2026-02-13T20:15:25.000Z</time></trkpt>
        <trkpt lat="29.3340823" lon="105.2045538"><ele>327.97</ele><time>2026-02-13T20:15:33.000Z</time></trkpt>
        <trkpt lat="29.3339928" lon="105.2045114"><ele>327.84</ele><time>2026-02-13T20:15:41.000Z</time></trkpt>
        <trkpt lat="29.333884" lon="105.2044922"><ele>327.45</ele><time>2026-02-13T20:15:51.000Z</time></trkpt>
        <trkpt lat="29.3337807" lon="105.2044696"><ele>326.65</ele><time>2026-02-13T20:15:59.000Z</time></trkpt>
        <trkpt lat="29.3336827" lon="105.2044352"><ele>325.66</ele><time>2026-02-13T20:16:07.000Z</time></trkpt>
        <trkpt lat="29.3335902" lon="105.2044008"><ele>324.68</ele><time>2026-02-13T20:16:15.000Z</time></trkpt>
        <trkpt lat="29.3334975" lon="105.2043719"><ele>323.69</ele><time>2026-02-13T20:16:23.000Z</time></trkpt>
        <trkpt lat="29.3334007" lon="105.2043421"><ele>322.75</ele><time>2026-02-13T20:16:31.000Z</time></trkpt>
        <trkpt lat="29.3333021" lon="105.2043262"><ele>321.7</ele><time>2026-02-13T20:16:39.000Z</time></trkpt>
        <trkpt lat="29.3332081" lon="105.2043301"><ele>321.26</ele><time>2026-02-13T20:16:47.000Z</time></trkpt>
        <trkpt lat="29.33317" lon="105.2043311"><ele>320.31</ele><time>2026-02-13T20:16:51.000Z</time></trkpt>
        <trkpt lat="29.3330843" lon="105.2043157"><ele>320.17</ele><time>2026-02-13T20:17:11.000Z</time></trkpt>
        <trkpt lat="29.333038" lon="105.2043086"><ele>319.21</ele><time>2026-02-13T20:17:15.000Z</time></trkpt>
        <trkpt lat="29.3331039" lon="105.2043344"><ele>318.51</ele><time>2026-02-13T20:17:29.000Z</time></trkpt>
        <trkpt lat="29.3332029" lon="105.2043542"><ele>316.98</ele><time>2026-02-13T20:17:35.000Z</time></trkpt>
        <trkpt lat="29.333271" lon="105.2044403"><ele>316.65</ele><time>2026-02-13T20:17:41.000Z</time></trkpt>
        <trkpt lat="29.3333331" lon="105.204553"><ele>315.67</ele><time>2026-02-13T20:17:49.000Z</time></trkpt>
        <trkpt lat="29.3333216" lon="105.2046631"><ele>315.57</ele><time>2026-02-13T20:18:07.000Z</time></trkpt>
        <trkpt lat="29.3333737" lon="105.2046484"><ele>315.72</ele><time>2026-02-13T20:18:41.000Z</time></trkpt>
        <trkpt lat="29.3333352" lon="105.2045667"><ele>316.43</ele><time>2026-02-13T20:18:55.000Z</time></trkpt>
        <trkpt lat="29.3332827" lon="105.2044641"><ele>316.06</ele><time>2026-02-13T20:19:05.000Z</time></trkpt>
        <trkpt lat="29.3332324" lon="105.2043498"><ele>315.45</ele><time>2026-02-13T20:19:17.000Z</time></trkpt>
        <trkpt lat="29.3331594" lon="105.2042716"><ele>316.22</ele><time>2026-02-13T20:19:25.000Z</time></trkpt>
        <trkpt lat="29.3330601" lon="105.2042426"><ele>316.36</ele><time>2026-02-13T20:19:33.000Z</time></trkpt>
        <trkpt lat="29.3329529" lon="105.2042379"><ele>315.86</ele><time>2026-02-13T20:19:41.000Z</time></trkpt>
        <trkpt lat="29.3328465" lon="105.2042382"><ele>315.14</ele><time>2026-02-13T20:19:49.000Z</time></trkpt>
        <trkpt lat="29.3327395" lon="105.2042374"><ele>314.73</ele><time>2026-02-13T20:19:57.000Z</time></trkpt>
        <trkpt lat="29.3326306" lon="105.2042294"><ele>314.63</ele><time>2026-02-13T20:20:05.000Z</time></trkpt>
        <trkpt lat="29.3325239" lon="105.2042025"><ele>315.42</ele><time>2026-02-13T20:20:13.000Z</time></trkpt>
        <trkpt lat="29.3324234" lon="105.2041757"><ele>316.16</ele><time>2026-02-13T20:20:21.000Z</time></trkpt>
        <trkpt lat="29.3323259" lon="105.2041871"><ele>316.71</ele><time>2026-02-13T20:20:29.000Z</time></trkpt>
        <trkpt lat="29.3322244" lon="105.204205"><ele>317.52</ele><time>2026-02-13T20:20:37.000Z</time></trkpt>
        <trkpt lat="29.3321234" lon="105.2041817"><ele>318.05</ele><time>2026-02-13T20:20:45.000Z</time></trkpt>
        <trkpt lat="29.3320264" lon="105.2041235"><ele>318.14</ele><time>2026-02-13T20:20:53.000Z</time></trkpt>
        <trkpt lat="29.3319307" lon="105.2040738"><ele>318.48</ele><time>2026-02-13T20:21:01.000Z</time></trkpt>
        <trkpt lat="29.331837" lon="105.2040513"><ele>318.96</ele><time>2026-02-13T20:21:09.000Z</time></trkpt>
        <trkpt lat="29.3317438" lon="105.2040373"><ele>319.88</ele><time>2026-02-13T20:21:17.000Z</time></trkpt>
        <trkpt lat="29.3316498" lon="105.2040281"><ele>321.36</ele><time>2026-02-13T20:21:25.000Z</time></trkpt>
        <trkpt lat="29.3315525" lon="105.204017"><ele>322.4</ele><time>2026-02-13T20:21:33.000Z</time></trkpt>
        <trkpt lat="29.3314563" lon="105.2040051"><ele>323.47</ele><time>2026-02-13T20:21:41.000Z</time></trkpt>
        <trkpt lat="29.3313592" lon="105.2039884"><ele>324.88</ele><time>2026-02-13T20:21:49.000Z</time></trkpt>
        <trkpt lat="29.331263" lon="105.2039686"><ele>326.04</ele><time>2026-02-13T20:21:57.000Z</time></trkpt>
        <trkpt lat="29.3311675" lon="105.2039471"><ele>327.13</ele><time>2026-02-13T20:22:05.000Z</time></trkpt>
        <trkpt lat="29.3310717" lon="105.2039317"><ele>328.19</ele><time>2026-02-13T20:22:13.000Z</time></trkpt>
        <trkpt lat="29.3309771" lon="105.2039386"><ele>328.9</ele><time>2026-02-13T20:22:21.000Z</time></trkpt>
        <trkpt lat="29.3308726" lon="105.2039548"><ele>329.27</ele><time>2026-02-13T20:22:29.000Z</time></trkpt>
        <trkpt lat="29.3307674" lon="105.203934"><ele>329.72</ele><time>2026-02-13T20:22:37.000Z</time></trkpt>
        <trkpt lat="29.3306801" lon="105.2038908"><ele>330.02</ele><time>2026-02-13T20:22:43.000Z</time></trkpt>
        <trkpt lat="29.330605" lon="105.2038041"><ele>330.16</ele><time>2026-02-13T20:22:51.000Z</time></trkpt>
        <trkpt lat="29.3305676" lon="105.2037001"><ele>329.88</ele><time>2026-02-13T20:22:57.000Z</time></trkpt>
        <trkpt lat="29.3305522" lon="105.203592"><ele>329.98</ele><time>2026-02-13T20:23:03.000Z</time></trkpt>
        <trkpt lat="29.3305365" lon="105.2034685"><ele>329.94</ele><time>2026-02-13T20:23:11.000Z</time></trkpt>
        <trkpt lat="29.3305266" lon="105.2033571"><ele>330.09</ele><time>2026-02-13T20:23:17.000Z</time></trkpt>
        <trkpt lat="29.3305067" lon="105.2032334"><ele>330.19</ele><time>2026-02-13T20:23:25.000Z</time></trkpt>
        <trkpt lat="29.3304857" lon="105.2031087"><ele>330.01</ele><time>2026-02-13T20:23:33.000Z</time></trkpt>
        <trkpt lat="29.3304658" lon="105.2029827"><ele>329.63</ele><time>2026-02-13T20:23:41.000Z</time></trkpt>
        <trkpt lat="29.3304432" lon="105.2028533"><ele>329.23</ele><time>2026-02-13T20:23:49.000Z</time></trkpt>
        <trkpt lat="29.330421" lon="105.2027226"><ele>329.18</ele><time>2026-02-13T20:23:57.000Z</time></trkpt>
        <trkpt lat="29.3303985" lon="105.2025898"><ele>328.96</ele><time>2026-02-13T20:24:05.000Z</time></trkpt>
        <trkpt lat="29.3303775" lon="105.2024582"><ele>328.59</ele><time>2026-02-13T20:24:13.000Z</time></trkpt>
        <trkpt lat="29.33036" lon="105.2023451"><ele>328.25</ele><time>2026-02-13T20:24:19.000Z</time></trkpt>
        <trkpt lat="29.3303395" lon="105.2022211"><ele>328.21</ele><time>2026-02-13T20:24:27.000Z</time></trkpt>
        <trkpt lat="29.3302825" lon="105.2020894"><ele>327.2</ele><time>2026-02-13T20:24:33.000Z</time></trkpt>
        <trkpt lat="29.330229" lon="105.2019717"><ele>326.56</ele><time>2026-02-13T20:24:37.000Z</time></trkpt>
        <trkpt lat="29.3301738" lon="105.2018658"><ele>326.1</ele><time>2026-02-13T20:24:41.000Z</time></trkpt>
        <trkpt lat="29.3301249" lon="105.2017542"><ele>326.46</ele><time>2026-02-13T20:24:45.000Z</time></trkpt>
        <trkpt lat="29.330071" lon="105.2016456"><ele>326.29</ele><time>2026-02-13T20:24:49.000Z</time></trkpt>
        <trkpt lat="29.330018" lon="105.2015277"><ele>326.19</ele><time>2026-02-13T20:24:53.000Z</time></trkpt>
        <trkpt lat="29.3299724" lon="105.2014082"><ele>326.41</ele><time>2026-02-13T20:24:57.000Z</time></trkpt>
        <trkpt lat="29.3299131" lon="105.2013029"><ele>326.73</ele><time>2026-02-13T20:25:01.000Z</time></trkpt>
        <trkpt lat="29.3298561" lon="105.2011953"><ele>327.64</ele><time>2026-02-13T20:25:05.000Z</time></trkpt>
        <trkpt lat="29.3297996" lon="105.2010823"><ele>328.39</ele><time>2026-02-13T20:25:09.000Z</time></trkpt>
        <trkpt lat="29.3297415" lon="105.2009722"><ele>328.99</ele><time>2026-02-13T20:25:13.000Z</time></trkpt>
        <trkpt lat="29.3296863" lon="105.2008647"><ele>330.14</ele><time>2026-02-13T20:25:17.000Z</time></trkpt>
        <trkpt lat="29.3296378" lon="105.2007626"><ele>332.21</ele><time>2026-02-13T20:25:21.000Z</time></trkpt>
        <trkpt lat="29.3295689" lon="105.2006721"><ele>333.89</ele><time>2026-02-13T20:25:27.000Z</time></trkpt>
        <trkpt lat="29.3295466" lon="105.2005688"><ele>337.52</ele><time>2026-02-13T20:25:35.000Z</time></trkpt>
        <trkpt lat="29.3295207" lon="105.2004594"><ele>340.2</ele><time>2026-02-13T20:25:45.000Z</time></trkpt>
        <trkpt lat="29.3294672" lon="105.2003579"><ele>341.17</ele><time>2026-02-13T20:25:55.000Z</time></trkpt>
        <trkpt lat="29.3294133" lon="105.2002684"><ele>342.35</ele><time>2026-02-13T20:26:03.000Z</time></trkpt>
        <trkpt lat="29.3293454" lon="105.2001825"><ele>343.89</ele><time>2026-02-13T20:26:11.000Z</time></trkpt>
        <trkpt lat="29.3292877" lon="105.2000892"><ele>345.54</ele><time>2026-02-13T20:26:23.000Z</time></trkpt>
        <trkpt lat="29.3292243" lon="105.199996"><ele>346.68</ele><time>2026-02-13T20:26:29.000Z</time></trkpt>
        <trkpt lat="29.3291511" lon="105.1999048"><ele>348.41</ele><time>2026-02-13T20:26:33.000Z</time></trkpt>
        <trkpt lat="29.3290737" lon="105.1998012"><ele>350.07</ele><time>2026-02-13T20:26:37.000Z</time></trkpt>
        <trkpt lat="29.328998" lon="105.1997036"><ele>351.49</ele><time>2026-02-13T20:26:41.000Z</time></trkpt>
        <trkpt lat="29.3289205" lon="105.1996087"><ele>352.18</ele><time>2026-02-13T20:26:45.000Z</time></trkpt>
        <trkpt lat="29.3288433" lon="105.1995171"><ele>353.65</ele><time>2026-02-13T20:26:49.000Z</time></trkpt>
        <trkpt lat="29.3287733" lon="105.1994251"><ele>355.1</ele><time>2026-02-13T20:26:53.000Z</time></trkpt>
        <trkpt lat="29.3287002" lon="105.1993315"><ele>356.51</ele><time>2026-02-13T20:26:57.000Z</time></trkpt>
        <trkpt lat="29.3286351" lon="105.19923"><ele>357.75</ele><time>2026-02-13T20:27:01.000Z</time></trkpt>
        <trkpt lat="29.3285717" lon="105.1991301"><ele>359</ele><time>2026-02-13T20:27:05.000Z</time></trkpt>
        <trkpt lat="29.3285026" lon="105.1990443"><ele>358.58</ele><time>2026-02-13T20:27:09.000Z</time></trkpt>
        <trkpt lat="29.3284413" lon="105.1989536"><ele>359.46</ele><time>2026-02-13T20:27:13.000Z</time></trkpt>
        <trkpt lat="29.3283775" lon="105.1988612"><ele>361.57</ele><time>2026-02-13T20:27:17.000Z</time></trkpt>
        <trkpt lat="29.3283122" lon="105.1987693"><ele>363.01</ele><time>2026-02-13T20:27:21.000Z</time></trkpt>
        <trkpt lat="29.3282532" lon="105.1986749"><ele>363.73</ele><time>2026-02-13T20:27:25.000Z</time></trkpt>
        <trkpt lat="29.3282052" lon="105.1985802"><ele>364.8</ele><time>2026-02-13T20:27:29.000Z</time></trkpt>
        <trkpt lat="29.3281482" lon="105.1984953"><ele>366.24</ele><time>2026-02-13T20:27:37.000Z</time></trkpt>
        <trkpt lat="29.3280752" lon="105.1984124"><ele>368.66</ele><time>2026-02-13T20:27:47.000Z</time></trkpt>
        <trkpt lat="29.3280098" lon="105.1983302"><ele>370.21</ele><time>2026-02-13T20:27:55.000Z</time></trkpt>
        <trkpt lat="29.3279331" lon="105.1982418"><ele>371.7</ele><time>2026-02-13T20:28:03.000Z</time></trkpt>
        <trkpt lat="29.3278643" lon="105.1981616"><ele>372.87</ele><time>2026-02-13T20:28:11.000Z</time></trkpt>
        <trkpt lat="29.3277789" lon="105.198092"><ele>373.75</ele><time>2026-02-13T20:28:21.000Z</time></trkpt>
        <trkpt lat="29.3276974" lon="105.198032"><ele>374.06</ele><time>2026-02-13T20:28:29.000Z</time></trkpt>
        <trkpt lat="29.3276192" lon="105.1979723"><ele>374.32</ele><time>2026-02-13T20:28:37.000Z</time></trkpt>
        <trkpt lat="29.3275573" lon="105.1978947"><ele>374.19</ele><time>2026-02-13T20:28:45.000Z</time></trkpt>
        <trkpt lat="29.327521" lon="105.19782"><ele>373.86</ele><time>2026-02-13T20:28:53.000Z</time></trkpt>
        <trkpt lat="29.327487" lon="105.197725"><ele>373.76</ele><time>2026-02-13T20:29:05.000Z</time></trkpt>
        <trkpt lat="29.3274331" lon="105.1976209"><ele>373.23</ele><time>2026-02-13T20:29:11.000Z</time></trkpt>
        <trkpt lat="29.3273958" lon="105.197497"><ele>371.6</ele><time>2026-02-13T20:29:15.000Z</time></trkpt>
        <trkpt lat="29.3273432" lon="105.1973653"><ele>367.81</ele><time>2026-02-13T20:29:19.000Z</time></trkpt>
        <trkpt lat="29.3272685" lon="105.1972451"><ele>364.75</ele><time>2026-02-13T20:29:23.000Z</time></trkpt>
        <trkpt lat="29.3271715" lon="105.1971439"><ele>362.7</ele><time>2026-02-13T20:29:27.000Z</time></trkpt>
        <trkpt lat="29.3270909" lon="105.1970669"><ele>362.64</ele><time>2026-02-13T20:29:31.000Z</time></trkpt>
        <trkpt lat="29.3270046" lon="105.1969929"><ele>362.98</ele><time>2026-02-13T20:29:37.000Z</time></trkpt>
        <trkpt lat="29.326937" lon="105.196914"><ele>362.53</ele><time>2026-02-13T20:29:41.000Z</time></trkpt>
        <trkpt lat="29.3268513" lon="105.196845"><ele>361.32</ele><time>2026-02-13T20:29:45.000Z</time></trkpt>
        <trkpt lat="29.3267644" lon="105.1967635"><ele>359.79</ele><time>2026-02-13T20:29:49.000Z</time></trkpt>
        <trkpt lat="29.3266707" lon="105.1966879"><ele>357.33</ele><time>2026-02-13T20:29:53.000Z</time></trkpt>
        <trkpt lat="29.3265796" lon="105.1966037"><ele>354.49</ele><time>2026-02-13T20:29:57.000Z</time></trkpt>
        <trkpt lat="29.3265128" lon="105.1965044"><ele>352.08</ele><time>2026-02-13T20:30:01.000Z</time></trkpt>
        <trkpt lat="29.3264789" lon="105.1963919"><ele>350.55</ele><time>2026-02-13T20:30:05.000Z</time></trkpt>
        <trkpt lat="29.3264586" lon="105.1962653"><ele>349.42</ele><time>2026-02-13T20:30:09.000Z</time></trkpt>
        <trkpt lat="29.3264324" lon="105.1961402"><ele>348.18</ele><time>2026-02-13T20:30:13.000Z</time></trkpt>
        <trkpt lat="29.3264063" lon="105.1960159"><ele>347.61</ele><time>2026-02-13T20:30:17.000Z</time></trkpt>
        <trkpt lat="29.3263668" lon="105.1958966"><ele>347.37</ele><time>2026-02-13T20:30:21.000Z</time></trkpt>
        <trkpt lat="29.3263331" lon="105.1957692"><ele>348.31</ele><time>2026-02-13T20:30:27.000Z</time></trkpt>
        <trkpt lat="29.3263098" lon="105.1956459"><ele>350.18</ele><time>2026-02-13T20:30:35.000Z</time></trkpt>
        <trkpt lat="29.3263027" lon="105.195511"><ele>352.29</ele><time>2026-02-13T20:30:43.000Z</time></trkpt>
        <trkpt lat="29.326297" lon="105.195384"><ele>354.94</ele><time>2026-02-13T20:30:51.000Z</time></trkpt>
        <trkpt lat="29.3262918" lon="105.1952721"><ele>357.05</ele><time>2026-02-13T20:30:57.000Z</time></trkpt>
        <trkpt lat="29.3262713" lon="105.195152"><ele>358.65</ele><time>2026-02-13T20:31:05.000Z</time></trkpt>
        <trkpt lat="29.3262587" lon="105.1950291"><ele>360.25</ele><time>2026-02-13T20:31:13.000Z</time></trkpt>
        <trkpt lat="29.3262298" lon="105.1949037"><ele>361.17</ele><time>2026-02-13T20:31:21.000Z</time></trkpt>
        <trkpt lat="29.3261772" lon="105.1947863"><ele>362.07</ele><time>2026-02-13T20:31:29.000Z</time></trkpt>
        <trkpt lat="29.3261331" lon="105.1946819"><ele>363.12</ele><time>2026-02-13T20:31:35.000Z</time></trkpt>
        <trkpt lat="29.3260785" lon="105.1945673"><ele>363.94</ele><time>2026-02-13T20:31:43.000Z</time></trkpt>
        <trkpt lat="29.3260442" lon="105.194461"><ele>364.51</ele><time>2026-02-13T20:31:49.000Z</time></trkpt>
        <trkpt lat="29.326006" lon="105.1943389"><ele>364.95</ele><time>2026-02-13T20:31:57.000Z</time></trkpt>
        <trkpt lat="29.3259737" lon="105.1942331"><ele>365.08</ele><time>2026-02-13T20:32:03.000Z</time></trkpt>
        <trkpt lat="29.3259331" lon="105.1941319"><ele>365.06</ele><time>2026-02-13T20:32:11.000Z</time></trkpt>
        <trkpt lat="29.3259021" lon="105.1940105"><ele>367.14</ele><time>2026-02-13T20:32:19.000Z</time></trkpt>
        <trkpt lat="29.3258642" lon="105.1939087"><ele>368.79</ele><time>2026-02-13T20:32:25.000Z</time></trkpt>
        <trkpt lat="29.325831" lon="105.1937899"><ele>369.88</ele><time>2026-02-13T20:32:33.000Z</time></trkpt>
        <trkpt lat="29.3258121" lon="105.1936777"><ele>370.77</ele><time>2026-02-13T20:32:39.000Z</time></trkpt>
        <trkpt lat="29.3258065" lon="105.1935443"><ele>371.51</ele><time>2026-02-13T20:32:47.000Z</time></trkpt>
        <trkpt lat="29.3258003" lon="105.1934303"><ele>371.56</ele><time>2026-02-13T20:32:53.000Z</time></trkpt>
        <trkpt lat="29.3257929" lon="105.1933231"><ele>371.62</ele><time>2026-02-13T20:32:59.000Z</time></trkpt>
        <trkpt lat="29.3257713" lon="105.1932032"><ele>371.56</ele><time>2026-02-13T20:33:07.000Z</time></trkpt>
        <trkpt lat="29.325733" lon="105.1931022"><ele>371.58</ele><time>2026-02-13T20:33:13.000Z</time></trkpt>
        <trkpt lat="29.3256769" lon="105.1929899"><ele>371.83</ele><time>2026-02-13T20:33:21.000Z</time></trkpt>
        <trkpt lat="29.3256247" lon="105.1928681"><ele>372.44</ele><time>2026-02-13T20:33:29.000Z</time></trkpt>
        <trkpt lat="29.3256063" lon="105.1927532"><ele>373.02</ele><time>2026-02-13T20:33:35.000Z</time></trkpt>
        <trkpt lat="29.3255911" lon="105.1926436"><ele>372.73</ele><time>2026-02-13T20:33:41.000Z</time></trkpt>
        <trkpt lat="29.3255946" lon="105.192536"><ele>371.97</ele><time>2026-02-13T20:33:47.000Z</time></trkpt>
        <trkpt lat="29.3256059" lon="105.1924294"><ele>371.36</ele><time>2026-02-13T20:33:53.000Z</time></trkpt>
        <trkpt lat="29.3256152" lon="105.1923249"><ele>371.25</ele><time>2026-02-13T20:33:59.000Z</time></trkpt>
        <trkpt lat="29.3256241" lon="105.1922191"><ele>370.85</ele><time>2026-02-13T20:34:05.000Z</time></trkpt>
        <trkpt lat="29.3256189" lon="105.1920947"><ele>369.9</ele><time>2026-02-13T20:34:13.000Z</time></trkpt>
        <trkpt lat="29.3255966" lon="105.1919824"><ele>369.1</ele><time>2026-02-13T20:34:19.000Z</time></trkpt>
        <trkpt lat="29.3255724" lon="105.1918571"><ele>369.19</ele><time>2026-02-13T20:34:27.000Z</time></trkpt>
        <trkpt lat="29.3255527" lon="105.1917434"><ele>369.29</ele><time>2026-02-13T20:34:33.000Z</time></trkpt>
        <trkpt lat="29.325535" lon="105.1916345"><ele>369.71</ele><time>2026-02-13T20:34:39.000Z</time></trkpt>
        <trkpt lat="29.3255056" lon="105.1915365"><ele>369.64</ele><time>2026-02-13T20:34:45.000Z</time></trkpt>
        <trkpt lat="29.325482" lon="105.1914365"><ele>369.77</ele><time>2026-02-13T20:34:51.000Z</time></trkpt>
        <trkpt lat="29.3254443" lon="105.1913227"><ele>369.9</ele><time>2026-02-13T20:34:59.000Z</time></trkpt>
        <trkpt lat="29.3254191" lon="105.1913705"><ele>369.95</ele><time>2026-02-13T20:35:07.000Z</time></trkpt>
        <trkpt lat="29.3254285" lon="105.1914761"><ele>369.57</ele><time>2026-02-13T20:35:15.000Z</time></trkpt>
        <trkpt lat="29.3254282" lon="105.191613"><ele>368.43</ele><time>2026-02-13T20:35:25.000Z</time></trkpt>
        <trkpt lat="29.3253572" lon="105.1917024"><ele>366.76</ele><time>2026-02-13T20:35:33.000Z</time></trkpt>
        <trkpt lat="29.3252639" lon="105.1917356"><ele>368.58</ele><time>2026-02-13T20:35:41.000Z</time></trkpt>
        <trkpt lat="29.3251864" lon="105.1917931"><ele>372.15</ele><time>2026-02-13T20:35:57.000Z</time></trkpt>
        <trkpt lat="29.3251256" lon="105.1917296"><ele>372.64</ele><time>2026-02-13T20:36:05.000Z</time></trkpt>
        <trkpt lat="29.325097" lon="105.191699"><ele>370.44</ele><time>2026-02-13T20:36:13.000Z</time></trkpt>
        <trkpt lat="29.3251104" lon="105.191781"><ele>366.56</ele><time>2026-02-13T20:36:25.000Z</time></trkpt>
        <trkpt lat="29.3251255" lon="105.1918197"><ele>361.69</ele><time>2026-02-13T20:36:31.000Z</time></trkpt>
        <trkpt lat="29.3251398" lon="105.1919078"><ele>358.85</ele><time>2026-02-13T20:36:53.000Z</time></trkpt>
        <trkpt lat="29.3251392" lon="105.192033"><ele>355.16</ele><time>2026-02-13T20:36:59.000Z</time></trkpt>
        <trkpt lat="29.3251204" lon="105.1921483"><ele>352.2</ele><time>2026-02-13T20:37:05.000Z</time></trkpt>
        <trkpt lat="29.3251" lon="105.1922696"><ele>350.17</ele><time>2026-02-13T20:37:13.000Z</time></trkpt>
        <trkpt lat="29.3250749" lon="105.1923974"><ele>347.74</ele><time>2026-02-13T20:37:21.000Z</time></trkpt>
        <trkpt lat="29.3250619" lon="105.1925355"><ele>346.06</ele><time>2026-02-13T20:37:33.000Z</time></trkpt>
        <trkpt lat="29.325038" lon="105.192655"><ele>344.49</ele><time>2026-02-13T20:37:39.000Z</time></trkpt>
        <trkpt lat="29.3250096" lon="105.1928159"><ele>342.3</ele><time>2026-02-13T20:37:45.000Z</time></trkpt>
        <trkpt lat="29.3249656" lon="105.1929733"><ele>339.86</ele><time>2026-02-13T20:37:49.000Z</time></trkpt>
        <trkpt lat="29.3249131" lon="105.1931275"><ele>337.27</ele><time>2026-02-13T20:37:53.000Z</time></trkpt>
        <trkpt lat="29.3248498" lon="105.1932386"><ele>335.92</ele><time>2026-02-13T20:37:57.000Z</time></trkpt>
        <trkpt lat="29.324782" lon="105.1933363"><ele>334.11</ele><time>2026-02-13T20:38:01.000Z</time></trkpt>
        <trkpt lat="29.3247234" lon="105.1934432"><ele>332.33</ele><time>2026-02-13T20:38:05.000Z</time></trkpt>
        <trkpt lat="29.324675" lon="105.1935646"><ele>330.54</ele><time>2026-02-13T20:38:09.000Z</time></trkpt>
        <trkpt lat="29.3246359" lon="105.1937092"><ele>328.72</ele><time>2026-02-13T20:38:13.000Z</time></trkpt>
        <trkpt lat="29.324601" lon="105.1938595"><ele>326.75</ele><time>2026-02-13T20:38:17.000Z</time></trkpt>
        <trkpt lat="29.3245414" lon="105.194005"><ele>324.61</ele><time>2026-02-13T20:38:21.000Z</time></trkpt>
        <trkpt lat="29.3244668" lon="105.1941193"><ele>323.3</ele><time>2026-02-13T20:38:25.000Z</time></trkpt>
        <trkpt lat="29.3243942" lon="105.1942031"><ele>322.38</ele><time>2026-02-13T20:38:29.000Z</time></trkpt>
        <trkpt lat="29.3243315" lon="105.1942784"><ele>321.46</ele><time>2026-02-13T20:38:33.000Z</time></trkpt>
        <trkpt lat="29.3242457" lon="105.1942968"><ele>322.71</ele><time>2026-02-13T20:38:39.000Z</time></trkpt>
        <trkpt lat="29.3241426" lon="105.1942566"><ele>323.49</ele><time>2026-02-13T20:38:47.000Z</time></trkpt>
        <trkpt lat="29.3240406" lon="105.1941909"><ele>323.96</ele><time>2026-02-13T20:38:55.000Z</time></trkpt>
        <trkpt lat="29.3239397" lon="105.1941192"><ele>324.03</ele><time>2026-02-13T20:39:03.000Z</time></trkpt>
        <trkpt lat="29.323845" lon="105.194038"><ele>323.99</ele><time>2026-02-13T20:39:11.000Z</time></trkpt>
        <trkpt lat="29.323773" lon="105.1939598"><ele>323.89</ele><time>2026-02-13T20:39:17.000Z</time></trkpt>
        <trkpt lat="29.3237028" lon="105.1938929"><ele>323.75</ele><time>2026-02-13T20:39:23.000Z</time></trkpt>
        <trkpt lat="29.3236117" lon="105.1938431"><ele>323.49</ele><time>2026-02-13T20:39:31.000Z</time></trkpt>
        <trkpt lat="29.3235205" lon="105.1937724"><ele>322.98</ele><time>2026-02-13T20:39:39.000Z</time></trkpt>
        <trkpt lat="29.3234301" lon="105.1936943"><ele>322.36</ele><time>2026-02-13T20:39:47.000Z</time></trkpt>
        <trkpt lat="29.3233462" lon="105.1936047"><ele>321.76</ele><time>2026-02-13T20:39:55.000Z</time></trkpt>
        <trkpt lat="29.3232735" lon="105.1935051"><ele>320.97</ele><time>2026-02-13T20:40:03.000Z</time></trkpt>
        <trkpt lat="29.3232093" lon="105.193399"><ele>320.23</ele><time>2026-02-13T20:40:11.000Z</time></trkpt>
        <trkpt lat="29.3231442" lon="105.1932945"><ele>319.91</ele><time>2026-02-13T20:40:19.000Z</time></trkpt>
        <trkpt lat="29.3230765" lon="105.1931902"><ele>319.34</ele><time>2026-02-13T20:40:27.000Z</time></trkpt>
        <trkpt lat="29.3230023" lon="105.1930923"><ele>318.81</ele><time>2026-02-13T20:40:35.000Z</time></trkpt>
        <trkpt lat="29.3229254" lon="105.1929939"><ele>318.52</ele><time>2026-02-13T20:40:43.000Z</time></trkpt>
        <trkpt lat="29.322844" lon="105.1928993"><ele>318.02</ele><time>2026-02-13T20:40:51.000Z</time></trkpt>
        <trkpt lat="29.3227576" lon="105.192827"><ele>317.96</ele><time>2026-02-13T20:40:59.000Z</time></trkpt>
        <trkpt lat="29.3226667" lon="105.1927613"><ele>318.04</ele><time>2026-02-13T20:41:07.000Z</time></trkpt>
        <trkpt lat="29.3225701" lon="105.1927082"><ele>318.02</ele><time>2026-02-13T20:41:15.000Z</time></trkpt>
        <trkpt lat="29.3224755" lon="105.1926648"><ele>318.46</ele><time>2026-02-13T20:41:23.000Z</time></trkpt>
        <trkpt lat="29.322375" lon="105.1926616"><ele>318.92</ele><time>2026-02-13T20:41:31.000Z</time></trkpt>
        <trkpt lat="29.3222641" lon="105.1926721"><ele>319.13</ele><time>2026-02-13T20:41:39.000Z</time></trkpt>
        <trkpt lat="29.3221512" lon="105.1926854"><ele>319.17</ele><time>2026-02-13T20:41:47.000Z</time></trkpt>
        <trkpt lat="29.3220392" lon="105.1927013"><ele>318.96</ele><time>2026-02-13T20:41:55.000Z</time></trkpt>
        <trkpt lat="29.3219274" lon="105.1927114"><ele>319.05</ele><time>2026-02-13T20:42:03.000Z</time></trkpt>
        <trkpt lat="29.3218162" lon="105.1927222"><ele>319.21</ele><time>2026-02-13T20:42:11.000Z</time></trkpt>
        <trkpt lat="29.3217081" lon="105.1927379"><ele>319.18</ele><time>2026-02-13T20:42:19.000Z</time></trkpt>
        <trkpt lat="29.3215967" lon="105.1927392"><ele>319.08</ele><time>2026-02-13T20:42:27.000Z</time></trkpt>
        <trkpt lat="29.3214898" lon="105.1926942"><ele>319.06</ele><time>2026-02-13T20:42:35.000Z</time></trkpt>
        <trkpt lat="29.321392" lon="105.1926304"><ele>318.58</ele><time>2026-02-13T20:42:43.000Z</time></trkpt>
        <trkpt lat="29.3212865" lon="105.1925936"><ele>318.38</ele><time>2026-02-13T20:42:51.000Z</time></trkpt>
        <trkpt lat="29.3211862" lon="105.1925366"><ele>318.29</ele><time>2026-02-13T20:42:59.000Z</time></trkpt>
        <trkpt lat="29.3210832" lon="105.1924736"><ele>318.24</ele><time>2026-02-13T20:43:07.000Z</time></trkpt>
        <trkpt lat="29.3209805" lon="105.1924571"><ele>318.29</ele><time>2026-02-13T20:43:15.000Z</time></trkpt>
        <trkpt lat="29.320874" lon="105.1924591"><ele>318.54</ele><time>2026-02-13T20:43:23.000Z</time></trkpt>
        <trkpt lat="29.3207654" lon="105.1924599"><ele>319.08</ele><time>2026-02-13T20:43:31.000Z</time></trkpt>
        <trkpt lat="29.3206567" lon="105.1924428"><ele>319.36</ele><time>2026-02-13T20:43:39.000Z</time></trkpt>
        <trkpt lat="29.3205447" lon="105.1924273"><ele>319.48</ele><time>2026-02-13T20:43:47.000Z</time></trkpt>
        <trkpt lat="29.3204363" lon="105.1924079"><ele>319.61</ele><time>2026-02-13T20:43:55.000Z</time></trkpt>
        <trkpt lat="29.3203388" lon="105.1924306"><ele>319.29</ele><time>2026-02-13T20:44:03.000Z</time></trkpt>
        <trkpt lat="29.3202532" lon="105.1925009"><ele>318.81</ele><time>2026-02-13T20:44:11.000Z</time></trkpt>
        <trkpt lat="29.3201863" lon="105.1926014"><ele>318.11</ele><time>2026-02-13T20:44:19.000Z</time></trkpt>
        <trkpt lat="29.3201248" lon="105.1927131"><ele>317.58</ele><time>2026-02-13T20:44:27.000Z</time></trkpt>
        <trkpt lat="29.320073" lon="105.1928194"><ele>317.67</ele><time>2026-02-13T20:44:35.000Z</time></trkpt>
        <trkpt lat="29.3200407" lon="105.1929286"><ele>317.9</ele><time>2026-02-13T20:44:43.000Z</time></trkpt>
        <trkpt lat="29.3199872" lon="105.1930182"><ele>318.71</ele><time>2026-02-13T20:44:51.000Z</time></trkpt>
        <trkpt lat="29.3200157" lon="105.1930845"><ele>319.43</ele><time>2026-02-13T20:44:59.000Z</time></trkpt>
        <trkpt lat="29.3199546" lon="105.1930968"><ele>320.05</ele><time>2026-02-13T20:45:11.000Z</time></trkpt>
        <trkpt lat="29.3198577" lon="105.193074"><ele>320.98</ele><time>2026-02-13T20:45:19.000Z</time></trkpt>
        <trkpt lat="29.3197506" lon="105.1930377"><ele>321.64</ele><time>2026-02-13T20:45:31.000Z</time></trkpt>
        <trkpt lat="29.3196387" lon="105.1930092"><ele>321.92</ele><time>2026-02-13T20:45:39.000Z</time></trkpt>
        <trkpt lat="29.3195838" lon="105.1930229"><ele>322.66</ele><time>2026-02-13T20:45:45.000Z</time></trkpt>
        <trkpt lat="29.3194953" lon="105.1929969"><ele>322.79</ele><time>2026-02-13T20:45:59.000Z</time></trkpt>
        <trkpt lat="29.3193977" lon="105.1929591"><ele>323.79</ele><time>2026-02-13T20:46:07.000Z</time></trkpt>
        <trkpt lat="29.3192958" lon="105.1929008"><ele>324.07</ele><time>2026-02-13T20:46:15.000Z</time></trkpt>
        <trkpt lat="29.3191963" lon="105.1928459"><ele>324.5</ele><time>2026-02-13T20:46:23.000Z</time></trkpt>
        <trkpt lat="29.3190886" lon="105.1928077"><ele>323.98</ele><time>2026-02-13T20:46:31.000Z</time></trkpt>
        <trkpt lat="29.3189843" lon="105.1928267"><ele>324.5</ele><time>2026-02-13T20:46:39.000Z</time></trkpt>
        <trkpt lat="29.3188805" lon="105.1928836"><ele>325.21</ele><time>2026-02-13T20:46:47.000Z</time></trkpt>
        <trkpt lat="29.3187723" lon="105.1928987"><ele>325.87</ele><time>2026-02-13T20:46:55.000Z</time></trkpt>
        <trkpt lat="29.318679" lon="105.192852"><ele>326.65</ele><time>2026-02-13T20:47:07.000Z</time></trkpt>
        <trkpt lat="29.3186561" lon="105.1927325"><ele>328.2</ele><time>2026-02-13T20:47:15.000Z</time></trkpt>
        <trkpt lat="29.3186792" lon="105.1926031"><ele>330.13</ele><time>2026-02-13T20:47:23.000Z</time></trkpt>
        <trkpt lat="29.3187094" lon="105.192471"><ele>332.62</ele><time>2026-02-13T20:47:31.000Z</time></trkpt>
        <trkpt lat="29.3187119" lon="105.1923537"><ele>334.12</ele><time>2026-02-13T20:47:39.000Z</time></trkpt>
        <trkpt lat="29.3186816" lon="105.1922373"><ele>334.3</ele><time>2026-02-13T20:47:47.000Z</time></trkpt>
        <trkpt lat="29.3186366" lon="105.1921268"><ele>335.4</ele><time>2026-02-13T20:47:55.000Z</time></trkpt>
        <trkpt lat="29.3185571" lon="105.1920401"><ele>336.76</ele><time>2026-02-13T20:48:03.000Z</time></trkpt>
        <trkpt lat="29.3184584" lon="105.1919783"><ele>337.83</ele><time>2026-02-13T20:48:11.000Z</time></trkpt>
        <trkpt lat="29.318356" lon="105.1920029"><ele>338.76</ele><time>2026-02-13T20:48:19.000Z</time></trkpt>
        <trkpt lat="29.3183433" lon="105.192104"><ele>339.02</ele><time>2026-02-13T20:48:27.000Z</time></trkpt>
        <trkpt lat="29.3183684" lon="105.1922361"><ele>339.55</ele><time>2026-02-13T20:48:35.000Z</time></trkpt>
        <trkpt lat="29.3183123" lon="105.1922958"><ele>340.46</ele><time>2026-02-13T20:48:43.000Z</time></trkpt>
        <trkpt lat="29.3182168" lon="105.1922756"><ele>342.13</ele><time>2026-02-13T20:48:53.000Z</time></trkpt>
        <trkpt lat="29.3181204" lon="105.1922412"><ele>344.89</ele><time>2026-02-13T20:49:01.000Z</time></trkpt>
        <trkpt lat="29.3180748" lon="105.1922237"><ele>347.59</ele><time>2026-02-13T20:49:07.000Z</time></trkpt>
        <trkpt lat="29.3179911" lon="105.1921717"><ele>349.1</ele><time>2026-02-13T20:49:29.000Z</time></trkpt>
        <trkpt lat="29.3179018" lon="105.192116"><ele>350.99</ele><time>2026-02-13T20:49:37.000Z</time></trkpt>
        <trkpt lat="29.3178259" lon="105.192029"><ele>352.83</ele><time>2026-02-13T20:49:45.000Z</time></trkpt>
        <trkpt lat="29.3177716" lon="105.1919246"><ele>354.01</ele><time>2026-02-13T20:49:53.000Z</time></trkpt>
        <trkpt lat="29.3177219" lon="105.1918281"><ele>354.87</ele><time>2026-02-13T20:50:05.000Z</time></trkpt>
        <trkpt lat="29.3176677" lon="105.1917126"><ele>355.84</ele><time>2026-02-13T20:50:11.000Z</time></trkpt>
        <trkpt lat="29.3176268" lon="105.1915982"><ele>356.98</ele><time>2026-02-13T20:50:19.000Z</time></trkpt>
        <trkpt lat="29.3175855" lon="105.1914784"><ele>359.66</ele><time>2026-02-13T20:50:27.000Z</time></trkpt>
        <trkpt lat="29.3175146" lon="105.1914011"><ele>362.33</ele><time>2026-02-13T20:50:35.000Z</time></trkpt>
        <trkpt lat="29.3174977" lon="105.1913909"><ele>364.77</ele><time>2026-02-13T20:50:37.000Z</time></trkpt>
        <trkpt lat="29.3175163" lon="105.1914772"><ele>366.29</ele><time>2026-02-13T20:50:53.000Z</time></trkpt>
        <trkpt lat="29.317563" lon="105.1916002"><ele>368.16</ele><time>2026-02-13T20:51:13.000Z</time></trkpt>
        <trkpt lat="29.3175682" lon="105.1917234"><ele>369.53</ele><time>2026-02-13T20:51:21.000Z</time></trkpt>
        <trkpt lat="29.3175651" lon="105.1918741"><ele>371.1</ele><time>2026-02-13T20:51:27.000Z</time></trkpt>
        <trkpt lat="29.3175327" lon="105.1920303"><ele>373.33</ele><time>2026-02-13T20:51:35.000Z</time></trkpt>
        <trkpt lat="29.3175096" lon="105.1921545"><ele>376.85</ele><time>2026-02-13T20:51:45.000Z</time></trkpt>
        <trkpt lat="29.3174753" lon="105.1922197"><ele>378.27</ele><time>2026-02-13T20:51:53.000Z</time></trkpt>
        <trkpt lat="29.3174563" lon="105.1923076"><ele>379.55</ele><time>2026-02-13T20:52:03.000Z</time></trkpt>
        <trkpt lat="29.3174976" lon="105.1924044"><ele>379.58</ele><time>2026-02-13T20:52:11.000Z</time></trkpt>
        <trkpt lat="29.3175354" lon="105.192509"><ele>380.16</ele><time>2026-02-13T20:52:17.000Z</time></trkpt>
        <trkpt lat="29.3175172" lon="105.1925985"><ele>381.63</ele><time>2026-02-13T20:52:27.000Z</time></trkpt>
        <trkpt lat="29.3174858" lon="105.1927105"><ele>382.78</ele><time>2026-02-13T20:52:39.000Z</time></trkpt>
        <trkpt lat="29.3174335" lon="105.192816"><ele>383.88</ele><time>2026-02-13T20:52:51.000Z</time></trkpt>
        <trkpt lat="29.3173765" lon="105.1929122"><ele>385.05</ele><time>2026-02-13T20:53:01.000Z</time></trkpt>
        <trkpt lat="29.3173317" lon="105.1930123"><ele>386.85</ele><time>2026-02-13T20:53:11.000Z</time></trkpt>
        <trkpt lat="29.317257" lon="105.1930756"><ele>389.07</ele><time>2026-02-13T20:53:41.000Z</time></trkpt>
        <trkpt lat="29.317159" lon="105.1930857"><ele>393.29</ele><time>2026-02-13T20:54:09.000Z</time></trkpt>
        <trkpt lat="29.3170572" lon="105.193057"><ele>396.39</ele><time>2026-02-13T20:54:19.000Z</time></trkpt>
        <trkpt lat="29.3169804" lon="105.193114"><ele>399.18</ele><time>2026-02-13T20:54:31.000Z</time></trkpt>
        <trkpt lat="29.3168905" lon="105.1931758"><ele>402.12</ele><time>2026-02-13T20:54:41.000Z</time></trkpt>
        <trkpt lat="29.3167927" lon="105.1932346"><ele>405.65</ele><time>2026-02-13T20:54:53.000Z</time></trkpt>
        <trkpt lat="29.3166871" lon="105.1932628"><ele>408.92</ele><time>2026-02-13T20:55:03.000Z</time></trkpt>
        <trkpt lat="29.3165919" lon="105.1932906"><ele>411.58</ele><time>2026-02-13T20:55:19.000Z</time></trkpt>
        <trkpt lat="29.3165009" lon="105.1933221"><ele>414.79</ele><time>2026-02-13T20:55:33.000Z</time></trkpt>
        <trkpt lat="29.3164126" lon="105.1933448"><ele>416.63</ele><time>2026-02-13T20:55:43.000Z</time></trkpt>
        <trkpt lat="29.3163149" lon="105.1933668"><ele>418.25</ele><time>2026-02-13T20:55:55.000Z</time></trkpt>
        <trkpt lat="29.316223" lon="105.1934113"><ele>420.95</ele><time>2026-02-13T20:56:09.000Z</time></trkpt>
        <trkpt lat="29.3161353" lon="105.1933804"><ele>423.42</ele><time>2026-02-13T20:56:21.000Z</time></trkpt>
        <trkpt lat="29.3160408" lon="105.1933772"><ele>425.49</ele><time>2026-02-13T20:56:31.000Z</time></trkpt>
        <trkpt lat="29.3159361" lon="105.1933478"><ele>427.39</ele><time>2026-02-13T20:56:39.000Z</time></trkpt>
        <trkpt lat="29.315926" lon="105.1932573"><ele>429.03</ele><time>2026-02-13T20:56:47.000Z</time></trkpt>
        <trkpt lat="29.3159692" lon="105.1931452"><ele>429.19</ele><time>2026-02-13T20:56:57.000Z</time></trkpt>
        <trkpt lat="29.3160066" lon="105.193031"><ele>429.12</ele><time>2026-02-13T20:57:05.000Z</time></trkpt>
        <trkpt lat="29.3160206" lon="105.1929439"><ele>429.3</ele><time>2026-02-13T20:57:17.000Z</time></trkpt>
        <trkpt lat="29.3159898" lon="105.192852"><ele>428.46</ele><time>2026-02-13T20:57:27.000Z</time></trkpt>
        <trkpt lat="29.3159344" lon="105.1927646"><ele>428.33</ele><time>2026-02-13T20:57:35.000Z</time></trkpt>
        <trkpt lat="29.3158554" lon="105.1926758"><ele>430.09</ele><time>2026-02-13T20:57:43.000Z</time></trkpt>
        <trkpt lat="29.3157672" lon="105.1926067"><ele>430.53</ele><time>2026-02-13T20:57:53.000Z</time></trkpt>
        <trkpt lat="29.3156629" lon="105.1925846"><ele>432.85</ele><time>2026-02-13T20:58:01.000Z</time></trkpt>
        <trkpt lat="29.3155445" lon="105.1925764"><ele>435.16</ele><time>2026-02-13T20:58:09.000Z</time></trkpt>
        <trkpt lat="29.3154329" lon="105.1926022"><ele>437.19</ele><time>2026-02-13T20:58:17.000Z</time></trkpt>
        <trkpt lat="29.3153507" lon="105.1926097"><ele>438.83</ele><time>2026-02-13T20:58:27.000Z</time></trkpt>
        <trkpt lat="29.3152612" lon="105.1926076"><ele>441</ele><time>2026-02-13T20:58:37.000Z</time></trkpt>
        <trkpt lat="29.3151594" lon="105.192602"><ele>443.41</ele><time>2026-02-13T20:58:47.000Z</time></trkpt>
        <trkpt lat="29.3150879" lon="105.1926596"><ele>445.43</ele><time>2026-02-13T20:58:57.000Z</time></trkpt>
        <trkpt lat="29.3150495" lon="105.1927657"><ele>447.64</ele><time>2026-02-13T20:59:15.000Z</time></trkpt>
        <trkpt lat="29.3150555" lon="105.1928847"><ele>449.62</ele><time>2026-02-13T20:59:23.000Z</time></trkpt>
        <trkpt lat="29.3151077" lon="105.1930071"><ele>450.49</ele><time>2026-02-13T20:59:33.000Z</time></trkpt>
        <trkpt lat="29.3151475" lon="105.1931245"><ele>451.84</ele><time>2026-02-13T20:59:41.000Z</time></trkpt>
        <trkpt lat="29.3151512" lon="105.1932344"><ele>453.25</ele><time>2026-02-13T20:59:49.000Z</time></trkpt>
        <trkpt lat="29.3151467" lon="105.1933507"><ele>453.6</ele><time>2026-02-13T20:59:57.000Z</time></trkpt>
        <trkpt lat="29.3151724" lon="105.1934704"><ele>453.61</ele><time>2026-02-13T21:00:05.000Z</time></trkpt>
        <trkpt lat="29.3152168" lon="105.1935906"><ele>453.51</ele><time>2026-02-13T21:00:13.000Z</time></trkpt>
        <trkpt lat="29.3152673" lon="105.1937133"><ele>453.28</ele><time>2026-02-13T21:00:21.000Z</time></trkpt>
        <trkpt lat="29.3153162" lon="105.1938337"><ele>452.87</ele><time>2026-02-13T21:00:29.000Z</time></trkpt>
        <trkpt lat="29.3153399" lon="105.1939572"><ele>452.37</ele><time>2026-02-13T21:00:37.000Z</time></trkpt>
        <trkpt lat="29.3153249" lon="105.1940673"><ele>451.92</ele><time>2026-02-13T21:00:43.000Z</time></trkpt>
        <trkpt lat="29.3152756" lon="105.1941844"><ele>451.93</ele><time>2026-02-13T21:00:51.000Z</time></trkpt>
        <trkpt lat="29.3151966" lon="105.1942805"><ele>452.18</ele><time>2026-02-13T21:00:59.000Z</time></trkpt>
        <trkpt lat="29.3151118" lon="105.1943668"><ele>452.92</ele><time>2026-02-13T21:01:07.000Z</time></trkpt>
        <trkpt lat="29.3150139" lon="105.1944336"><ele>454.02</ele><time>2026-02-13T21:01:15.000Z</time></trkpt>
        <trkpt lat="29.3149208" lon="105.1944995"><ele>455.76</ele><time>2026-02-13T21:01:23.000Z</time></trkpt>
        <trkpt lat="29.3148503" lon="105.1945814"><ele>456.99</ele><time>2026-02-13T21:01:31.000Z</time></trkpt>
        <trkpt lat="29.3148985" lon="105.1946693"><ele>457.93</ele><time>2026-02-13T21:01:41.000Z</time></trkpt>
        <trkpt lat="29.3149981" lon="105.1947458"><ele>459.43</ele><time>2026-02-13T21:01:49.000Z</time></trkpt>
        <trkpt lat="29.3150882" lon="105.1948167"><ele>460.84</ele><time>2026-02-13T21:01:55.000Z</time></trkpt>
        <trkpt lat="29.3151606" lon="105.1949148"><ele>462.08</ele><time>2026-02-13T21:02:03.000Z</time></trkpt>
        <trkpt lat="29.3152068" lon="105.1950366"><ele>462.25</ele><time>2026-02-13T21:02:11.000Z</time></trkpt>
        <trkpt lat="29.3152356" lon="105.1951651"><ele>462.17</ele><time>2026-02-13T21:02:19.000Z</time></trkpt>
        <trkpt lat="29.3152581" lon="105.1952991"><ele>462</ele><time>2026-02-13T21:02:27.000Z</time></trkpt>
        <trkpt lat="29.3152851" lon="105.1954129"><ele>461.31</ele><time>2026-02-13T21:02:33.000Z</time></trkpt>
        <trkpt lat="29.3153137" lon="105.1955374"><ele>460.72</ele><time>2026-02-13T21:02:41.000Z</time></trkpt>
        <trkpt lat="29.3153417" lon="105.1956634"><ele>459.96</ele><time>2026-02-13T21:02:49.000Z</time></trkpt>
        <trkpt lat="29.3153752" lon="105.1957849"><ele>459.17</ele><time>2026-02-13T21:02:57.000Z</time></trkpt>
        <trkpt lat="29.3153984" lon="105.1958944"><ele>458.4</ele><time>2026-02-13T21:03:05.000Z</time></trkpt>
        <trkpt lat="29.3154258" lon="105.196004"><ele>457.72</ele><time>2026-02-13T21:03:15.000Z</time></trkpt>
        <trkpt lat="29.3154448" lon="105.1961178"><ele>457.36</ele><time>2026-02-13T21:03:25.000Z</time></trkpt>
        <trkpt lat="29.3154454" lon="105.1962237"><ele>457.86</ele><time>2026-02-13T21:03:33.000Z</time></trkpt>
        <trkpt lat="29.3154437" lon="105.1963287"><ele>458.54</ele><time>2026-02-13T21:03:41.000Z</time></trkpt>
        <trkpt lat="29.3154419" lon="105.1964396"><ele>459.38</ele><time>2026-02-13T21:03:49.000Z</time></trkpt>
        <trkpt lat="29.3154484" lon="105.1965533"><ele>460.32</ele><time>2026-02-13T21:03:57.000Z</time></trkpt>
        <trkpt lat="29.315474" lon="105.1966624"><ele>461.27</ele><time>2026-02-13T21:04:05.000Z</time></trkpt>
        <trkpt lat="29.3155201" lon="105.1967644"><ele>462.2</ele><time>2026-02-13T21:04:13.000Z</time></trkpt>
        <trkpt lat="29.3155559" lon="105.1968684"><ele>462.8</ele><time>2026-02-13T21:04:21.000Z</time></trkpt>
        <trkpt lat="29.3155664" lon="105.1969841"><ele>463.54</ele><time>2026-02-13T21:04:29.000Z</time></trkpt>
        <trkpt lat="29.3155479" lon="105.1971061"><ele>464.23</ele><time>2026-02-13T21:04:37.000Z</time></trkpt>
        <trkpt lat="29.3155248" lon="105.1972301"><ele>464.84</ele><time>2026-02-13T21:04:45.000Z</time></trkpt>
        <trkpt lat="29.3155144" lon="105.197358"><ele>464.89</ele><time>2026-02-13T21:04:53.000Z</time></trkpt>
        <trkpt lat="29.315512" lon="105.197481"><ele>464.88</ele><time>2026-02-13T21:05:01.000Z</time></trkpt>
        <trkpt lat="29.3155158" lon="105.1976053"><ele>465.26</ele><time>2026-02-13T21:05:09.000Z</time></trkpt>
        <trkpt lat="29.3155244" lon="105.1977222"><ele>465.63</ele><time>2026-02-13T21:05:17.000Z</time></trkpt>
        <trkpt lat="29.3154989" lon="105.197822"><ele>466.29</ele><time>2026-02-13T21:05:25.000Z</time></trkpt>
        <trkpt lat="29.3154952" lon="105.197924"><ele>467.25</ele><time>2026-02-13T21:05:35.000Z</time></trkpt>
        <trkpt lat="29.3154882" lon="105.1980434"><ele>467.53</ele><time>2026-02-13T21:05:43.000Z</time></trkpt>
        <trkpt lat="29.3154915" lon="105.1981715"><ele>467.39</ele><time>2026-02-13T21:05:51.000Z</time></trkpt>
        <trkpt lat="29.3155031" lon="105.1982972"><ele>467.33</ele><time>2026-02-13T21:05:59.000Z</time></trkpt>
        <trkpt lat="29.3155104" lon="105.198418"><ele>467.41</ele><time>2026-02-13T21:06:07.000Z</time></trkpt>
        <trkpt lat="29.3155292" lon="105.1985409"><ele>467.53</ele><time>2026-02-13T21:06:15.000Z</time></trkpt>
        <trkpt lat="29.3155552" lon="105.1986456"><ele>467.16</ele><time>2026-02-13T21:06:21.000Z</time></trkpt>
        <trkpt lat="29.3155974" lon="105.1987601"><ele>466.57</ele><time>2026-02-13T21:06:29.000Z</time></trkpt>
        <trkpt lat="29.3156373" lon="105.1988844"><ele>465.93</ele><time>2026-02-13T21:06:37.000Z</time></trkpt>
        <trkpt lat="29.3156713" lon="105.1990077"><ele>465.44</ele><time>2026-02-13T21:06:45.000Z</time></trkpt>
        <trkpt lat="29.3156724" lon="105.1991285"><ele>465.24</ele><time>2026-02-13T21:06:53.000Z</time></trkpt>
        <trkpt lat="29.3156149" lon="105.1992319"><ele>465.32</ele><time>2026-02-13T21:07:01.000Z</time></trkpt>
        <trkpt lat="29.315542" lon="105.1993081"><ele>465.96</ele><time>2026-02-13T21:07:09.000Z</time></trkpt>
        <trkpt lat="29.315584" lon="105.1992694"><ele>466.94</ele><time>2026-02-13T21:07:23.000Z</time></trkpt>
        <trkpt lat="29.31561" lon="105.1993215"><ele>466.39</ele><time>2026-02-13T21:07:31.000Z</time></trkpt>
        <trkpt lat="29.3156227" lon="105.1994286"><ele>465.04</ele><time>2026-02-13T21:07:39.000Z</time></trkpt>
        <trkpt lat="29.3156376" lon="105.1995406"><ele>463.55</ele><time>2026-02-13T21:07:45.000Z</time></trkpt>
        <trkpt lat="29.3156591" lon="105.1996515"><ele>461.92</ele><time>2026-02-13T21:07:51.000Z</time></trkpt>
        <trkpt lat="29.315689" lon="105.1997595"><ele>460.87</ele><time>2026-02-13T21:07:57.000Z</time></trkpt>
        <trkpt lat="29.3157442" lon="105.1998489"><ele>460.08</ele><time>2026-02-13T21:08:03.000Z</time></trkpt>
        <trkpt lat="29.3158295" lon="105.1999285"><ele>459.29</ele><time>2026-02-13T21:08:11.000Z</time></trkpt>
        <trkpt lat="29.3159334" lon="105.1999917"><ele>458.14</ele><time>2026-02-13T21:08:19.000Z</time></trkpt>
        <trkpt lat="29.3160405" lon="105.2000485"><ele>457.09</ele><time>2026-02-13T21:08:27.000Z</time></trkpt>
        <trkpt lat="29.3161543" lon="105.2000851"><ele>456.15</ele><time>2026-02-13T21:08:35.000Z</time></trkpt>
        <trkpt lat="29.3162724" lon="105.2000977"><ele>455.16</ele><time>2026-02-13T21:08:43.000Z</time></trkpt>
        <trkpt lat="29.3163869" lon="105.200105"><ele>454.66</ele><time>2026-02-13T21:08:51.000Z</time></trkpt>
        <trkpt lat="29.3164982" lon="105.2001486"><ele>453.7</ele><time>2026-02-13T21:08:59.000Z</time></trkpt>
        <trkpt lat="29.3165914" lon="105.2002034"><ele>452.18</ele><time>2026-02-13T21:09:05.000Z</time></trkpt>
        <trkpt lat="29.3166628" lon="105.2002779"><ele>451.9</ele><time>2026-02-13T21:09:11.000Z</time></trkpt>
        <trkpt lat="29.3167469" lon="105.2003622"><ele>452</ele><time>2026-02-13T21:09:19.000Z</time></trkpt>
        <trkpt lat="29.3168322" lon="105.2004444"><ele>452.4</ele><time>2026-02-13T21:09:27.000Z</time></trkpt>
        <trkpt lat="29.3169077" lon="105.2005149"><ele>452.26</ele><time>2026-02-13T21:09:33.000Z</time></trkpt>
        <trkpt lat="29.3170004" lon="105.200571"><ele>452.01</ele><time>2026-02-13T21:09:41.000Z</time></trkpt>
        <trkpt lat="29.3171073" lon="105.2006141"><ele>451.69</ele><time>2026-02-13T21:09:49.000Z</time></trkpt>
        <trkpt lat="29.3172147" lon="105.2006197"><ele>451.47</ele><time>2026-02-13T21:09:57.000Z</time></trkpt>
        <trkpt lat="29.3173143" lon="105.2006094"><ele>451.11</ele><time>2026-02-13T21:10:05.000Z</time></trkpt>
        <trkpt lat="29.3174149" lon="105.2006182"><ele>450.68</ele><time>2026-02-13T21:10:13.000Z</time></trkpt>
        <trkpt lat="29.3175191" lon="105.2006505"><ele>450.1</ele><time>2026-02-13T21:10:21.000Z</time></trkpt>
        <trkpt lat="29.3176114" lon="105.2007282"><ele>448.78</ele><time>2026-02-13T21:10:29.000Z</time></trkpt>
        <trkpt lat="29.3176833" lon="105.2008096"><ele>447.34</ele><time>2026-02-13T21:10:35.000Z</time></trkpt>
        <trkpt lat="29.3177429" lon="105.2008949"><ele>446.05</ele><time>2026-02-13T21:10:41.000Z</time></trkpt>
        <trkpt lat="29.3178006" lon="105.2009767"><ele>445.09</ele><time>2026-02-13T21:10:47.000Z</time></trkpt>
        <trkpt lat="29.3178644" lon="105.2010487"><ele>444.69</ele><time>2026-02-13T21:10:53.000Z</time></trkpt>
        <trkpt lat="29.3179575" lon="105.2011191"><ele>444.78</ele><time>2026-02-13T21:11:01.000Z</time></trkpt>
        <trkpt lat="29.3180635" lon="105.2011766"><ele>444.64</ele><time>2026-02-13T21:11:09.000Z</time></trkpt>
        <trkpt lat="29.3181738" lon="105.201226"><ele>444.55</ele><time>2026-02-13T21:11:17.000Z</time></trkpt>
        <trkpt lat="29.3182921" lon="105.2012506"><ele>444.24</ele><time>2026-02-13T21:11:25.000Z</time></trkpt>
        <trkpt lat="29.3184092" lon="105.2012628"><ele>443.74</ele><time>2026-02-13T21:11:33.000Z</time></trkpt>
        <trkpt lat="29.3185087" lon="105.2012895"><ele>442.75</ele><time>2026-02-13T21:11:39.000Z</time></trkpt>
        <trkpt lat="29.3185904" lon="105.2013451"><ele>442.03</ele><time>2026-02-13T21:11:45.000Z</time></trkpt>
        <trkpt lat="29.3186449" lon="105.2014281"><ele>441.64</ele><time>2026-02-13T21:11:51.000Z</time></trkpt>
        <trkpt lat="29.3186632" lon="105.2015366"><ele>441.25</ele><time>2026-02-13T21:11:57.000Z</time></trkpt>
        <trkpt lat="29.3186524" lon="105.2016462"><ele>440.53</ele><time>2026-02-13T21:12:03.000Z</time></trkpt>
        <trkpt lat="29.3186032" lon="105.2017682"><ele>439.93</ele><time>2026-02-13T21:12:11.000Z</time></trkpt>
        <trkpt lat="29.3185202" lon="105.2018708"><ele>439.16</ele><time>2026-02-13T21:12:19.000Z</time></trkpt>
        <trkpt lat="29.3184452" lon="105.2019696"><ele>438.24</ele><time>2026-02-13T21:12:27.000Z</time></trkpt>
        <trkpt lat="29.3183985" lon="105.2020784"><ele>437.6</ele><time>2026-02-13T21:12:35.000Z</time></trkpt>
        <trkpt lat="29.318357" lon="105.2021968"><ele>436.94</ele><time>2026-02-13T21:12:43.000Z</time></trkpt>
        <trkpt lat="29.3182974" lon="105.2023058"><ele>436.34</ele><time>2026-02-13T21:12:51.000Z</time></trkpt>
        <trkpt lat="29.3182024" lon="105.2023776"><ele>435.54</ele><time>2026-02-13T21:12:59.000Z</time></trkpt>
        <trkpt lat="29.318095" lon="105.2024314"><ele>434.5</ele><time>2026-02-13T21:13:07.000Z</time></trkpt>
        <trkpt lat="29.3179963" lon="105.2025041"><ele>433.49</ele><time>2026-02-13T21:13:15.000Z</time></trkpt>
        <trkpt lat="29.317931" lon="105.2026063"><ele>432.81</ele><time>2026-02-13T21:13:23.000Z</time></trkpt>
        <trkpt lat="29.3178968" lon="105.2027206"><ele>432.76</ele><time>2026-02-13T21:13:31.000Z</time></trkpt>
        <trkpt lat="29.3178697" lon="105.2028409"><ele>433.04</ele><time>2026-02-13T21:13:39.000Z</time></trkpt>
        <trkpt lat="29.317839" lon="105.2029646"><ele>433.06</ele><time>2026-02-13T21:13:47.000Z</time></trkpt>
        <trkpt lat="29.3178146" lon="105.2030883"><ele>433.8</ele><time>2026-02-13T21:13:55.000Z</time></trkpt>
        <trkpt lat="29.3177938" lon="105.2032085"><ele>434.44</ele><time>2026-02-13T21:14:03.000Z</time></trkpt>
        <trkpt lat="29.3177664" lon="105.2033209"><ele>435.23</ele><time>2026-02-13T21:14:13.000Z</time></trkpt>
        <trkpt lat="29.317764" lon="105.2034525"><ele>435.22</ele><time>2026-02-13T21:14:21.000Z</time></trkpt>
        <trkpt lat="29.3177744" lon="105.2035702"><ele>434.76</ele><time>2026-02-13T21:14:27.000Z</time></trkpt>
        <trkpt lat="29.3177849" lon="105.2036883"><ele>434.13</ele><time>2026-02-13T21:14:33.000Z</time></trkpt>
        <trkpt lat="29.3178172" lon="105.2038285"><ele>433.49</ele><time>2026-02-13T21:14:39.000Z</time></trkpt>
        <trkpt lat="29.3178944" lon="105.2039259"><ele>431.66</ele><time>2026-02-13T21:14:43.000Z</time></trkpt>
        <trkpt lat="29.3179904" lon="105.2039654"><ele>430.34</ele><time>2026-02-13T21:14:47.000Z</time></trkpt>
        <trkpt lat="29.3180923" lon="105.2039697"><ele>429.62</ele><time>2026-02-13T21:14:53.000Z</time></trkpt>
        <trkpt lat="29.3181978" lon="105.2039739"><ele>428.48</ele><time>2026-02-13T21:14:59.000Z</time></trkpt>
        <trkpt lat="29.318318" lon="105.2039557"><ele>425.88</ele><time>2026-02-13T21:15:03.000Z</time></trkpt>
        <trkpt lat="29.3184359" lon="105.2039441"><ele>423.91</ele><time>2026-02-13T21:15:09.000Z</time></trkpt>
        <trkpt lat="29.3185414" lon="105.2039644"><ele>421.97</ele><time>2026-02-13T21:15:15.000Z</time></trkpt>
        <trkpt lat="29.3185945" lon="105.2040494"><ele>419.74</ele><time>2026-02-13T21:15:25.000Z</time></trkpt>
        <trkpt lat="29.3186187" lon="105.2041636"><ele>417.28</ele><time>2026-02-13T21:15:33.000Z</time></trkpt>
        <trkpt lat="29.3186525" lon="105.2042767"><ele>414.85</ele><time>2026-02-13T21:15:41.000Z</time></trkpt>
        <trkpt lat="29.3186989" lon="105.2043927"><ele>413.33</ele><time>2026-02-13T21:15:49.000Z</time></trkpt>
        <trkpt lat="29.3187584" lon="105.2044927"><ele>413.08</ele><time>2026-02-13T21:15:57.000Z</time></trkpt>
        <trkpt lat="29.3188154" lon="105.2046047"><ele>412.99</ele><time>2026-02-13T21:16:05.000Z</time></trkpt>
        <trkpt lat="29.3188536" lon="105.2047268"><ele>413.21</ele><time>2026-02-13T21:16:13.000Z</time></trkpt>
        <trkpt lat="29.3188878" lon="105.2048431"><ele>414.05</ele><time>2026-02-13T21:16:21.000Z</time></trkpt>
        <trkpt lat="29.3189116" lon="105.2049606"><ele>414.98</ele><time>2026-02-13T21:16:29.000Z</time></trkpt>
        <trkpt lat="29.3188979" lon="105.2050764"><ele>416.26</ele><time>2026-02-13T21:16:37.000Z</time></trkpt>
        <trkpt lat="29.3188912" lon="105.2051928"><ele>417.24</ele><time>2026-02-13T21:16:45.000Z</time></trkpt>
        <trkpt lat="29.3188237" lon="105.2052603"><ele>418.4</ele><time>2026-02-13T21:16:53.000Z</time></trkpt>
        <trkpt lat="29.318726" lon="105.2052925"><ele>420.02</ele><time>2026-02-13T21:17:01.000Z</time></trkpt>
        <trkpt lat="29.3186251" lon="105.2053306"><ele>421.71</ele><time>2026-02-13T21:17:09.000Z</time></trkpt>
        <trkpt lat="29.3185367" lon="105.2053904"><ele>423.07</ele><time>2026-02-13T21:17:17.000Z</time></trkpt>
        <trkpt lat="29.3184688" lon="105.2054844"><ele>423.66</ele><time>2026-02-13T21:17:25.000Z</time></trkpt>
        <trkpt lat="29.318444" lon="105.2056096"><ele>424.05</ele><time>2026-02-13T21:17:33.000Z</time></trkpt>
        <trkpt lat="29.318459" lon="105.2057428"><ele>424.37</ele><time>2026-02-13T21:17:41.000Z</time></trkpt>
        <trkpt lat="29.3184673" lon="105.2058645"><ele>423.75</ele><time>2026-02-13T21:17:49.000Z</time></trkpt>
        <trkpt lat="29.3184642" lon="105.2060133"><ele>424.22</ele><time>2026-02-13T21:17:57.000Z</time></trkpt>
        <trkpt lat="29.3184611" lon="105.2061434"><ele>423.79</ele><time>2026-02-13T21:18:01.000Z</time></trkpt>
        <trkpt lat="29.3184879" lon="105.206266"><ele>422.12</ele><time>2026-02-13T21:18:07.000Z</time></trkpt>
        <trkpt lat="29.3185069" lon="105.2063817"><ele>421.92</ele><time>2026-02-13T21:18:15.000Z</time></trkpt>
        <trkpt lat="29.3185064" lon="105.2065062"><ele>421.54</ele><time>2026-02-13T21:18:23.000Z</time></trkpt>
        <trkpt lat="29.3184846" lon="105.2066335"><ele>421.89</ele><time>2026-02-13T21:18:31.000Z</time></trkpt>
        <trkpt lat="29.3184912" lon="105.2067527"><ele>421.85</ele><time>2026-02-13T21:18:39.000Z</time></trkpt>
        <trkpt lat="29.3185337" lon="105.2068591"><ele>421.75</ele><time>2026-02-13T21:18:47.000Z</time></trkpt>
        <trkpt lat="29.3185958" lon="105.2069633"><ele>421.06</ele><time>2026-02-13T21:18:55.000Z</time></trkpt>
        <trkpt lat="29.3186761" lon="105.2070529"><ele>419.85</ele><time>2026-02-13T21:19:03.000Z</time></trkpt>
        <trkpt lat="29.3187836" lon="105.2070996"><ele>418.26</ele><time>2026-02-13T21:19:11.000Z</time></trkpt>
        <trkpt lat="29.318883" lon="105.2071182"><ele>417.26</ele><time>2026-02-13T21:19:19.000Z</time></trkpt>
        <trkpt lat="29.3189129" lon="105.207118"><ele>416.27</ele><time>2026-02-13T21:19:21.000Z</time></trkpt>
        <trkpt lat="29.3189897" lon="105.2071256"><ele>415.7</ele><time>2026-02-13T21:19:31.000Z</time></trkpt>
        <trkpt lat="29.3190799" lon="105.2071546"><ele>414.03</ele><time>2026-02-13T21:19:39.000Z</time></trkpt>
        <trkpt lat="29.3190782" lon="105.2072418"><ele>412.72</ele><time>2026-02-13T21:19:45.000Z</time></trkpt>
        <trkpt lat="29.3190532" lon="105.2073526"><ele>412.34</ele><time>2026-02-13T21:19:53.000Z</time></trkpt>
        <trkpt lat="29.3190215" lon="105.2074692"><ele>412.55</ele><time>2026-02-13T21:20:01.000Z</time></trkpt>
        <trkpt lat="29.3189675" lon="105.2075857"><ele>412.29</ele><time>2026-02-13T21:20:09.000Z</time></trkpt>
        <trkpt lat="29.3189224" lon="105.2077058"><ele>412.32</ele><time>2026-02-13T21:20:17.000Z</time></trkpt>
        <trkpt lat="29.3189228" lon="105.2078253"><ele>412.56</ele><time>2026-02-13T21:20:25.000Z</time></trkpt>
        <trkpt lat="29.3189279" lon="105.2078559"><ele>413.21</ele><time>2026-02-13T21:20:27.000Z</time></trkpt>
        <trkpt lat="29.3189158" lon="105.2079379"><ele>413.61</ele><time>2026-02-13T21:20:39.000Z</time></trkpt>
        <trkpt lat="29.3188727" lon="105.2080364"><ele>414.01</ele><time>2026-02-13T21:20:47.000Z</time></trkpt>
        <trkpt lat="29.3188174" lon="105.2081466"><ele>414.5</ele><time>2026-02-13T21:20:55.000Z</time></trkpt>
        <trkpt lat="29.3187564" lon="105.2082513"><ele>415.4</ele><time>2026-02-13T21:21:03.000Z</time></trkpt>
        <trkpt lat="29.3187303" lon="105.2083648"><ele>416.75</ele><time>2026-02-13T21:21:11.000Z</time></trkpt>
        <trkpt lat="29.318708" lon="105.2084794"><ele>417.48</ele><time>2026-02-13T21:21:19.000Z</time></trkpt>
        <trkpt lat="29.3186818" lon="105.2085935"><ele>417.09</ele><time>2026-02-13T21:21:27.000Z</time></trkpt>
        <trkpt lat="29.3186797" lon="105.2087034"><ele>416.78</ele><time>2026-02-13T21:21:35.000Z</time></trkpt>
        <trkpt lat="29.3187031" lon="105.2088101"><ele>416.71</ele><time>2026-02-13T21:21:43.000Z</time></trkpt>
        <trkpt lat="29.318743" lon="105.2089111"><ele>416.77</ele><time>2026-02-13T21:21:51.000Z</time></trkpt>
        <trkpt lat="29.318773" lon="105.2090237"><ele>416.94</ele><time>2026-02-13T21:22:01.000Z</time></trkpt>
        <trkpt lat="29.3187716" lon="105.209135"><ele>417.78</ele><time>2026-02-13T21:22:09.000Z</time></trkpt>
        <trkpt lat="29.3187589" lon="105.2092498"><ele>418.33</ele><time>2026-02-13T21:22:17.000Z</time></trkpt>
        <trkpt lat="29.3187657" lon="105.2093686"><ele>418.15</ele><time>2026-02-13T21:22:25.000Z</time></trkpt>
        <trkpt lat="29.3187975" lon="105.2094772"><ele>417.89</ele><time>2026-02-13T21:22:33.000Z</time></trkpt>
        <trkpt lat="29.3188375" lon="105.2095824"><ele>418.52</ele><time>2026-02-13T21:22:41.000Z</time></trkpt>
        <trkpt lat="29.3188614" lon="105.2097026"><ele>419.81</ele><time>2026-02-13T21:22:49.000Z</time></trkpt>
        <trkpt lat="29.3188618" lon="105.2098309"><ele>420.66</ele><time>2026-02-13T21:22:57.000Z</time></trkpt>
        <trkpt lat="29.3188645" lon="105.2099624"><ele>421.28</ele><time>2026-02-13T21:23:05.000Z</time></trkpt>
        <trkpt lat="29.318896" lon="105.2100736"><ele>420.05</ele><time>2026-02-13T21:23:11.000Z</time></trkpt>
        <trkpt lat="29.318913" lon="105.2101092"><ele>419.72</ele><time>2026-02-13T21:23:13.000Z</time></trkpt>
        <trkpt lat="29.3189678" lon="105.2101678"><ele>419.36</ele><time>2026-02-13T21:23:25.000Z</time></trkpt>
        <trkpt lat="29.3190361" lon="105.2102325"><ele>419.02</ele><time>2026-02-13T21:23:31.000Z</time></trkpt>
        <trkpt lat="29.3191044" lon="105.2103111"><ele>419</ele><time>2026-02-13T21:23:39.000Z</time></trkpt>
        <trkpt lat="29.3192" lon="105.2103544"><ele>419.16</ele><time>2026-02-13T21:23:47.000Z</time></trkpt>
        <trkpt lat="29.3192997" lon="105.2104104"><ele>419</ele><time>2026-02-13T21:23:55.000Z</time></trkpt>
        <trkpt lat="29.3193715" lon="105.2105053"><ele>418.86</ele><time>2026-02-13T21:24:03.000Z</time></trkpt>
        <trkpt lat="29.3194305" lon="105.2105947"><ele>418.02</ele><time>2026-02-13T21:24:09.000Z</time></trkpt>
        <trkpt lat="29.3194739" lon="105.2106943"><ele>417.9</ele><time>2026-02-13T21:24:15.000Z</time></trkpt>
        <trkpt lat="29.3195018" lon="105.2108151"><ele>417.84</ele><time>2026-02-13T21:24:23.000Z</time></trkpt>
        <trkpt lat="29.319475" lon="105.2109283"><ele>417.82</ele><time>2026-02-13T21:24:31.000Z</time></trkpt>
        <trkpt lat="29.3194223" lon="105.2110438"><ele>417.79</ele><time>2026-02-13T21:24:39.000Z</time></trkpt>
        <trkpt lat="29.3193585" lon="105.2111478"><ele>417.53</ele><time>2026-02-13T21:24:47.000Z</time></trkpt>
        <trkpt lat="29.3192853" lon="105.2112536"><ele>417.61</ele><time>2026-02-13T21:24:55.000Z</time></trkpt>
        <trkpt lat="29.3192226" lon="105.2113663"><ele>417.75</ele><time>2026-02-13T21:25:03.000Z</time></trkpt>
        <trkpt lat="29.3191675" lon="105.2114742"><ele>418.41</ele><time>2026-02-13T21:25:11.000Z</time></trkpt>
        <trkpt lat="29.3191317" lon="105.2115883"><ele>419.32</ele><time>2026-02-13T21:25:19.000Z</time></trkpt>
        <trkpt lat="29.3190953" lon="105.2117131"><ele>420.46</ele><time>2026-02-13T21:25:27.000Z</time></trkpt>
        <trkpt lat="29.3190749" lon="105.2118442"><ele>420.81</ele><time>2026-02-13T21:25:35.000Z</time></trkpt>
        <trkpt lat="29.3190768" lon="105.2119658"><ele>421.5</ele><time>2026-02-13T21:25:43.000Z</time></trkpt>
        <trkpt lat="29.3190859" lon="105.2120892"><ele>421.69</ele><time>2026-02-13T21:25:51.000Z</time></trkpt>
        <trkpt lat="29.3190872" lon="105.2122053"><ele>421.28</ele><time>2026-02-13T21:25:59.000Z</time></trkpt>
        <trkpt lat="29.3190897" lon="105.212319"><ele>421.3</ele><time>2026-02-13T21:26:07.000Z</time></trkpt>
        <trkpt lat="29.3190794" lon="105.2124293"><ele>421.15</ele><time>2026-02-13T21:26:15.000Z</time></trkpt>
        <trkpt lat="29.3190543" lon="105.2125328"><ele>421.56</ele><time>2026-02-13T21:26:21.000Z</time></trkpt>
        <trkpt lat="29.3190387" lon="105.2126426"><ele>421.42</ele><time>2026-02-13T21:26:27.000Z</time></trkpt>
        <trkpt lat="29.3190202" lon="105.2127573"><ele>420.69</ele><time>2026-02-13T21:26:35.000Z</time></trkpt>
        <trkpt lat="29.318993" lon="105.2128769"><ele>420.74</ele><time>2026-02-13T21:26:43.000Z</time></trkpt>
        <trkpt lat="29.3189479" lon="105.2130002"><ele>420.76</ele><time>2026-02-13T21:26:51.000Z</time></trkpt>
        <trkpt lat="29.3188512" lon="105.2130741"><ele>420.15</ele><time>2026-02-13T21:26:59.000Z</time></trkpt>
        <trkpt lat="29.3187721" lon="105.2131633"><ele>418.97</ele><time>2026-02-13T21:27:07.000Z</time></trkpt>
        <trkpt lat="29.3187335" lon="105.2132628"><ele>418.14</ele><time>2026-02-13T21:27:15.000Z</time></trkpt>
        <trkpt lat="29.3187424" lon="105.2133705"><ele>417.48</ele><time>2026-02-13T21:27:23.000Z</time></trkpt>
        <trkpt lat="29.3187764" lon="105.2134878"><ele>416.95</ele><time>2026-02-13T21:27:31.000Z</time></trkpt>
        <trkpt lat="29.3187961" lon="105.2136089"><ele>416.69</ele><time>2026-02-13T21:27:39.000Z</time></trkpt>
        <trkpt lat="29.3187986" lon="105.2137271"><ele>416.39</ele><time>2026-02-13T21:27:47.000Z</time></trkpt>
        <trkpt lat="29.3187838" lon="105.2138374"><ele>415.73</ele><time>2026-02-13T21:27:55.000Z</time></trkpt>
        <trkpt lat="29.3187929" lon="105.2139481"><ele>415.67</ele><time>2026-02-13T21:28:05.000Z</time></trkpt>
        <trkpt lat="29.3187878" lon="105.2140275"><ele>416.03</ele><time>2026-02-13T21:28:15.000Z</time></trkpt>
        <trkpt lat="29.3188576" lon="105.2140196"><ele>416.39</ele><time>2026-02-13T21:28:39.000Z</time></trkpt>
        <trkpt lat="29.3189691" lon="105.2139887"><ele>416.33</ele><time>2026-02-13T21:28:47.000Z</time></trkpt>
        <trkpt lat="29.3190737" lon="105.2140091"><ele>416.71</ele><time>2026-02-13T21:28:55.000Z</time></trkpt>
        <trkpt lat="29.3191613" lon="105.214057"><ele>417.2</ele><time>2026-02-13T21:29:03.000Z</time></trkpt>
        <trkpt lat="29.3192424" lon="105.214139"><ele>417.75</ele><time>2026-02-13T21:29:11.000Z</time></trkpt>
        <trkpt lat="29.319282" lon="105.2142621"><ele>417.61</ele><time>2026-02-13T21:29:17.000Z</time></trkpt>
        <trkpt lat="29.3193324" lon="105.2143933"><ele>416.66</ele><time>2026-02-13T21:29:23.000Z</time></trkpt>
        <trkpt lat="29.319316" lon="105.2145194"><ele>414.74</ele><time>2026-02-13T21:29:31.000Z</time></trkpt>
        <trkpt lat="29.3193028" lon="105.2145671"><ele>413.73</ele><time>2026-02-13T21:29:35.000Z</time></trkpt>
        <trkpt lat="29.3193239" lon="105.2144736"><ele>413.29</ele><time>2026-02-13T21:29:57.000Z</time></trkpt>
        <trkpt lat="29.3194052" lon="105.214395"><ele>411.47</ele><time>2026-02-13T21:30:07.000Z</time></trkpt>
        <trkpt lat="29.3195044" lon="105.2143809"><ele>410.41</ele><time>2026-02-13T21:30:15.000Z</time></trkpt>
        <trkpt lat="29.3196115" lon="105.2143965"><ele>409.42</ele><time>2026-02-13T21:30:23.000Z</time></trkpt>
        <trkpt lat="29.3197286" lon="105.214426"><ele>410.49</ele><time>2026-02-13T21:30:31.000Z</time></trkpt>
        <trkpt lat="29.3198459" lon="105.214433"><ele>411.28</ele><time>2026-02-13T21:30:39.000Z</time></trkpt>
        <trkpt lat="29.3199098" lon="105.2144451"><ele>412.05</ele><time>2026-02-13T21:30:45.000Z</time></trkpt>
        <trkpt lat="29.3198533" lon="105.2144829"><ele>413.09</ele><time>2026-02-13T21:31:11.000Z</time></trkpt>
        <trkpt lat="29.319813" lon="105.214501"><ele>413.84</ele><time>2026-02-13T21:31:15.000Z</time></trkpt>
        <trkpt lat="29.319864" lon="105.2144686"><ele>414.36</ele><time>2026-02-13T21:31:25.000Z</time></trkpt>
        <trkpt lat="29.319933" lon="105.2144505"><ele>414.58</ele><time>2026-02-13T21:31:33.000Z</time></trkpt>
        <trkpt lat="29.3198886" lon="105.2144713"><ele>414.21</ele><time>2026-02-13T21:31:45.000Z</time></trkpt>
        <trkpt lat="29.3198001" lon="105.2144942"><ele>414.6</ele><time>2026-02-13T21:31:53.000Z</time></trkpt>
        <trkpt lat="29.319695" lon="105.2144919"><ele>415.43</ele><time>2026-02-13T21:32:01.000Z</time></trkpt>
        <trkpt lat="29.3195898" lon="105.2144737"><ele>415.5</ele><time>2026-02-13T21:32:09.000Z</time></trkpt>
        <trkpt lat="29.3194795" lon="105.2144406"><ele>415.91</ele><time>2026-02-13T21:32:17.000Z</time></trkpt>
        <trkpt lat="29.3193672" lon="105.2144145"><ele>417.01</ele><time>2026-02-13T21:32:25.000Z</time></trkpt>
        <trkpt lat="29.3193047" lon="105.2144814"><ele>418.12</ele><time>2026-02-13T21:32:33.000Z</time></trkpt>
        <trkpt lat="29.3193317" lon="105.214573"><ele>417.13</ele><time>2026-02-13T21:32:41.000Z</time></trkpt>
        <trkpt lat="29.319407" lon="105.2146803"><ele>415.63</ele><time>2026-02-13T21:32:49.000Z</time></trkpt>
        <trkpt lat="29.3194663" lon="105.2148003"><ele>413.53</ele><time>2026-02-13T21:32:55.000Z</time></trkpt>
        <trkpt lat="29.319511" lon="105.2149213"><ele>411.73</ele><time>2026-02-13T21:33:03.000Z</time></trkpt>
        <trkpt lat="29.3195562" lon="105.2150437"><ele>409.27</ele><time>2026-02-13T21:33:11.000Z</time></trkpt>
        <trkpt lat="29.3196039" lon="105.2151656"><ele>406.51</ele><time>2026-02-13T21:33:19.000Z</time></trkpt>
        <trkpt lat="29.3196727" lon="105.2152728"><ele>403.72</ele><time>2026-02-13T21:33:27.000Z</time></trkpt>
        <trkpt lat="29.3197384" lon="105.2153565"><ele>401.73</ele><time>2026-02-13T21:33:33.000Z</time></trkpt>
        <trkpt lat="29.3198" lon="105.2154392"><ele>399.77</ele><time>2026-02-13T21:33:39.000Z</time></trkpt>
        <trkpt lat="29.3198631" lon="105.2155264"><ele>397.97</ele><time>2026-02-13T21:33:45.000Z</time></trkpt>
        <trkpt lat="29.3199425" lon="105.2156251"><ele>396.46</ele><time>2026-02-13T21:33:51.000Z</time></trkpt>
        <trkpt lat="29.3200109" lon="105.2157144"><ele>394.69</ele><time>2026-02-13T21:33:57.000Z</time></trkpt>
        <trkpt lat="29.320087" lon="105.2158069"><ele>393.54</ele><time>2026-02-13T21:34:05.000Z</time></trkpt>
        <trkpt lat="29.320166" lon="105.2159055"><ele>391.98</ele><time>2026-02-13T21:34:13.000Z</time></trkpt>
        <trkpt lat="29.3202309" lon="105.2160126"><ele>390.37</ele><time>2026-02-13T21:34:21.000Z</time></trkpt>
        <trkpt lat="29.3202867" lon="105.2161288"><ele>388.57</ele><time>2026-02-13T21:34:29.000Z</time></trkpt>
        <trkpt lat="29.320333" lon="105.2162518"><ele>386.61</ele><time>2026-02-13T21:34:37.000Z</time></trkpt>
        <trkpt lat="29.3203703" lon="105.2163559"><ele>384.95</ele><time>2026-02-13T21:34:43.000Z</time></trkpt>
        <trkpt lat="29.3204137" lon="105.2164715"><ele>383.38</ele><time>2026-02-13T21:34:51.000Z</time></trkpt>
        <trkpt lat="29.3204768" lon="105.2165539"><ele>381.54</ele><time>2026-02-13T21:34:57.000Z</time></trkpt>
        <trkpt lat="29.3205733" lon="105.216607"><ele>380.07</ele><time>2026-02-13T21:35:05.000Z</time></trkpt>
        <trkpt lat="29.3206883" lon="105.2165903"><ele>378.7</ele><time>2026-02-13T21:35:13.000Z</time></trkpt>
        <trkpt lat="29.3207906" lon="105.2165122"><ele>377.27</ele><time>2026-02-13T21:35:21.000Z</time></trkpt>
        <trkpt lat="29.3208797" lon="105.2164056"><ele>375.75</ele><time>2026-02-13T21:35:29.000Z</time></trkpt>
        <trkpt lat="29.3209492" lon="105.216311"><ele>373.55</ele><time>2026-02-13T21:35:35.000Z</time></trkpt>
        <trkpt lat="29.3210154" lon="105.2162249"><ele>371.62</ele><time>2026-02-13T21:35:41.000Z</time></trkpt>
        <trkpt lat="29.3210764" lon="105.2161446"><ele>370.15</ele><time>2026-02-13T21:35:47.000Z</time></trkpt>
        <trkpt lat="29.3211334" lon="105.2160637"><ele>368.89</ele><time>2026-02-13T21:35:53.000Z</time></trkpt>
        <trkpt lat="29.3211991" lon="105.2159677"><ele>367.95</ele><time>2026-02-13T21:36:01.000Z</time></trkpt>
        <trkpt lat="29.3212619" lon="105.2158703"><ele>366.51</ele><time>2026-02-13T21:36:09.000Z</time></trkpt>
        <trkpt lat="29.3213302" lon="105.2157781"><ele>365</ele><time>2026-02-13T21:36:15.000Z</time></trkpt>
        <trkpt lat="29.3213951" lon="105.2156728"><ele>364.43</ele><time>2026-02-13T21:36:23.000Z</time></trkpt>
        <trkpt lat="29.3214464" lon="105.2155626"><ele>363.72</ele><time>2026-02-13T21:36:31.000Z</time></trkpt>
        <trkpt lat="29.3214732" lon="105.2154455"><ele>363.21</ele><time>2026-02-13T21:36:39.000Z</time></trkpt>
        <trkpt lat="29.3214719" lon="105.2153177"><ele>362.73</ele><time>2026-02-13T21:36:47.000Z</time></trkpt>
        <trkpt lat="29.3214621" lon="105.2151833"><ele>362.31</ele><time>2026-02-13T21:36:55.000Z</time></trkpt>
        <trkpt lat="29.3214564" lon="105.2150679"><ele>362.6</ele><time>2026-02-13T21:37:01.000Z</time></trkpt>
        <trkpt lat="29.321474" lon="105.2149606"><ele>362.99</ele><time>2026-02-13T21:37:07.000Z</time></trkpt>
        <trkpt lat="29.3215108" lon="105.2148647"><ele>363.15</ele><time>2026-02-13T21:37:13.000Z</time></trkpt>
        <trkpt lat="29.3215639" lon="105.2147791"><ele>363.06</ele><time>2026-02-13T21:37:19.000Z</time></trkpt>
        <trkpt lat="29.3216495" lon="105.2147052"><ele>362.96</ele><time>2026-02-13T21:37:27.000Z</time></trkpt>
        <trkpt lat="29.3217303" lon="105.21474"><ele>362.72</ele><time>2026-02-13T21:37:35.000Z</time></trkpt>
        <trkpt lat="29.321807" lon="105.2148238"><ele>362.44</ele><time>2026-02-13T21:37:45.000Z</time></trkpt>
        <trkpt lat="29.3218817" lon="105.2149146"><ele>361.64</ele><time>2026-02-13T21:37:53.000Z</time></trkpt>
        <trkpt lat="29.3219247" lon="105.2149355"><ele>360.13</ele><time>2026-02-13T21:37:57.000Z</time></trkpt>
        <trkpt lat="29.3220016" lon="105.2149377"><ele>359.32</ele><time>2026-02-13T21:38:09.000Z</time></trkpt>
        <trkpt lat="29.3220901" lon="105.214986"><ele>359.01</ele><time>2026-02-13T21:38:19.000Z</time></trkpt>
        <trkpt lat="29.3221747" lon="105.215045"><ele>358.36</ele><time>2026-02-13T21:38:27.000Z</time></trkpt>
        <trkpt lat="29.3221678" lon="105.2149721"><ele>357.16</ele><time>2026-02-13T21:38:39.000Z</time></trkpt>
        <trkpt lat="29.3221511" lon="105.2148565"><ele>356.49</ele><time>2026-02-13T21:38:45.000Z</time></trkpt>
        <trkpt lat="29.3221201" lon="105.2147185"><ele>356.2</ele><time>2026-02-13T21:38:53.000Z</time></trkpt>
        <trkpt lat="29.3221005" lon="105.2145727"><ele>355.04</ele><time>2026-02-13T21:38:59.000Z</time></trkpt>
        <trkpt lat="29.3221288" lon="105.2144429"><ele>353.71</ele><time>2026-02-13T21:39:07.000Z</time></trkpt>
        <trkpt lat="29.3222233" lon="105.2143842"><ele>352.8</ele><time>2026-02-13T21:39:15.000Z</time></trkpt>
        <trkpt lat="29.3223381" lon="105.2143348"><ele>352.22</ele><time>2026-02-13T21:39:23.000Z</time></trkpt>
        <trkpt lat="29.3224425" lon="105.2142931"><ele>351.97</ele><time>2026-02-13T21:39:31.000Z</time></trkpt>
        <trkpt lat="29.3225499" lon="105.2142597"><ele>350.77</ele><time>2026-02-13T21:39:39.000Z</time></trkpt>
        <trkpt lat="29.3226618" lon="105.2142513"><ele>347.81</ele><time>2026-02-13T21:39:45.000Z</time></trkpt>
        <trkpt lat="29.3227974" lon="105.2142906"><ele>344.16</ele><time>2026-02-13T21:39:51.000Z</time></trkpt>
        <trkpt lat="29.3229056" lon="105.2143186"><ele>340.17</ele><time>2026-02-13T21:39:57.000Z</time></trkpt>
        <trkpt lat="29.3229853" lon="105.2142656"><ele>336.71</ele><time>2026-02-13T21:40:05.000Z</time></trkpt>
        <trkpt lat="29.3230719" lon="105.2142765"><ele>333.49</ele><time>2026-02-13T21:40:13.000Z</time></trkpt>
        <trkpt lat="29.3231591" lon="105.2142639"><ele>330.95</ele><time>2026-02-13T21:40:21.000Z</time></trkpt>
        <trkpt lat="29.3232217" lon="105.2141984"><ele>328.55</ele><time>2026-02-13T21:40:31.000Z</time></trkpt>
        <trkpt lat="29.3232685" lon="105.2140937"><ele>326.65</ele><time>2026-02-13T21:40:39.000Z</time></trkpt>
        <trkpt lat="29.3233274" lon="105.2140056"><ele>324.85</ele><time>2026-02-13T21:40:43.000Z</time></trkpt>
        <trkpt lat="29.3234084" lon="105.2139427"><ele>323.37</ele><time>2026-02-13T21:40:49.000Z</time></trkpt>
        <trkpt lat="29.3235012" lon="105.213938"><ele>321.72</ele><time>2026-02-13T21:40:55.000Z</time></trkpt>
        <trkpt lat="29.323595" lon="105.2139953"><ele>320.76</ele><time>2026-02-13T21:41:03.000Z</time></trkpt>
        <trkpt lat="29.3236937" lon="105.214014"><ele>319.72</ele><time>2026-02-13T21:41:09.000Z</time></trkpt>
        <trkpt lat="29.3237894" lon="105.2140573"><ele>318.56</ele><time>2026-02-13T21:41:17.000Z</time></trkpt>
        <trkpt lat="29.3238985" lon="105.2140706"><ele>317.12</ele><time>2026-02-13T21:41:23.000Z</time></trkpt>
        <trkpt lat="29.3239951" lon="105.2141062"><ele>315.63</ele><time>2026-02-13T21:41:29.000Z</time></trkpt>
        <trkpt lat="29.3241078" lon="105.2141177"><ele>313.97</ele><time>2026-02-13T21:41:35.000Z</time></trkpt>
        <trkpt lat="29.3242255" lon="105.2141102"><ele>312.27</ele><time>2026-02-13T21:41:43.000Z</time></trkpt>
        <trkpt lat="29.3242606" lon="105.2141019"><ele>310.94</ele><time>2026-02-13T21:41:45.000Z</time></trkpt>
        <trkpt lat="29.3243256" lon="105.214168"><ele>310.15</ele><time>2026-02-13T21:42:01.000Z</time></trkpt>
        <trkpt lat="29.3243926" lon="105.2141241"><ele>307.57</ele><time>2026-02-13T21:42:11.000Z</time></trkpt>
        <trkpt lat="29.3244742" lon="105.214058"><ele>305.23</ele><time>2026-02-13T21:42:19.000Z</time></trkpt>
        <trkpt lat="29.3245763" lon="105.2140663"><ele>303.63</ele><time>2026-02-13T21:42:31.000Z</time></trkpt>
        <trkpt lat="29.3246794" lon="105.2140508"><ele>302.84</ele><time>2026-02-13T21:42:39.000Z</time></trkpt>
        <trkpt lat="29.3247848" lon="105.2140276"><ele>302.03</ele><time>2026-02-13T21:42:49.000Z</time></trkpt>
        <trkpt lat="29.3248798" lon="105.2140124"><ele>302.19</ele><time>2026-02-13T21:42:55.000Z</time></trkpt>
        <trkpt lat="29.3249625" lon="105.2139706"><ele>302.74</ele><time>2026-02-13T21:43:03.000Z</time></trkpt>
        <trkpt lat="29.325041" lon="105.2139178"><ele>304.17</ele><time>2026-02-13T21:43:11.000Z</time></trkpt>
        <trkpt lat="29.3251206" lon="105.2139656"><ele>306.11</ele><time>2026-02-13T21:43:21.000Z</time></trkpt>
        <trkpt lat="29.3251762" lon="105.2140686"><ele>307.18</ele><time>2026-02-13T21:43:29.000Z</time></trkpt>
        <trkpt lat="29.3252177" lon="105.2141927"><ele>308.19</ele><time>2026-02-13T21:43:37.000Z</time></trkpt>
        <trkpt lat="29.3252532" lon="105.2143182"><ele>309.16</ele><time>2026-02-13T21:43:45.000Z</time></trkpt>
        <trkpt lat="29.3252852" lon="105.2144443"><ele>309.76</ele><time>2026-02-13T21:43:53.000Z</time></trkpt>
        <trkpt lat="29.3253313" lon="105.2145665"><ele>309.93</ele><time>2026-02-13T21:44:01.000Z</time></trkpt>
        <trkpt lat="29.3253706" lon="105.2146941"><ele>310.11</ele><time>2026-02-13T21:44:09.000Z</time></trkpt>
        <trkpt lat="29.3254064" lon="105.2148174"><ele>310.26</ele><time>2026-02-13T21:44:17.000Z</time></trkpt>
        <trkpt lat="29.3254311" lon="105.2149419"><ele>310.41</ele><time>2026-02-13T21:44:25.000Z</time></trkpt>
        <trkpt lat="29.3254516" lon="105.2150659"><ele>310.2</ele><time>2026-02-13T21:44:33.000Z</time></trkpt>
        <trkpt lat="29.3254624" lon="105.2151909"><ele>309.99</ele><time>2026-02-13T21:44:41.000Z</time></trkpt>
        <trkpt lat="29.3254736" lon="105.2153176"><ele>309.61</ele><time>2026-02-13T21:44:49.000Z</time></trkpt>
        <trkpt lat="29.3254925" lon="105.215439"><ele>309.45</ele><time>2026-02-13T21:44:57.000Z</time></trkpt>
        <trkpt lat="29.3255421" lon="105.2155094"><ele>309.29</ele><time>2026-02-13T21:45:07.000Z</time></trkpt>
        <trkpt lat="29.3255296" lon="105.2155937"><ele>308.26</ele><time>2026-02-13T21:45:43.000Z</time></trkpt>
        <trkpt lat="29.3255097" lon="105.2156961"><ele>308.28</ele><time>2026-02-13T21:45:51.000Z</time></trkpt>
        <trkpt lat="29.3254932" lon="105.2158117"><ele>308.54</ele><time>2026-02-13T21:45:59.000Z</time></trkpt>
        <trkpt lat="29.3254873" lon="105.2158681"><ele>308.77</ele><time>2026-02-13T21:46:03.000Z</time></trkpt>
        <trkpt lat="29.3254713" lon="105.2159672"><ele>308.9</ele><time>2026-02-13T21:46:23.000Z</time></trkpt>
        <trkpt lat="29.3254507" lon="105.2160934"><ele>308.77</ele><time>2026-02-13T21:46:31.000Z</time></trkpt>
        <trkpt lat="29.3254241" lon="105.216222"><ele>308.66</ele><time>2026-02-13T21:46:39.000Z</time></trkpt>
        <trkpt lat="29.3254027" lon="105.2163541"><ele>308.51</ele><time>2026-02-13T21:46:47.000Z</time></trkpt>
        <trkpt lat="29.3253844" lon="105.2164858"><ele>308.81</ele><time>2026-02-13T21:46:55.000Z</time></trkpt>
        <trkpt lat="29.3253646" lon="105.2166182"><ele>309.25</ele><time>2026-02-13T21:47:03.000Z</time></trkpt>
        <trkpt lat="29.3253367" lon="105.2167488"><ele>309.39</ele><time>2026-02-13T21:47:11.000Z</time></trkpt>
        <trkpt lat="29.3253175" lon="105.2168789"><ele>309.53</ele><time>2026-02-13T21:47:19.000Z</time></trkpt>
        <trkpt lat="29.3252975" lon="105.2170129"><ele>309.67</ele><time>2026-02-13T21:47:27.000Z</time></trkpt>
        <trkpt lat="29.325283" lon="105.2171257"><ele>309.86</ele><time>2026-02-13T21:47:33.000Z</time></trkpt>
        <trkpt lat="29.3252732" lon="105.2172295"><ele>310.36</ele><time>2026-02-13T21:47:39.000Z</time></trkpt>
        <trkpt lat="29.3252609" lon="105.2173323"><ele>310.71</ele><time>2026-02-13T21:47:45.000Z</time></trkpt>
        <trkpt lat="29.325246" lon="105.2174502"><ele>310.89</ele><time>2026-02-13T21:47:53.000Z</time></trkpt>
        <trkpt lat="29.3252327" lon="105.2175787"><ele>310.78</ele><time>2026-02-13T21:48:01.000Z</time></trkpt>
        <trkpt lat="29.3252221" lon="105.2177028"><ele>310.69</ele><time>2026-02-13T21:48:09.000Z</time></trkpt>
        <trkpt lat="29.3252286" lon="105.2178234"><ele>310.63</ele><time>2026-02-13T21:48:17.000Z</time></trkpt>
        <trkpt lat="29.3252453" lon="105.2179461"><ele>310.23</ele><time>2026-02-13T21:48:25.000Z</time></trkpt>
        <trkpt lat="29.3252587" lon="105.2180778"><ele>309.72</ele><time>2026-02-13T21:48:33.000Z</time></trkpt>
        <trkpt lat="29.3252624" lon="105.2182097"><ele>309.52</ele><time>2026-02-13T21:48:41.000Z</time></trkpt>
        <trkpt lat="29.3252655" lon="105.218334"><ele>308.94</ele><time>2026-02-13T21:48:49.000Z</time></trkpt>
        <trkpt lat="29.3252723" lon="105.2184505"><ele>307.89</ele><time>2026-02-13T21:48:57.000Z</time></trkpt>
        <trkpt lat="29.3252827" lon="105.2185611"><ele>307.12</ele><time>2026-02-13T21:49:03.000Z</time></trkpt>
        <trkpt lat="29.3252895" lon="105.2186647"><ele>306.64</ele><time>2026-02-13T21:49:09.000Z</time></trkpt>
        <trkpt lat="29.3253101" lon="105.2187656"><ele>306.39</ele><time>2026-02-13T21:49:15.000Z</time></trkpt>
        <trkpt lat="29.3253373" lon="105.2188639"><ele>306.56</ele><time>2026-02-13T21:49:21.000Z</time></trkpt>
        <trkpt lat="29.325364" lon="105.2189879"><ele>306.62</ele><time>2026-02-13T21:49:29.000Z</time></trkpt>
        <trkpt lat="29.3254006" lon="105.2191141"><ele>307.09</ele><time>2026-02-13T21:49:37.000Z</time></trkpt>
        <trkpt lat="29.3254292" lon="105.2192431"><ele>307.74</ele><time>2026-02-13T21:49:45.000Z</time></trkpt>
        <trkpt lat="29.3254579" lon="105.2193701"><ele>308.02</ele><time>2026-02-13T21:49:53.000Z</time></trkpt>
        <trkpt lat="29.3254797" lon="105.2194991"><ele>308.07</ele><time>2026-02-13T21:50:01.000Z</time></trkpt>
        <trkpt lat="29.3254966" lon="105.2196295"><ele>307.61</ele><time>2026-02-13T21:50:09.000Z</time></trkpt>
        <trkpt lat="29.3255119" lon="105.2197575"><ele>307.11</ele><time>2026-02-13T21:50:17.000Z</time></trkpt>
        <trkpt lat="29.3255329" lon="105.2198859"><ele>306.72</ele><time>2026-02-13T21:50:25.000Z</time></trkpt>
        <trkpt lat="29.3255592" lon="105.2200144"><ele>306.28</ele><time>2026-02-13T21:50:33.000Z</time></trkpt>
        <trkpt lat="29.3255833" lon="105.2201098"><ele>305.95</ele><time>2026-02-13T21:50:41.000Z</time></trkpt>
        <trkpt lat="29.3256145" lon="105.2202179"><ele>305.97</ele><time>2026-02-13T21:50:53.000Z</time></trkpt>
        <trkpt lat="29.3256373" lon="105.2203392"><ele>306.09</ele><time>2026-02-13T21:51:01.000Z</time></trkpt>
        <trkpt lat="29.325659" lon="105.2204624"><ele>306.32</ele><time>2026-02-13T21:51:09.000Z</time></trkpt>
        <trkpt lat="29.3256849" lon="105.2205855"><ele>306.14</ele><time>2026-02-13T21:51:17.000Z</time></trkpt>
        <trkpt lat="29.3257064" lon="105.2207037"><ele>305.66</ele><time>2026-02-13T21:51:25.000Z</time></trkpt>
        <trkpt lat="29.3257208" lon="105.2208301"><ele>304.64</ele><time>2026-02-13T21:51:33.000Z</time></trkpt>
        <trkpt lat="29.3257129" lon="105.2209579"><ele>303.56</ele><time>2026-02-13T21:51:41.000Z</time></trkpt>
        <trkpt lat="29.3257012" lon="105.2210812"><ele>302.36</ele><time>2026-02-13T21:51:49.000Z</time></trkpt>
        <trkpt lat="29.3256683" lon="105.2212038"><ele>301.22</ele><time>2026-02-13T21:51:57.000Z</time></trkpt>
        <trkpt lat="29.3256241" lon="105.2213283"><ele>300.22</ele><time>2026-02-13T21:52:05.000Z</time></trkpt>
        <trkpt lat="29.3255704" lon="105.2214397"><ele>299.57</ele><time>2026-02-13T21:52:13.000Z</time></trkpt>
        <trkpt lat="29.3255186" lon="105.2215526"><ele>299.08</ele><time>2026-02-13T21:52:21.000Z</time></trkpt>
        <trkpt lat="29.3254758" lon="105.2216704"><ele>298.67</ele><time>2026-02-13T21:52:29.000Z</time></trkpt>
        <trkpt lat="29.3254296" lon="105.2217829"><ele>298.29</ele><time>2026-02-13T21:52:37.000Z</time></trkpt>
        <trkpt lat="29.3253993" lon="105.2218899"><ele>297.91</ele><time>2026-02-13T21:52:45.000Z</time></trkpt>
        <trkpt lat="29.3253698" lon="105.221993"><ele>297.76</ele><time>2026-02-13T21:52:53.000Z</time></trkpt>
        <trkpt lat="29.3253358" lon="105.2221046"><ele>297.45</ele><time>2026-02-13T21:53:01.000Z</time></trkpt>
        <trkpt lat="29.3253113" lon="105.2222279"><ele>297.11</ele><time>2026-02-13T21:53:09.000Z</time></trkpt>
        <trkpt lat="29.3253065" lon="105.2223556"><ele>297.09</ele><time>2026-02-13T21:53:17.000Z</time></trkpt>
        <trkpt lat="29.3253259" lon="105.2224813"><ele>297.36</ele><time>2026-02-13T21:53:25.000Z</time></trkpt>
        <trkpt lat="29.3253554" lon="105.2226003"><ele>297.52</ele><time>2026-02-13T21:53:33.000Z</time></trkpt>
        <trkpt lat="29.3253814" lon="105.2227259"><ele>297.66</ele><time>2026-02-13T21:53:41.000Z</time></trkpt>
        <trkpt lat="29.325411" lon="105.2228483"><ele>297.53</ele><time>2026-02-13T21:53:49.000Z</time></trkpt>
        <trkpt lat="29.3254427" lon="105.2229681"><ele>297.62</ele><time>2026-02-13T21:53:57.000Z</time></trkpt>
        <trkpt lat="29.3254623" lon="105.2230957"><ele>297.61</ele><time>2026-02-13T21:54:05.000Z</time></trkpt>
        <trkpt lat="29.3254734" lon="105.2232232"><ele>297.35</ele><time>2026-02-13T21:54:13.000Z</time></trkpt>
        <trkpt lat="29.325481" lon="105.2233502"><ele>297.48</ele><time>2026-02-13T21:54:21.000Z</time></trkpt>
        <trkpt lat="29.3254876" lon="105.2234603"><ele>297.73</ele><time>2026-02-13T21:54:27.000Z</time></trkpt>
        <trkpt lat="29.3254999" lon="105.2235839"><ele>298.04</ele><time>2026-02-13T21:54:35.000Z</time></trkpt>
        <trkpt lat="29.3255118" lon="105.2237157"><ele>297.57</ele><time>2026-02-13T21:54:43.000Z</time></trkpt>
        <trkpt lat="29.3255167" lon="105.223829"><ele>297.19</ele><time>2026-02-13T21:54:49.000Z</time></trkpt>
        <trkpt lat="29.325519" lon="105.2239334"><ele>297.03</ele><time>2026-02-13T21:54:55.000Z</time></trkpt>
        <trkpt lat="29.3255355" lon="105.2240523"><ele>296.83</ele><time>2026-02-13T21:55:03.000Z</time></trkpt>
        <trkpt lat="29.3255691" lon="105.2241583"><ele>296.81</ele><time>2026-02-13T21:55:11.000Z</time></trkpt>
        <trkpt lat="29.3256042" lon="105.2242565"><ele>296.41</ele><time>2026-02-13T21:55:17.000Z</time></trkpt>
        <trkpt lat="29.3256548" lon="105.2243649"><ele>295.76</ele><time>2026-02-13T21:55:25.000Z</time></trkpt>
        <trkpt lat="29.3257014" lon="105.2244823"><ele>295.44</ele><time>2026-02-13T21:55:33.000Z</time></trkpt>
        <trkpt lat="29.325739" lon="105.2246082"><ele>295.51</ele><time>2026-02-13T21:55:41.000Z</time></trkpt>
        <trkpt lat="29.3257751" lon="105.2247344"><ele>295.49</ele><time>2026-02-13T21:55:49.000Z</time></trkpt>
        <trkpt lat="29.3258048" lon="105.2248559"><ele>295.58</ele><time>2026-02-13T21:55:57.000Z</time></trkpt>
        <trkpt lat="29.3258298" lon="105.2249844"><ele>295.74</ele><time>2026-02-13T21:56:05.000Z</time></trkpt>
        <trkpt lat="29.3258531" lon="105.2251144"><ele>295.59</ele><time>2026-02-13T21:56:13.000Z</time></trkpt>
        <trkpt lat="29.3258876" lon="105.2252391"><ele>295.04</ele><time>2026-02-13T21:56:21.000Z</time></trkpt>
        <trkpt lat="29.3259211" lon="105.2253442"><ele>294.66</ele><time>2026-02-13T21:56:27.000Z</time></trkpt>
        <trkpt lat="29.3259577" lon="105.2254428"><ele>294.29</ele><time>2026-02-13T21:56:33.000Z</time></trkpt>
        <trkpt lat="29.3259896" lon="105.2255438"><ele>293.74</ele><time>2026-02-13T21:56:39.000Z</time></trkpt>
        <trkpt lat="29.3260182" lon="105.2256455"><ele>293.28</ele><time>2026-02-13T21:56:45.000Z</time></trkpt>
        <trkpt lat="29.3260471" lon="105.2257466"><ele>293.02</ele><time>2026-02-13T21:56:51.000Z</time></trkpt>
        <trkpt lat="29.3260797" lon="105.2258687"><ele>292.73</ele><time>2026-02-13T21:56:59.000Z</time></trkpt>
        <trkpt lat="29.326101" lon="105.2259996"><ele>292.79</ele><time>2026-02-13T21:57:07.000Z</time></trkpt>
        <trkpt lat="29.3261233" lon="105.2261331"><ele>292.88</ele><time>2026-02-13T21:57:15.000Z</time></trkpt>
        <trkpt lat="29.326121" lon="105.2262674"><ele>292.93</ele><time>2026-02-13T21:57:23.000Z</time></trkpt>
        <trkpt lat="29.326105" lon="105.2263787"><ele>292.94</ele><time>2026-02-13T21:57:29.000Z</time></trkpt>
        <trkpt lat="29.3260905" lon="105.2264998"><ele>293.37</ele><time>2026-02-13T21:57:37.000Z</time></trkpt>
        <trkpt lat="29.3260738" lon="105.2266303"><ele>293.21</ele><time>2026-02-13T21:57:45.000Z</time></trkpt>
        <trkpt lat="29.3260514" lon="105.2267594"><ele>292.94</ele><time>2026-02-13T21:57:53.000Z</time></trkpt>
        <trkpt lat="29.3260259" lon="105.2268836"><ele>292.65</ele><time>2026-02-13T21:58:01.000Z</time></trkpt>
        <trkpt lat="29.3260076" lon="105.2269926"><ele>291.93</ele><time>2026-02-13T21:58:07.000Z</time></trkpt>
        <trkpt lat="29.3259958" lon="105.2270985"><ele>291.45</ele><time>2026-02-13T21:58:13.000Z</time></trkpt>
        <trkpt lat="29.3259934" lon="105.2272034"><ele>291.48</ele><time>2026-02-13T21:58:19.000Z</time></trkpt>
        <trkpt lat="29.3260091" lon="105.2273295"><ele>292.16</ele><time>2026-02-13T21:58:27.000Z</time></trkpt>
        <trkpt lat="29.3260434" lon="105.2274622"><ele>293.02</ele><time>2026-02-13T21:58:35.000Z</time></trkpt>
        <trkpt lat="29.3260627" lon="105.227578"><ele>293.57</ele><time>2026-02-13T21:58:41.000Z</time></trkpt>
        <trkpt lat="29.3260751" lon="105.227703"><ele>294.15</ele><time>2026-02-13T21:58:49.000Z</time></trkpt>
        <trkpt lat="29.3260649" lon="105.2278382"><ele>294.19</ele><time>2026-02-13T21:58:57.000Z</time></trkpt>
        <trkpt lat="29.3260239" lon="105.2279697"><ele>294.31</ele><time>2026-02-13T21:59:05.000Z</time></trkpt>
        <trkpt lat="29.3259775" lon="105.2280897"><ele>294.48</ele><time>2026-02-13T21:59:13.000Z</time></trkpt>
        <trkpt lat="29.3259378" lon="105.2281529"><ele>294.61</ele><time>2026-02-13T21:59:19.000Z</time></trkpt>
        <trkpt lat="29.3258571" lon="105.2281607"><ele>294.73</ele><time>2026-02-13T21:59:37.000Z</time></trkpt>
        <trkpt lat="29.3258309" lon="105.2281504"><ele>295.33</ele><time>2026-02-13T21:59:39.000Z</time></trkpt>
        <trkpt lat="29.3257703" lon="105.2280812"><ele>295.69</ele><time>2026-02-13T21:59:53.000Z</time></trkpt>
        <trkpt lat="29.325722" lon="105.2280331"><ele>298.72</ele><time>2026-02-13T21:59:57.000Z</time></trkpt>
        <trkpt lat="29.3256798" lon="105.2280885"><ele>299.16</ele><time>2026-02-13T22:00:37.000Z</time></trkpt>
        <trkpt lat="29.3257457" lon="105.228098"><ele>296.49</ele><time>2026-02-13T22:00:43.000Z</time></trkpt>
        <trkpt lat="29.3258469" lon="105.2281199"><ele>294.6</ele><time>2026-02-13T22:00:49.000Z</time></trkpt>
        <trkpt lat="29.3259309" lon="105.2281911"><ele>293.42</ele><time>2026-02-13T22:00:57.000Z</time></trkpt>
        <trkpt lat="29.326001" lon="105.2282963"><ele>292.46</ele><time>2026-02-13T22:01:05.000Z</time></trkpt>
        <trkpt lat="29.3260701" lon="105.228414"><ele>292.01</ele><time>2026-02-13T22:01:13.000Z</time></trkpt>
        <trkpt lat="29.3261442" lon="105.2285251"><ele>291.91</ele><time>2026-02-13T22:01:21.000Z</time></trkpt>
        <trkpt lat="29.3262166" lon="105.2286321"><ele>291.97</ele><time>2026-02-13T22:01:29.000Z</time></trkpt>
        <trkpt lat="29.3262738" lon="105.2287234"><ele>292.45</ele><time>2026-02-13T22:01:35.000Z</time></trkpt>
        <trkpt lat="29.3263299" lon="105.2288284"><ele>292.7</ele><time>2026-02-13T22:01:43.000Z</time></trkpt>
        <trkpt lat="29.3263795" lon="105.2289447"><ele>293.19</ele><time>2026-02-13T22:01:51.000Z</time></trkpt>
        <trkpt lat="29.3264187" lon="105.2290498"><ele>293.23</ele><time>2026-02-13T22:01:57.000Z</time></trkpt>
        <trkpt lat="29.3264606" lon="105.2291716"><ele>293.41</ele><time>2026-02-13T22:02:05.000Z</time></trkpt>
        <trkpt lat="29.3264971" lon="105.2292985"><ele>293.08</ele><time>2026-02-13T22:02:13.000Z</time></trkpt>
        <trkpt lat="29.3265305" lon="105.2294225"><ele>292.92</ele><time>2026-02-13T22:02:23.000Z</time></trkpt>
        <trkpt lat="29.326608" lon="105.2294748"><ele>292.75</ele><time>2026-02-13T22:02:31.000Z</time></trkpt>
        <trkpt lat="29.3266972" lon="105.2294354"><ele>292.63</ele><time>2026-02-13T22:02:39.000Z</time></trkpt>
        <trkpt lat="29.3267916" lon="105.2293562"><ele>292.43</ele><time>2026-02-13T22:02:47.000Z</time></trkpt>
        <trkpt lat="29.3268885" lon="105.2292642"><ele>292.38</ele><time>2026-02-13T22:02:55.000Z</time></trkpt>
        <trkpt lat="29.3269837" lon="105.2291765"><ele>292.23</ele><time>2026-02-13T22:03:03.000Z</time></trkpt>
        <trkpt lat="29.3270699" lon="105.2290798"><ele>292.07</ele><time>2026-02-13T22:03:11.000Z</time></trkpt>
        <trkpt lat="29.3271533" lon="105.2289808"><ele>291.96</ele><time>2026-02-13T22:03:19.000Z</time></trkpt>
        <trkpt lat="29.3272339" lon="105.2288937"><ele>291.96</ele><time>2026-02-13T22:03:27.000Z</time></trkpt>
        <trkpt lat="29.3272605" lon="105.2288653"><ele>291.82</ele><time>2026-02-13T22:03:29.000Z</time></trkpt>
        <trkpt lat="29.3273293" lon="105.2288016"><ele>291.73</ele><time>2026-02-13T22:03:45.000Z</time></trkpt>
        <trkpt lat="29.3274205" lon="105.2287448"><ele>291.6</ele><time>2026-02-13T22:03:53.000Z</time></trkpt>
        <trkpt lat="29.3275054" lon="105.2286928"><ele>291.54</ele><time>2026-02-13T22:03:59.000Z</time></trkpt>
        <trkpt lat="29.3275982" lon="105.2286216"><ele>291.6</ele><time>2026-02-13T22:04:07.000Z</time></trkpt>
        <trkpt lat="29.3276899" lon="105.2285386"><ele>291.8</ele><time>2026-02-13T22:04:15.000Z</time></trkpt>
        <trkpt lat="29.327767" lon="105.2284381"><ele>292.27</ele><time>2026-02-13T22:04:23.000Z</time></trkpt>
        <trkpt lat="29.3278576" lon="105.2283598"><ele>292.99</ele><time>2026-02-13T22:04:31.000Z</time></trkpt>
        <trkpt lat="29.3279683" lon="105.2283478"><ele>293.28</ele><time>2026-02-13T22:04:39.000Z</time></trkpt>
        <trkpt lat="29.3280655" lon="105.2283741"><ele>293.41</ele><time>2026-02-13T22:04:45.000Z</time></trkpt>
        <trkpt lat="29.3281779" lon="105.2284078"><ele>293.92</ele><time>2026-02-13T22:04:53.000Z</time></trkpt>
        <trkpt lat="29.3282936" lon="105.228428"><ele>294.41</ele><time>2026-02-13T22:05:01.000Z</time></trkpt>
        <trkpt lat="29.3284102" lon="105.2284351"><ele>295.27</ele><time>2026-02-13T22:05:11.000Z</time></trkpt>
        <trkpt lat="29.3285284" lon="105.2284152"><ele>295.46</ele><time>2026-02-13T22:05:19.000Z</time></trkpt>
        <trkpt lat="29.328643" lon="105.2283832"><ele>295.57</ele><time>2026-02-13T22:05:27.000Z</time></trkpt>
        <trkpt lat="29.3286919" lon="105.2283647"><ele>296.19</ele><time>2026-02-13T22:05:31.000Z</time></trkpt>
        <trkpt lat="29.3287706" lon="105.228345"><ele>296.65</ele><time>2026-02-13T22:05:39.000Z</time></trkpt>
        <trkpt lat="29.3288061" lon="105.2283364"><ele>297.6</ele><time>2026-02-13T22:05:43.000Z</time></trkpt>
        <trkpt lat="29.328882" lon="105.2283146"><ele>298.27</ele><time>2026-02-13T22:05:51.000Z</time></trkpt>
        <trkpt lat="29.3289837" lon="105.2282973"><ele>298.71</ele><time>2026-02-13T22:05:59.000Z</time></trkpt>
        <trkpt lat="29.3291031" lon="105.2282946"><ele>299.05</ele><time>2026-02-13T22:06:07.000Z</time></trkpt>
        <trkpt lat="29.3292054" lon="105.2283071"><ele>299.65</ele><time>2026-02-13T22:06:13.000Z</time></trkpt>
        <trkpt lat="29.3293086" lon="105.2283575"><ele>300.26</ele><time>2026-02-13T22:06:21.000Z</time></trkpt>
        <trkpt lat="29.3293957" lon="105.2284137"><ele>300.97</ele><time>2026-02-13T22:06:27.000Z</time></trkpt>
        <trkpt lat="29.3294884" lon="105.2284897"><ele>301.27</ele><time>2026-02-13T22:06:35.000Z</time></trkpt>
        <trkpt lat="29.3295851" lon="105.2285663"><ele>301.73</ele><time>2026-02-13T22:06:43.000Z</time></trkpt>
        <trkpt lat="29.329678" lon="105.2286335"><ele>302.7</ele><time>2026-02-13T22:06:51.000Z</time></trkpt>
        <trkpt lat="29.3297769" lon="105.2286685"><ele>303.87</ele><time>2026-02-13T22:06:59.000Z</time></trkpt>
        <trkpt lat="29.3298699" lon="105.2286579"><ele>305.35</ele><time>2026-02-13T22:07:07.000Z</time></trkpt>
        <trkpt lat="29.3299615" lon="105.2286164"><ele>306.91</ele><time>2026-02-13T22:07:15.000Z</time></trkpt>
        <trkpt lat="29.3300617" lon="105.2285764"><ele>308.28</ele><time>2026-02-13T22:07:23.000Z</time></trkpt>
        <trkpt lat="29.3301671" lon="105.2285584"><ele>309.55</ele><time>2026-02-13T22:07:31.000Z</time></trkpt>
        <trkpt lat="29.3302762" lon="105.2285433"><ele>310.43</ele><time>2026-02-13T22:07:39.000Z</time></trkpt>
        <trkpt lat="29.3303883" lon="105.2285306"><ele>311.53</ele><time>2026-02-13T22:07:47.000Z</time></trkpt>
        <trkpt lat="29.3304947" lon="105.2285122"><ele>312.45</ele><time>2026-02-13T22:07:55.000Z</time></trkpt>
        <trkpt lat="29.3305899" lon="105.2284813"><ele>313.72</ele><time>2026-02-13T22:08:03.000Z</time></trkpt>
        <trkpt lat="29.3306673" lon="105.2284262"><ele>314.96</ele><time>2026-02-13T22:08:11.000Z</time></trkpt>
        <trkpt lat="29.3307011" lon="105.228395"><ele>315.78</ele><time>2026-02-13T22:08:15.000Z</time></trkpt>
        <trkpt lat="29.330768" lon="105.2284458"><ele>316.33</ele><time>2026-02-13T22:08:31.000Z</time></trkpt>
        <trkpt lat="29.3308612" lon="105.2284989"><ele>316.77</ele><time>2026-02-13T22:08:39.000Z</time></trkpt>
        <trkpt lat="29.3309653" lon="105.2285553"><ele>316.7</ele><time>2026-02-13T22:08:47.000Z</time></trkpt>
        <trkpt lat="29.3310618" lon="105.2286251"><ele>316.7</ele><time>2026-02-13T22:08:55.000Z</time></trkpt>
        <trkpt lat="29.3311286" lon="105.2287272"><ele>316.87</ele><time>2026-02-13T22:09:03.000Z</time></trkpt>
        <trkpt lat="29.3311614" lon="105.228851"><ele>317.01</ele><time>2026-02-13T22:09:11.000Z</time></trkpt>
        <trkpt lat="29.3311794" lon="105.2289784"><ele>316.95</ele><time>2026-02-13T22:09:19.000Z</time></trkpt>
        <trkpt lat="29.3311835" lon="105.2290471"><ele>317.48</ele><time>2026-02-13T22:09:25.000Z</time></trkpt>
        <trkpt lat="29.3311807" lon="105.2291473"><ele>317.67</ele><time>2026-02-13T22:09:35.000Z</time></trkpt>
        <trkpt lat="29.3311829" lon="105.2292651"><ele>317.41</ele><time>2026-02-13T22:09:43.000Z</time></trkpt>
        <trkpt lat="29.3311967" lon="105.2293915"><ele>317.08</ele><time>2026-02-13T22:09:51.000Z</time></trkpt>
        <trkpt lat="29.3311988" lon="105.2295167"><ele>317.19</ele><time>2026-02-13T22:09:59.000Z</time></trkpt>
        <trkpt lat="29.331207" lon="105.2296418"><ele>317.29</ele><time>2026-02-13T22:10:07.000Z</time></trkpt>
        <trkpt lat="29.3312263" lon="105.2297663"><ele>317.63</ele><time>2026-02-13T22:10:15.000Z</time></trkpt>
        <trkpt lat="29.3312496" lon="105.2298884"><ele>317.97</ele><time>2026-02-13T22:10:23.000Z</time></trkpt>
        <trkpt lat="29.3312625" lon="105.2300155"><ele>317.94</ele><time>2026-02-13T22:10:31.000Z</time></trkpt>
        <trkpt lat="29.3312816" lon="105.2301239"><ele>317.58</ele><time>2026-02-13T22:10:37.000Z</time></trkpt>
        <trkpt lat="29.3313026" lon="105.2302416"><ele>317.14</ele><time>2026-02-13T22:10:45.000Z</time></trkpt>
        <trkpt lat="29.3313202" lon="105.2303552"><ele>316.73</ele><time>2026-02-13T22:10:53.000Z</time></trkpt>
        <trkpt lat="29.3313354" lon="105.2304724"><ele>316.55</ele><time>2026-02-13T22:11:01.000Z</time></trkpt>
        <trkpt lat="29.3313437" lon="105.2305217"><ele>316.16</ele><time>2026-02-13T22:11:05.000Z</time></trkpt>
        <trkpt lat="29.331355" lon="105.230608"><ele>316.29</ele><time>2026-02-13T22:11:17.000Z</time></trkpt>
        <trkpt lat="29.3313785" lon="105.2307087"><ele>316.09</ele><time>2026-02-13T22:11:23.000Z</time></trkpt>
        <trkpt lat="29.3313905" lon="105.2308137"><ele>316.02</ele><time>2026-02-13T22:11:29.000Z</time></trkpt>
        <trkpt lat="29.3314082" lon="105.2309421"><ele>315.81</ele><time>2026-02-13T22:11:37.000Z</time></trkpt>
        <trkpt lat="29.3314291" lon="105.2310659"><ele>316.16</ele><time>2026-02-13T22:11:45.000Z</time></trkpt>
        <trkpt lat="29.3314511" lon="105.2311836"><ele>316.55</ele><time>2026-02-13T22:11:53.000Z</time></trkpt>
        <trkpt lat="29.3314611" lon="105.231309"><ele>316.9</ele><time>2026-02-13T22:12:01.000Z</time></trkpt>
        <trkpt lat="29.3314713" lon="105.2314266"><ele>317.18</ele><time>2026-02-13T22:12:09.000Z</time></trkpt>
        <trkpt lat="29.3314721" lon="105.2315493"><ele>317.38</ele><time>2026-02-13T22:12:17.000Z</time></trkpt>
        <trkpt lat="29.3314677" lon="105.2316752"><ele>317.59</ele><time>2026-02-13T22:12:25.000Z</time></trkpt>
        <trkpt lat="29.3314553" lon="105.2317857"><ele>318.11</ele><time>2026-02-13T22:12:31.000Z</time></trkpt>
        <trkpt lat="29.3314337" lon="105.2318868"><ele>318.75</ele><time>2026-02-13T22:12:37.000Z</time></trkpt>
        <trkpt lat="29.3314159" lon="105.2319988"><ele>319.46</ele><time>2026-02-13T22:12:45.000Z</time></trkpt>
        <trkpt lat="29.3313966" lon="105.232118"><ele>320.24</ele><time>2026-02-13T22:12:53.000Z</time></trkpt>
        <trkpt lat="29.3313768" lon="105.2322488"><ele>321.24</ele><time>2026-02-13T22:13:01.000Z</time></trkpt>
        <trkpt lat="29.3313557" lon="105.2323705"><ele>321.91</ele><time>2026-02-13T22:13:09.000Z</time></trkpt>
        <trkpt lat="29.3313571" lon="105.232486"><ele>322.4</ele><time>2026-02-13T22:13:17.000Z</time></trkpt>
        <trkpt lat="29.3313591" lon="105.2326095"><ele>322.97</ele><time>2026-02-13T22:13:25.000Z</time></trkpt>
        <trkpt lat="29.3313756" lon="105.232728"><ele>322.97</ele><time>2026-02-13T22:13:33.000Z</time></trkpt>
        <trkpt lat="29.3313948" lon="105.2328593"><ele>322.74</ele><time>2026-02-13T22:13:41.000Z</time></trkpt>
        <trkpt lat="29.3314118" lon="105.2329906"><ele>322.5</ele><time>2026-02-13T22:13:49.000Z</time></trkpt>
        <trkpt lat="29.3314301" lon="105.2331215"><ele>322.26</ele><time>2026-02-13T22:13:57.000Z</time></trkpt>
        <trkpt lat="29.331449" lon="105.2332517"><ele>322.21</ele><time>2026-02-13T22:14:05.000Z</time></trkpt>
        <trkpt lat="29.3314637" lon="105.2333752"><ele>322.72</ele><time>2026-02-13T22:14:13.000Z</time></trkpt>
        <trkpt lat="29.3314754" lon="105.2335002"><ele>323.32</ele><time>2026-02-13T22:14:21.000Z</time></trkpt>
        <trkpt lat="29.3314899" lon="105.2336206"><ele>323.28</ele><time>2026-02-13T22:14:29.000Z</time></trkpt>
        <trkpt lat="29.3315138" lon="105.2337385"><ele>322.9</ele><time>2026-02-13T22:14:37.000Z</time></trkpt>
        <trkpt lat="29.3315579" lon="105.2338553"><ele>322.33</ele><time>2026-02-13T22:14:45.000Z</time></trkpt>
        <trkpt lat="29.3315994" lon="105.2339551"><ele>321.51</ele><time>2026-02-13T22:14:51.000Z</time></trkpt>
        <trkpt lat="29.3316435" lon="105.2340702"><ele>321.07</ele><time>2026-02-13T22:14:59.000Z</time></trkpt>
        <trkpt lat="29.3316863" lon="105.2341852"><ele>321.14</ele><time>2026-02-13T22:15:07.000Z</time></trkpt>
        <trkpt lat="29.3316535" lon="105.2342908"><ele>321.22</ele><time>2026-02-13T22:15:15.000Z</time></trkpt>
        <trkpt lat="29.3316235" lon="105.2343655"><ele>321.32</ele><time>2026-02-13T22:15:21.000Z</time></trkpt>
        <trkpt lat="29.3315756" lon="105.2344604"><ele>318.94</ele><time>2026-02-13T22:15:59.000Z</time></trkpt>
        <trkpt lat="29.3315968" lon="105.2344635"><ele>320.9</ele><time>2026-02-13T22:16:01.000Z</time></trkpt>
        <trkpt lat="29.3316418" lon="105.2343727"><ele>322.43</ele><time>2026-02-13T22:16:21.000Z</time></trkpt>
        <trkpt lat="29.3316964" lon="105.2342619"><ele>322.66</ele><time>2026-02-13T22:16:31.000Z</time></trkpt>
        <trkpt lat="29.3317619" lon="105.2343099"><ele>322.22</ele><time>2026-02-13T22:16:39.000Z</time></trkpt>
        <trkpt lat="29.3318087" lon="105.2344067"><ele>321.77</ele><time>2026-02-13T22:16:45.000Z</time></trkpt>
        <trkpt lat="29.331833" lon="105.2345369"><ele>321.4</ele><time>2026-02-13T22:16:53.000Z</time></trkpt>
        <trkpt lat="29.3318264" lon="105.2346741"><ele>320.16</ele><time>2026-02-13T22:17:01.000Z</time></trkpt>
        <trkpt lat="29.3317783" lon="105.2347148"><ele>319.17</ele><time>2026-02-13T22:17:09.000Z</time></trkpt>
        <trkpt lat="29.3318479" lon="105.2347138"><ele>318.26</ele><time>2026-02-13T22:36:12.000Z</time></trkpt>
        <trkpt lat="29.3319175" lon="105.234798"><ele>315.57</ele><time>2026-02-13T22:36:20.000Z</time></trkpt>
        <trkpt lat="29.33197" lon="105.2348203"><ele>314.05</ele><time>2026-02-13T22:36:30.000Z</time></trkpt>
        <trkpt lat="29.3320217" lon="105.2347576"><ele>313.6</ele><time>2026-02-13T22:37:18.000Z</time></trkpt>
        <trkpt lat="29.3319198" lon="105.2347521"><ele>314.34</ele><time>2026-02-13T22:44:16.000Z</time></trkpt>
        <trkpt lat="29.3319526" lon="105.2348361"><ele>314.76</ele><time>2026-02-13T22:44:30.000Z</time></trkpt>
        <trkpt lat="29.3319166" lon="105.2347327"><ele>314.67</ele><time>2026-02-13T22:57:46.000Z</time></trkpt>
        <trkpt lat="29.3319881" lon="105.234664"><ele>312.36</ele><time>2026-02-13T22:58:14.000Z</time></trkpt>
        <trkpt lat="29.3319219" lon="105.234755"><ele>312.37</ele><time>2026-02-13T22:59:36.000Z</time></trkpt>
        <trkpt lat="29.3318982" lon="105.2348617"><ele>312.55</ele><time>2026-02-13T22:59:44.000Z</time></trkpt>
        <trkpt lat="29.3318828" lon="105.234985"><ele>312.92</ele><time>2026-02-13T22:59:54.000Z</time></trkpt>
        <trkpt lat="29.3318788" lon="105.2350944"><ele>312.81</ele><time>2026-02-13T23:00:02.000Z</time></trkpt>
        <trkpt lat="29.3318848" lon="105.2351993"><ele>313.06</ele><time>2026-02-13T23:00:16.000Z</time></trkpt>
        <trkpt lat="29.3319056" lon="105.2353109"><ele>313.84</ele><time>2026-02-13T23:00:26.000Z</time></trkpt>
        <trkpt lat="29.3319204" lon="105.2354208"><ele>314.4</ele><time>2026-02-13T23:00:34.000Z</time></trkpt>
        <trkpt lat="29.3319295" lon="105.2355286"><ele>314.58</ele><time>2026-02-13T23:00:42.000Z</time></trkpt>
        <trkpt lat="29.331934" lon="105.2356337"><ele>314.58</ele><time>2026-02-13T23:00:50.000Z</time></trkpt>
        <trkpt lat="29.3319514" lon="105.2357524"><ele>314.62</ele><time>2026-02-13T23:01:00.000Z</time></trkpt>
        <trkpt lat="29.3319579" lon="105.235862"><ele>314.18</ele><time>2026-02-13T23:01:08.000Z</time></trkpt>
        <trkpt lat="29.3319725" lon="105.2359819"><ele>313.8</ele><time>2026-02-13T23:01:18.000Z</time></trkpt>
        <trkpt lat="29.3319861" lon="105.2360907"><ele>313.86</ele><time>2026-02-13T23:01:26.000Z</time></trkpt>
        <trkpt lat="29.3319977" lon="105.2361952"><ele>314.12</ele><time>2026-02-13T23:01:34.000Z</time></trkpt>
        <trkpt lat="29.3320084" lon="105.2363008"><ele>314.19</ele><time>2026-02-13T23:01:42.000Z</time></trkpt>
        <trkpt lat="29.3320198" lon="105.2364137"><ele>314.3</ele><time>2026-02-13T23:01:50.000Z</time></trkpt>
        <trkpt lat="29.3320345" lon="105.2365291"><ele>314.48</ele><time>2026-02-13T23:01:58.000Z</time></trkpt>
        <trkpt lat="29.3320438" lon="105.2366503"><ele>314.59</ele><time>2026-02-13T23:02:06.000Z</time></trkpt>
        <trkpt lat="29.3320549" lon="105.2367683"><ele>314.74</ele><time>2026-02-13T23:02:14.000Z</time></trkpt>
        <trkpt lat="29.3320664" lon="105.2368851"><ele>314.7</ele><time>2026-02-13T23:02:22.000Z</time></trkpt>
        <trkpt lat="29.3320782" lon="105.2370044"><ele>314.84</ele><time>2026-02-13T23:02:30.000Z</time></trkpt>
        <trkpt lat="29.332109" lon="105.2371135"><ele>314.91</ele><time>2026-02-13T23:02:38.000Z</time></trkpt>
        <trkpt lat="29.3321553" lon="105.2372181"><ele>314.91</ele><time>2026-02-13T23:02:46.000Z</time></trkpt>
        <trkpt lat="29.3321992" lon="105.237329"><ele>314.96</ele><time>2026-02-13T23:02:54.000Z</time></trkpt>
        <trkpt lat="29.3322343" lon="105.237441"><ele>315.13</ele><time>2026-02-13T23:03:02.000Z</time></trkpt>
        <trkpt lat="29.33225" lon="105.2375594"><ele>314.97</ele><time>2026-02-13T23:03:10.000Z</time></trkpt>
        <trkpt lat="29.3322629" lon="105.2376848"><ele>314.57</ele><time>2026-02-13T23:03:18.000Z</time></trkpt>
        <trkpt lat="29.3322775" lon="105.2378082"><ele>314.07</ele><time>2026-02-13T23:03:26.000Z</time></trkpt>
        <trkpt lat="29.332289" lon="105.2379334"><ele>313.7</ele><time>2026-02-13T23:03:34.000Z</time></trkpt>
        <trkpt lat="29.3322981" lon="105.238057"><ele>313.57</ele><time>2026-02-13T23:03:42.000Z</time></trkpt>
        <trkpt lat="29.3322918" lon="105.2381754"><ele>313.6</ele><time>2026-02-13T23:03:50.000Z</time></trkpt>
        <trkpt lat="29.3322926" lon="105.23829"><ele>314.16</ele><time>2026-02-13T23:03:58.000Z</time></trkpt>
        <trkpt lat="29.3322857" lon="105.2384097"><ele>314.22</ele><time>2026-02-13T23:04:06.000Z</time></trkpt>
        <trkpt lat="29.3322658" lon="105.2385317"><ele>313.94</ele><time>2026-02-13T23:04:14.000Z</time></trkpt>
        <trkpt lat="29.332234" lon="105.2386453"><ele>313.64</ele><time>2026-02-13T23:04:22.000Z</time></trkpt>
        <trkpt lat="29.3321814" lon="105.2387523"><ele>313.44</ele><time>2026-02-13T23:04:30.000Z</time></trkpt>
        <trkpt lat="29.3321394" lon="105.2388553"><ele>313.12</ele><time>2026-02-13T23:04:38.000Z</time></trkpt>
        <trkpt lat="29.3321237" lon="105.2389651"><ele>313.17</ele><time>2026-02-13T23:04:46.000Z</time></trkpt>
        <trkpt lat="29.3321133" lon="105.2390833"><ele>313.09</ele><time>2026-02-13T23:04:54.000Z</time></trkpt>
        <trkpt lat="29.3321337" lon="105.2391973"><ele>313.28</ele><time>2026-02-13T23:05:02.000Z</time></trkpt>
        <trkpt lat="29.3321659" lon="105.2393106"><ele>313.68</ele><time>2026-02-13T23:05:10.000Z</time></trkpt>
        <trkpt lat="29.332204" lon="105.2394208"><ele>313.84</ele><time>2026-02-13T23:05:18.000Z</time></trkpt>
        <trkpt lat="29.3322439" lon="105.2395269"><ele>314.05</ele><time>2026-02-13T23:05:26.000Z</time></trkpt>
        <trkpt lat="29.332282" lon="105.2396352"><ele>314.16</ele><time>2026-02-13T23:05:34.000Z</time></trkpt>
        <trkpt lat="29.3323183" lon="105.2397445"><ele>314.36</ele><time>2026-02-13T23:05:42.000Z</time></trkpt>
        <trkpt lat="29.3323508" lon="105.2398614"><ele>314.43</ele><time>2026-02-13T23:05:50.000Z</time></trkpt>
        <trkpt lat="29.3323892" lon="105.2399753"><ele>314.33</ele><time>2026-02-13T23:05:58.000Z</time></trkpt>
        <trkpt lat="29.3324224" lon="105.2400882"><ele>314.36</ele><time>2026-02-13T23:06:06.000Z</time></trkpt>
        <trkpt lat="29.3324565" lon="105.2401996"><ele>314.37</ele><time>2026-02-13T23:06:14.000Z</time></trkpt>
        <trkpt lat="29.332483" lon="105.2403063"><ele>314.41</ele><time>2026-02-13T23:06:22.000Z</time></trkpt>
        <trkpt lat="29.3325219" lon="105.2404113"><ele>314.41</ele><time>2026-02-13T23:06:30.000Z</time></trkpt>
        <trkpt lat="29.332563" lon="105.2405176"><ele>314.54</ele><time>2026-02-13T23:06:38.000Z</time></trkpt>
        <trkpt lat="29.3326032" lon="105.2406264"><ele>314.58</ele><time>2026-02-13T23:06:46.000Z</time></trkpt>
        <trkpt lat="29.3326417" lon="105.2407358"><ele>314.66</ele><time>2026-02-13T23:06:54.000Z</time></trkpt>
        <trkpt lat="29.3326737" lon="105.2408477"><ele>314.48</ele><time>2026-02-13T23:07:02.000Z</time></trkpt>
        <trkpt lat="29.3327077" lon="105.2409573"><ele>314.41</ele><time>2026-02-13T23:07:10.000Z</time></trkpt>
        <trkpt lat="29.3327374" lon="105.2410755"><ele>314.29</ele><time>2026-02-13T23:07:18.000Z</time></trkpt>
        <trkpt lat="29.33277" lon="105.2411886"><ele>314.17</ele><time>2026-02-13T23:07:26.000Z</time></trkpt>
        <trkpt lat="29.3328039" lon="105.241298"><ele>314.2</ele><time>2026-02-13T23:07:34.000Z</time></trkpt>
        <trkpt lat="29.3328347" lon="105.2414076"><ele>314.25</ele><time>2026-02-13T23:07:42.000Z</time></trkpt>
        <trkpt lat="29.3328733" lon="105.2415178"><ele>313.99</ele><time>2026-02-13T23:07:50.000Z</time></trkpt>
        <trkpt lat="29.3329106" lon="105.2416249"><ele>314.06</ele><time>2026-02-13T23:07:58.000Z</time></trkpt>
        <trkpt lat="29.332947" lon="105.241731"><ele>314.44</ele><time>2026-02-13T23:08:14.000Z</time></trkpt>
        <trkpt lat="29.3329796" lon="105.2418397"><ele>315.12</ele><time>2026-02-13T23:08:28.000Z</time></trkpt>
        <trkpt lat="29.3330071" lon="105.2419533"><ele>316.39</ele><time>2026-02-13T23:08:40.000Z</time></trkpt>
        <trkpt lat="29.3330464" lon="105.2420506"><ele>317.28</ele><time>2026-02-13T23:08:50.000Z</time></trkpt>
        <trkpt lat="29.3331209" lon="105.242125"><ele>318.53</ele><time>2026-02-13T23:09:02.000Z</time></trkpt>
        <trkpt lat="29.3330776" lon="105.2421668"><ele>318.62</ele><time>2026-02-13T23:09:12.000Z</time></trkpt>
        <trkpt lat="29.3330235" lon="105.2421805"><ele>319.77</ele><time>2026-02-13T23:09:20.000Z</time></trkpt>
        <trkpt lat="29.3330717" lon="105.2422043"><ele>323.06</ele><time>2026-02-13T23:09:46.000Z</time></trkpt>
        <trkpt lat="29.3331606" lon="105.2421804"><ele>324.81</ele><time>2026-02-13T23:09:54.000Z</time></trkpt>
        <trkpt lat="29.3332739" lon="105.2421715"><ele>325.27</ele><time>2026-02-13T23:10:04.000Z</time></trkpt>
        <trkpt lat="29.3333743" lon="105.2421923"><ele>325.48</ele><time>2026-02-13T23:10:14.000Z</time></trkpt>
        <trkpt lat="29.3332809" lon="105.2421715"><ele>325.65</ele><time>2026-02-13T23:11:36.000Z</time></trkpt>
        <trkpt lat="29.3331897" lon="105.2421651"><ele>325.28</ele><time>2026-02-13T23:11:44.000Z</time></trkpt>
        <trkpt lat="29.3330931" lon="105.2422012"><ele>324.82</ele><time>2026-02-13T23:11:56.000Z</time></trkpt>
        <trkpt lat="29.3329947" lon="105.2422342"><ele>324.78</ele><time>2026-02-13T23:12:10.000Z</time></trkpt>
        <trkpt lat="29.3328961" lon="105.2422635"><ele>326.08</ele><time>2026-02-13T23:12:20.000Z</time></trkpt>
        <trkpt lat="29.3328358" lon="105.2423526"><ele>326.48</ele><time>2026-02-13T23:12:30.000Z</time></trkpt>
        <trkpt lat="29.3327888" lon="105.2424506"><ele>326.45</ele><time>2026-02-13T23:12:40.000Z</time></trkpt>
        <trkpt lat="29.3327471" lon="105.242559"><ele>326.54</ele><time>2026-02-13T23:12:50.000Z</time></trkpt>
        <trkpt lat="29.332702" lon="105.2426784"><ele>327.18</ele><time>2026-02-13T23:13:00.000Z</time></trkpt>
        <trkpt lat="29.3326312" lon="105.2427641"><ele>327.42</ele><time>2026-02-13T23:13:08.000Z</time></trkpt>
        <trkpt lat="29.3325575" lon="105.2428434"><ele>327.64</ele><time>2026-02-13T23:13:16.000Z</time></trkpt>
        <trkpt lat="29.3325078" lon="105.2429401"><ele>328.02</ele><time>2026-02-13T23:13:24.000Z</time></trkpt>
        <trkpt lat="29.332462" lon="105.2430404"><ele>328.58</ele><time>2026-02-13T23:13:32.000Z</time></trkpt>
        <trkpt lat="29.3324007" lon="105.2431304"><ele>329.26</ele><time>2026-02-13T23:13:40.000Z</time></trkpt>
        <trkpt lat="29.3323359" lon="105.2432196"><ele>330.34</ele><time>2026-02-13T23:13:48.000Z</time></trkpt>
        <trkpt lat="29.3322752" lon="105.2433042"><ele>331.09</ele><time>2026-02-13T23:13:56.000Z</time></trkpt>
        <trkpt lat="29.3322159" lon="105.2433947"><ele>331.39</ele><time>2026-02-13T23:14:04.000Z</time></trkpt>
        <trkpt lat="29.3321419" lon="105.2434656"><ele>330.65</ele><time>2026-02-13T23:14:12.000Z</time></trkpt>
        <trkpt lat="29.3320517" lon="105.2435238"><ele>329.94</ele><time>2026-02-13T23:14:20.000Z</time></trkpt>
        <trkpt lat="29.3319882" lon="105.2436189"><ele>328.98</ele><time>2026-02-13T23:14:28.000Z</time></trkpt>
        <trkpt lat="29.3319239" lon="105.2437131"><ele>328.6</ele><time>2026-02-13T23:14:36.000Z</time></trkpt>
        <trkpt lat="29.3318514" lon="105.2438072"><ele>327.99</ele><time>2026-02-13T23:14:44.000Z</time></trkpt>
        <trkpt lat="29.3317823" lon="105.2439017"><ele>328.13</ele><time>2026-02-13T23:14:52.000Z</time></trkpt>
        <trkpt lat="29.3317137" lon="105.2439931"><ele>328.48</ele><time>2026-02-13T23:15:00.000Z</time></trkpt>
        <trkpt lat="29.3316445" lon="105.244079"><ele>328.88</ele><time>2026-02-13T23:15:08.000Z</time></trkpt>
        <trkpt lat="29.33157" lon="105.244171"><ele>329.03</ele><time>2026-02-13T23:15:16.000Z</time></trkpt>
        <trkpt lat="29.3315015" lon="105.2442651"><ele>329.1</ele><time>2026-02-13T23:15:24.000Z</time></trkpt>
        <trkpt lat="29.331426" lon="105.2443542"><ele>328.98</ele><time>2026-02-13T23:15:32.000Z</time></trkpt>
        <trkpt lat="29.3313498" lon="105.244438"><ele>328.75</ele><time>2026-02-13T23:15:40.000Z</time></trkpt>
        <trkpt lat="29.3312715" lon="105.2445216"><ele>328.84</ele><time>2026-02-13T23:15:48.000Z</time></trkpt>
        <trkpt lat="29.3311944" lon="105.2446074"><ele>328.76</ele><time>2026-02-13T23:15:56.000Z</time></trkpt>
        <trkpt lat="29.3311089" lon="105.2446136"><ele>329.02</ele><time>2026-02-13T23:16:02.000Z</time></trkpt>
        <trkpt lat="29.3310729" lon="105.2446043"><ele>329.1</ele><time>2026-02-13T23:16:06.000Z</time></trkpt>
        <trkpt lat="29.331017" lon="105.2446488"><ele>328.93</ele><time>2026-02-13T23:17:14.000Z</time></trkpt>
        <trkpt lat="29.3309275" lon="105.2446131"><ele>326.61</ele><time>2026-02-13T23:17:22.000Z</time></trkpt>
        <trkpt lat="29.3308489" lon="105.2445544"><ele>323.82</ele><time>2026-02-13T23:17:28.000Z</time></trkpt>
        <trkpt lat="29.3307977" lon="105.2444624"><ele>321.24</ele><time>2026-02-13T23:17:50.000Z</time></trkpt>
        <trkpt lat="29.3308349" lon="105.2443647"><ele>318.59</ele><time>2026-02-13T23:18:02.000Z</time></trkpt>
        <trkpt lat="29.3308249" lon="105.2442674"><ele>316.33</ele><time>2026-02-13T23:18:10.000Z</time></trkpt>
        <trkpt lat="29.3308075" lon="105.2442223"><ele>313.78</ele><time>2026-02-13T23:18:14.000Z</time></trkpt>
        <trkpt lat="29.3308094" lon="105.2441388"><ele>311.63</ele><time>2026-02-13T23:18:22.000Z</time></trkpt>
        <trkpt lat="29.3307246" lon="105.2441249"><ele>308.51</ele><time>2026-02-13T23:18:30.000Z</time></trkpt>
        <trkpt lat="29.3306527" lon="105.2441961"><ele>306.71</ele><time>2026-02-13T23:18:38.000Z</time></trkpt>
        <trkpt lat="29.3305931" lon="105.2442912"><ele>305.5</ele><time>2026-02-13T23:18:44.000Z</time></trkpt>
        <trkpt lat="29.3305274" lon="105.2443988"><ele>304.5</ele><time>2026-02-13T23:18:52.000Z</time></trkpt>
        <trkpt lat="29.330463" lon="105.2445039"><ele>303.88</ele><time>2026-02-13T23:19:00.000Z</time></trkpt>
        <trkpt lat="29.3304021" lon="105.2446172"><ele>303.91</ele><time>2026-02-13T23:19:08.000Z</time></trkpt>
        <trkpt lat="29.3303348" lon="105.2447243"><ele>303.72</ele><time>2026-02-13T23:19:16.000Z</time></trkpt>
        <trkpt lat="29.330284" lon="105.2448232"><ele>303.99</ele><time>2026-02-13T23:19:24.000Z</time></trkpt>
        <trkpt lat="29.3302028" lon="105.2449121"><ele>303.84</ele><time>2026-02-13T23:19:32.000Z</time></trkpt>
        <trkpt lat="29.3301172" lon="105.2449664"><ele>303.59</ele><time>2026-02-13T23:19:38.000Z</time></trkpt>
        <trkpt lat="29.3300434" lon="105.244918"><ele>303.73</ele><time>2026-02-13T23:19:48.000Z</time></trkpt>
        <trkpt lat="29.3300109" lon="105.244805"><ele>303.76</ele><time>2026-02-13T23:19:58.000Z</time></trkpt>
        <trkpt lat="29.3299836" lon="105.2446892"><ele>304.05</ele><time>2026-02-13T23:20:06.000Z</time></trkpt>
        <trkpt lat="29.3299489" lon="105.2445809"><ele>304.02</ele><time>2026-02-13T23:20:14.000Z</time></trkpt>
        <trkpt lat="29.3299091" lon="105.2444731"><ele>303.9</ele><time>2026-02-13T23:20:22.000Z</time></trkpt>
        <trkpt lat="29.3298326" lon="105.2443959"><ele>303.83</ele><time>2026-02-13T23:20:36.000Z</time></trkpt>
        <trkpt lat="29.3297448" lon="105.2444251"><ele>304.09</ele><time>2026-02-13T23:20:46.000Z</time></trkpt>
        <trkpt lat="29.3296512" lon="105.2444174"><ele>303.55</ele><time>2026-02-13T23:20:54.000Z</time></trkpt>
        <trkpt lat="29.3295712" lon="105.2443623"><ele>303.06</ele><time>2026-02-13T23:21:02.000Z</time></trkpt>
        <trkpt lat="29.329499" lon="105.2442846"><ele>302.77</ele><time>2026-02-13T23:21:10.000Z</time></trkpt>
        <trkpt lat="29.3294267" lon="105.2441985"><ele>302.27</ele><time>2026-02-13T23:21:18.000Z</time></trkpt>
        <trkpt lat="29.3293548" lon="105.2441169"><ele>302.3</ele><time>2026-02-13T23:21:26.000Z</time></trkpt>
        <trkpt lat="29.3292802" lon="105.244034"><ele>302.15</ele><time>2026-02-13T23:21:34.000Z</time></trkpt>
        <trkpt lat="29.3292059" lon="105.2439514"><ele>302.76</ele><time>2026-02-13T23:21:42.000Z</time></trkpt>
        <trkpt lat="29.3291336" lon="105.2438802"><ele>302.77</ele><time>2026-02-13T23:21:50.000Z</time></trkpt>
        <trkpt lat="29.3291303" lon="105.2438653"><ele>302.8</ele><time>2026-02-13T23:22:00.000Z</time></trkpt>
        <trkpt lat="29.3290652" lon="105.2438989"><ele>303.52</ele><time>2026-02-13T23:22:52.000Z</time></trkpt>
        <trkpt lat="29.3289716" lon="105.243954"><ele>302.87</ele><time>2026-02-13T23:23:00.000Z</time></trkpt>
        <trkpt lat="29.3288712" lon="105.2440241"><ele>302.44</ele><time>2026-02-13T23:23:08.000Z</time></trkpt>
        <trkpt lat="29.3287684" lon="105.2440896"><ele>302.13</ele><time>2026-02-13T23:23:16.000Z</time></trkpt>
        <trkpt lat="29.3286623" lon="105.2441476"><ele>302.47</ele><time>2026-02-13T23:23:24.000Z</time></trkpt>
        <trkpt lat="29.3285606" lon="105.2442016"><ele>302.82</ele><time>2026-02-13T23:23:32.000Z</time></trkpt>
        <trkpt lat="29.3284604" lon="105.2442514"><ele>302.75</ele><time>2026-02-13T23:23:40.000Z</time></trkpt>
        <trkpt lat="29.3283626" lon="105.244304"><ele>302.83</ele><time>2026-02-13T23:23:48.000Z</time></trkpt>
        <trkpt lat="29.3282659" lon="105.2443559"><ele>303.07</ele><time>2026-02-13T23:23:56.000Z</time></trkpt>
        <trkpt lat="29.328171" lon="105.2444099"><ele>303.28</ele><time>2026-02-13T23:24:04.000Z</time></trkpt>
        <trkpt lat="29.3280698" lon="105.2444442"><ele>303.31</ele><time>2026-02-13T23:24:12.000Z</time></trkpt>
        <trkpt lat="29.327963" lon="105.2444833"><ele>303.03</ele><time>2026-02-13T23:24:20.000Z</time></trkpt>
        <trkpt lat="29.3278607" lon="105.2445302"><ele>303.11</ele><time>2026-02-13T23:24:28.000Z</time></trkpt>
        <trkpt lat="29.3277562" lon="105.2445767"><ele>303.76</ele><time>2026-02-13T23:24:36.000Z</time></trkpt>
        <trkpt lat="29.3276579" lon="105.2446256"><ele>304.07</ele><time>2026-02-13T23:24:44.000Z</time></trkpt>
        <trkpt lat="29.3275674" lon="105.2446879"><ele>304.09</ele><time>2026-02-13T23:24:52.000Z</time></trkpt>
        <trkpt lat="29.3275201" lon="105.2447855"><ele>304.43</ele><time>2026-02-13T23:25:00.000Z</time></trkpt>
        <trkpt lat="29.3275315" lon="105.2449095"><ele>303.86</ele><time>2026-02-13T23:25:10.000Z</time></trkpt>
        <trkpt lat="29.3275758" lon="105.2450314"><ele>303.19</ele><time>2026-02-13T23:25:18.000Z</time></trkpt>
        <trkpt lat="29.3276304" lon="105.2451454"><ele>302.88</ele><time>2026-02-13T23:25:26.000Z</time></trkpt>
        <trkpt lat="29.3276763" lon="105.2452501"><ele>302.46</ele><time>2026-02-13T23:25:34.000Z</time></trkpt>
        <trkpt lat="29.3276918" lon="105.2453007"><ele>302.22</ele><time>2026-02-13T23:25:40.000Z</time></trkpt>
        <trkpt lat="29.3276159" lon="105.2453246"><ele>302.11</ele><time>2026-02-13T23:25:54.000Z</time></trkpt>
        <trkpt lat="29.3275179" lon="105.2453414"><ele>301.68</ele><time>2026-02-13T23:26:02.000Z</time></trkpt>
        <trkpt lat="29.3274388" lon="105.2453986"><ele>300.92</ele><time>2026-02-13T23:26:12.000Z</time></trkpt>
        <trkpt lat="29.3273613" lon="105.2454618"><ele>300.41</ele><time>2026-02-13T23:26:24.000Z</time></trkpt>
        <trkpt lat="29.3272831" lon="105.2454837"><ele>299.94</ele><time>2026-02-13T23:26:34.000Z</time></trkpt>
        <trkpt lat="29.3271931" lon="105.2455285"><ele>299.12</ele><time>2026-02-13T23:26:46.000Z</time></trkpt>
        <trkpt lat="29.3271288" lon="105.2455868"><ele>298.94</ele><time>2026-02-13T23:26:56.000Z</time></trkpt>
        <trkpt lat="29.3270456" lon="105.2456247"><ele>299.39</ele><time>2026-02-13T23:27:04.000Z</time></trkpt>
        <trkpt lat="29.3269553" lon="105.2456842"><ele>298.92</ele><time>2026-02-13T23:27:12.000Z</time></trkpt>
        <trkpt lat="29.3268542" lon="105.2457035"><ele>298.57</ele><time>2026-02-13T23:27:20.000Z</time></trkpt>
        <trkpt lat="29.3267585" lon="105.2456833"><ele>298.25</ele><time>2026-02-13T23:27:28.000Z</time></trkpt>
        <trkpt lat="29.3266801" lon="105.24572"><ele>298.28</ele><time>2026-02-13T23:27:48.000Z</time></trkpt>
        <trkpt lat="29.3266219" lon="105.2458028"><ele>298.59</ele><time>2026-02-13T23:27:58.000Z</time></trkpt>
        <trkpt lat="29.3265957" lon="105.2458562"><ele>299.53</ele><time>2026-02-13T23:28:04.000Z</time></trkpt>
        <trkpt lat="29.3265967" lon="105.2457346"><ele>301.4</ele><time>2026-02-13T23:31:36.000Z</time></trkpt>
        <trkpt lat="29.3265896" lon="105.2456274"><ele>300.77</ele><time>2026-02-13T23:31:40.000Z</time></trkpt>
        <trkpt lat="29.3265879" lon="105.2455147"><ele>299.72</ele><time>2026-02-13T23:31:44.000Z</time></trkpt>
        <trkpt lat="29.3265839" lon="105.2454044"><ele>298.29</ele><time>2026-02-13T23:31:48.000Z</time></trkpt>
        <trkpt lat="29.3265829" lon="105.2452928"><ele>296.93</ele><time>2026-02-13T23:31:52.000Z</time></trkpt>
        <trkpt lat="29.326576" lon="105.2451835"><ele>295.3</ele><time>2026-02-13T23:31:56.000Z</time></trkpt>
        <trkpt lat="29.3265685" lon="105.2450673"><ele>293.68</ele><time>2026-02-13T23:32:00.000Z</time></trkpt>
        <trkpt lat="29.3265607" lon="105.2449474"><ele>292.53</ele><time>2026-02-13T23:32:04.000Z</time></trkpt>
        <trkpt lat="29.3265583" lon="105.2448375"><ele>291.62</ele><time>2026-02-13T23:32:10.000Z</time></trkpt>
        <trkpt lat="29.3265596" lon="105.2447659"><ele>291.01</ele><time>2026-02-13T23:32:18.000Z</time></trkpt>
        <trkpt lat="29.326575" lon="105.244829"><ele>290.83</ele><time>2026-02-13T23:32:56.000Z</time></trkpt>
        <trkpt lat="29.3265062" lon="105.2449513"><ele>289.68</ele><time>2026-02-13T23:34:24.000Z</time></trkpt>
        <trkpt lat="29.3264202" lon="105.2450046"><ele>288.34</ele><time>2026-02-13T23:34:34.000Z</time></trkpt>
        <trkpt lat="29.3263236" lon="105.2450598"><ele>287.76</ele><time>2026-02-13T23:34:42.000Z</time></trkpt>
        <trkpt lat="29.3262348" lon="105.2451172"><ele>287.91</ele><time>2026-02-13T23:34:50.000Z</time></trkpt>
        <trkpt lat="29.3261956" lon="105.2451461"><ele>287.86</ele><time>2026-02-13T23:34:54.000Z</time></trkpt>
        <trkpt lat="29.3262015" lon="105.2452363"><ele>288.33</ele><time>2026-02-13T23:35:12.000Z</time></trkpt>
        <trkpt lat="29.3262147" lon="105.2453426"><ele>289</ele><time>2026-02-13T23:35:20.000Z</time></trkpt>
        <trkpt lat="29.3262291" lon="105.2454595"><ele>289.36</ele><time>2026-02-13T23:35:28.000Z</time></trkpt>
        <trkpt lat="29.3262379" lon="105.2455835"><ele>289.96</ele><time>2026-02-13T23:35:36.000Z</time></trkpt>
        <trkpt lat="29.3262431" lon="105.2457037"><ele>290.24</ele><time>2026-02-13T23:35:44.000Z</time></trkpt>
        <trkpt lat="29.3262447" lon="105.2458298"><ele>290.87</ele><time>2026-02-13T23:35:52.000Z</time></trkpt>
        <trkpt lat="29.3262462" lon="105.2459596"><ele>292.59</ele><time>2026-02-13T23:36:02.000Z</time></trkpt>
        <trkpt lat="29.3262173" lon="105.2460634"><ele>294.39</ele><time>2026-02-13T23:36:12.000Z</time></trkpt>
        <trkpt lat="29.326156" lon="105.2461464"><ele>294.8</ele><time>2026-02-13T23:36:20.000Z</time></trkpt>
        <trkpt lat="29.3260686" lon="105.2462015"><ele>295.89</ele><time>2026-02-13T23:36:28.000Z</time></trkpt>
        <trkpt lat="29.32597" lon="105.2462294"><ele>296.5</ele><time>2026-02-13T23:36:36.000Z</time></trkpt>
        <trkpt lat="29.3258715" lon="105.2462803"><ele>297.37</ele><time>2026-02-13T23:36:44.000Z</time></trkpt>
        <trkpt lat="29.3257847" lon="105.2463645"><ele>298.53</ele><time>2026-02-13T23:36:52.000Z</time></trkpt>
        <trkpt lat="29.3257101" lon="105.2464664"><ele>299.42</ele><time>2026-02-13T23:37:00.000Z</time></trkpt>
        <trkpt lat="29.3256467" lon="105.246581"><ele>300.37</ele><time>2026-02-13T23:37:08.000Z</time></trkpt>
        <trkpt lat="29.3255785" lon="105.246685"><ele>301.46</ele><time>2026-02-13T23:37:16.000Z</time></trkpt>
        <trkpt lat="29.3255476" lon="105.2467993"><ele>302.55</ele><time>2026-02-13T23:37:26.000Z</time></trkpt>
        <trkpt lat="29.3254676" lon="105.2468758"><ele>302.76</ele><time>2026-02-13T23:37:34.000Z</time></trkpt>
        <trkpt lat="29.3253795" lon="105.2469298"><ele>303.09</ele><time>2026-02-13T23:37:42.000Z</time></trkpt>
        <trkpt lat="29.3253513" lon="105.2469393"><ele>304.92</ele><time>2026-02-13T23:37:44.000Z</time></trkpt>
        <trkpt lat="29.3252733" lon="105.2469545"><ele>306.24</ele><time>2026-02-13T23:38:00.000Z</time></trkpt>
        <trkpt lat="29.3251886" lon="105.2469856"><ele>307.02</ele><time>2026-02-13T23:38:06.000Z</time></trkpt>
        <trkpt lat="29.3250789" lon="105.2470225"><ele>307.67</ele><time>2026-02-13T23:38:14.000Z</time></trkpt>
        <trkpt lat="29.3249649" lon="105.2470275"><ele>308.26</ele><time>2026-02-13T23:38:22.000Z</time></trkpt>
        <trkpt lat="29.3248643" lon="105.2470286"><ele>308.43</ele><time>2026-02-13T23:38:30.000Z</time></trkpt>
        <trkpt lat="29.3247645" lon="105.24701"><ele>308.66</ele><time>2026-02-13T23:38:38.000Z</time></trkpt>
        <trkpt lat="29.324656" lon="105.246989"><ele>308.86</ele><time>2026-02-13T23:38:48.000Z</time></trkpt>
        <trkpt lat="29.3245628" lon="105.246947"><ele>308.86</ele><time>2026-02-13T23:38:56.000Z</time></trkpt>
        <trkpt lat="29.3245003" lon="105.2470002"><ele>308.64</ele><time>2026-02-13T23:39:06.000Z</time></trkpt>
        <trkpt lat="29.3244223" lon="105.2470667"><ele>309.2</ele><time>2026-02-13T23:39:16.000Z</time></trkpt>
        <trkpt lat="29.3243861" lon="105.2471087"><ele>308.7</ele><time>2026-02-13T23:39:20.000Z</time></trkpt>
        <trkpt lat="29.3243421" lon="105.2471947"><ele>309.1</ele><time>2026-02-13T23:39:30.000Z</time></trkpt>
        <trkpt lat="29.3243093" lon="105.2473004"><ele>309.08</ele><time>2026-02-13T23:39:38.000Z</time></trkpt>
        <trkpt lat="29.3242639" lon="105.247401"><ele>309.08</ele><time>2026-02-13T23:39:48.000Z</time></trkpt>
        <trkpt lat="29.3242306" lon="105.2475097"><ele>309.29</ele><time>2026-02-13T23:39:58.000Z</time></trkpt>
        <trkpt lat="29.3242528" lon="105.2476109"><ele>308.96</ele><time>2026-02-13T23:40:06.000Z</time></trkpt>
        <trkpt lat="29.3243205" lon="105.2476947"><ele>308.67</ele><time>2026-02-13T23:40:14.000Z</time></trkpt>
        <trkpt lat="29.3243397" lon="105.2478037"><ele>308.95</ele><time>2026-02-13T23:40:24.000Z</time></trkpt>
        <trkpt lat="29.3243595" lon="105.2479082"><ele>308.96</ele><time>2026-02-13T23:40:30.000Z</time></trkpt>
        <trkpt lat="29.3243111" lon="105.2479975"><ele>308.07</ele><time>2026-02-13T23:40:40.000Z</time></trkpt>
        <trkpt lat="29.3242232" lon="105.2480341"><ele>307.55</ele><time>2026-02-13T23:40:52.000Z</time></trkpt>
        <trkpt lat="29.3241375" lon="105.24809"><ele>307.04</ele><time>2026-02-13T23:41:06.000Z</time></trkpt>
        <trkpt lat="29.3240554" lon="105.248154"><ele>306.82</ele><time>2026-02-13T23:41:16.000Z</time></trkpt>
        <trkpt lat="29.3239523" lon="105.2481838"><ele>306.64</ele><time>2026-02-13T23:41:26.000Z</time></trkpt>
        <trkpt lat="29.3238476" lon="105.2481906"><ele>306.29</ele><time>2026-02-13T23:41:34.000Z</time></trkpt>
        <trkpt lat="29.3237387" lon="105.2481844"><ele>305.66</ele><time>2026-02-13T23:41:42.000Z</time></trkpt>
        <trkpt lat="29.3236952" lon="105.2481758"><ele>305.32</ele><time>2026-02-13T23:41:44.000Z</time></trkpt>
        <trkpt lat="29.3237091" lon="105.2482482"><ele>305.73</ele><time>2026-02-13T23:41:54.000Z</time></trkpt>
        <trkpt lat="29.3237014" lon="105.248364"><ele>307.47</ele><time>2026-02-13T23:42:04.000Z</time></trkpt>
        <trkpt lat="29.3236986" lon="105.2484831"><ele>309.5</ele><time>2026-02-13T23:42:12.000Z</time></trkpt>
        <trkpt lat="29.3236777" lon="105.2485429"><ele>311.43</ele><time>2026-02-13T23:42:18.000Z</time></trkpt>
        <trkpt lat="29.3236394" lon="105.2486259"><ele>312.85</ele><time>2026-02-13T23:42:44.000Z</time></trkpt>
        <trkpt lat="29.3236659" lon="105.2487162"><ele>313.3</ele><time>2026-02-13T23:42:54.000Z</time></trkpt>
        <trkpt lat="29.323739" lon="105.2487858"><ele>313.72</ele><time>2026-02-13T23:43:02.000Z</time></trkpt>
        <trkpt lat="29.3237723" lon="105.2488384"><ele>314.73</ele><time>2026-02-13T23:43:08.000Z</time></trkpt>
        <trkpt lat="29.3237231" lon="105.2489176"><ele>315.21</ele><time>2026-02-13T23:43:34.000Z</time></trkpt>
        <trkpt lat="29.3236406" lon="105.2490021"><ele>315.83</ele><time>2026-02-13T23:43:42.000Z</time></trkpt>
        <trkpt lat="29.3235435" lon="105.2490836"><ele>316.55</ele><time>2026-02-13T23:43:50.000Z</time></trkpt>
        <trkpt lat="29.3234567" lon="105.2491683"><ele>316.76</ele><time>2026-02-13T23:43:58.000Z</time></trkpt>
        <trkpt lat="29.3233641" lon="105.2492535"><ele>316.58</ele><time>2026-02-13T23:44:06.000Z</time></trkpt>
        <trkpt lat="29.3232885" lon="105.2493313"><ele>315.75</ele><time>2026-02-13T23:44:12.000Z</time></trkpt>
        <trkpt lat="29.3232225" lon="105.2494043"><ele>315.07</ele><time>2026-02-13T23:44:18.000Z</time></trkpt>
        <trkpt lat="29.3231591" lon="105.2494759"><ele>314.39</ele><time>2026-02-13T23:44:24.000Z</time></trkpt>
        <trkpt lat="29.323145" lon="105.2494928"><ele>314.03</ele><time>2026-02-13T23:44:26.000Z</time></trkpt>
        <trkpt lat="29.323093" lon="105.2495417"><ele>313.67</ele><time>2026-02-13T23:44:46.000Z</time></trkpt>
        <trkpt lat="29.3230182" lon="105.2496079"><ele>312.92</ele><time>2026-02-13T23:44:54.000Z</time></trkpt>
        <trkpt lat="29.3229186" lon="105.2496683"><ele>312.09</ele><time>2026-02-13T23:45:10.000Z</time></trkpt>
        <trkpt lat="29.3228052" lon="105.2496987"><ele>311.47</ele><time>2026-02-13T23:45:18.000Z</time></trkpt>
        <trkpt lat="29.3226894" lon="105.249715"><ele>310.39</ele><time>2026-02-13T23:45:26.000Z</time></trkpt>
        <trkpt lat="29.3226057" lon="105.249712"><ele>309.6</ele><time>2026-02-13T23:45:32.000Z</time></trkpt>
        <trkpt lat="29.3225917" lon="105.2497909"><ele>308.75</ele><time>2026-02-13T23:46:02.000Z</time></trkpt>
        <trkpt lat="29.3226227" lon="105.2497284"><ele>307.62</ele><time>2026-02-13T23:46:10.000Z</time></trkpt>
        <trkpt lat="29.3227247" lon="105.2496935"><ele>305</ele><time>2026-02-13T23:46:18.000Z</time></trkpt>
        <trkpt lat="29.3228355" lon="105.2496774"><ele>303.94</ele><time>2026-02-13T23:46:26.000Z</time></trkpt>
        <trkpt lat="29.3229537" lon="105.2496358"><ele>304.53</ele><time>2026-02-13T23:46:34.000Z</time></trkpt>
        <trkpt lat="29.3230584" lon="105.2495597"><ele>305.97</ele><time>2026-02-13T23:46:42.000Z</time></trkpt>
        <trkpt lat="29.3231363" lon="105.2494823"><ele>307.76</ele><time>2026-02-13T23:46:48.000Z</time></trkpt>
        <trkpt lat="29.3232132" lon="105.2493882"><ele>309.46</ele><time>2026-02-13T23:46:56.000Z</time></trkpt>
        <trkpt lat="29.3232929" lon="105.2492955"><ele>311.19</ele><time>2026-02-13T23:47:04.000Z</time></trkpt>
        <trkpt lat="29.3233727" lon="105.2492062"><ele>312.95</ele><time>2026-02-13T23:47:12.000Z</time></trkpt>
        <trkpt lat="29.3234566" lon="105.2491166"><ele>314.35</ele><time>2026-02-13T23:47:20.000Z</time></trkpt>
        <trkpt lat="29.323531" lon="105.2490438"><ele>315.43</ele><time>2026-02-13T23:47:26.000Z</time></trkpt>
        <trkpt lat="29.3236201" lon="105.2489714"><ele>316.38</ele><time>2026-02-13T23:47:34.000Z</time></trkpt>
        <trkpt lat="29.3236374" lon="105.2490491"><ele>317.58</ele><time>2026-02-13T23:47:44.000Z</time></trkpt>
        <trkpt lat="29.3235815" lon="105.2491691"><ele>319.1</ele><time>2026-02-13T23:47:52.000Z</time></trkpt>
        <trkpt lat="29.3235102" lon="105.2492923"><ele>320.66</ele><time>2026-02-13T23:48:00.000Z</time></trkpt>
        <trkpt lat="29.3234377" lon="105.2493957"><ele>321.67</ele><time>2026-02-13T23:48:08.000Z</time></trkpt>
        <trkpt lat="29.3233734" lon="105.2495035"><ele>321.36</ele><time>2026-02-13T23:48:16.000Z</time></trkpt>
        <trkpt lat="29.3233104" lon="105.2496059"><ele>321.89</ele><time>2026-02-13T23:48:24.000Z</time></trkpt>
        <trkpt lat="29.3232395" lon="105.2497032"><ele>322.84</ele><time>2026-02-13T23:48:32.000Z</time></trkpt>
        <trkpt lat="29.323176" lon="105.2498143"><ele>323.67</ele><time>2026-02-13T23:48:40.000Z</time></trkpt>
        <trkpt lat="29.3231285" lon="105.249923"><ele>323.95</ele><time>2026-02-13T23:48:48.000Z</time></trkpt>
        <trkpt lat="29.3230898" lon="105.2500289"><ele>324.86</ele><time>2026-02-13T23:48:56.000Z</time></trkpt>
        <trkpt lat="29.3230498" lon="105.2501483"><ele>325.48</ele><time>2026-02-13T23:49:04.000Z</time></trkpt>
        <trkpt lat="29.3230115" lon="105.2502721"><ele>326.66</ele><time>2026-02-13T23:49:12.000Z</time></trkpt>
        <trkpt lat="29.3230169" lon="105.2503836"><ele>327.76</ele><time>2026-02-13T23:49:20.000Z</time></trkpt>
        <trkpt lat="29.3230437" lon="105.2504999"><ele>328.3</ele><time>2026-02-13T23:49:28.000Z</time></trkpt>
        <trkpt lat="29.3230858" lon="105.2506246"><ele>328.39</ele><time>2026-02-13T23:49:36.000Z</time></trkpt>
        <trkpt lat="29.3231534" lon="105.2507397"><ele>328.09</ele><time>2026-02-13T23:49:44.000Z</time></trkpt>
        <trkpt lat="29.3232087" lon="105.2508359"><ele>327.35</ele><time>2026-02-13T23:49:50.000Z</time></trkpt>
        <trkpt lat="29.3232681" lon="105.2509439"><ele>326.7</ele><time>2026-02-13T23:49:58.000Z</time></trkpt>
        <trkpt lat="29.3233306" lon="105.2510396"><ele>325.7</ele><time>2026-02-13T23:50:08.000Z</time></trkpt>
        <trkpt lat="29.3233964" lon="105.2511289"><ele>323.12</ele><time>2026-02-13T23:50:14.000Z</time></trkpt>
        <trkpt lat="29.3234671" lon="105.2512045"><ele>321.56</ele><time>2026-02-13T23:50:20.000Z</time></trkpt>
        <trkpt lat="29.3235407" lon="105.2512781"><ele>320.62</ele><time>2026-02-13T23:50:26.000Z</time></trkpt>
        <trkpt lat="29.3236115" lon="105.2513482"><ele>319.96</ele><time>2026-02-13T23:50:32.000Z</time></trkpt>
        <trkpt lat="29.3236811" lon="105.2514145"><ele>320.11</ele><time>2026-02-13T23:50:38.000Z</time></trkpt>
        <trkpt lat="29.3237703" lon="105.2514702"><ele>320.82</ele><time>2026-02-13T23:50:46.000Z</time></trkpt>
        <trkpt lat="29.3238729" lon="105.251528"><ele>320.86</ele><time>2026-02-13T23:50:54.000Z</time></trkpt>
        <trkpt lat="29.323969" lon="105.2515991"><ele>321.01</ele><time>2026-02-13T23:51:02.000Z</time></trkpt>
        <trkpt lat="29.3240599" lon="105.2516726"><ele>320.99</ele><time>2026-02-13T23:51:10.000Z</time></trkpt>
        <trkpt lat="29.3241634" lon="105.2517222"><ele>320.55</ele><time>2026-02-13T23:51:18.000Z</time></trkpt>
        <trkpt lat="29.3242657" lon="105.2517757"><ele>320.18</ele><time>2026-02-13T23:51:28.000Z</time></trkpt>
        <trkpt lat="29.3243656" lon="105.2518361"><ele>320.74</ele><time>2026-02-13T23:51:36.000Z</time></trkpt>
        <trkpt lat="29.3244495" lon="105.2519112"><ele>321.52</ele><time>2026-02-13T23:51:44.000Z</time></trkpt>
        <trkpt lat="29.324535" lon="105.251999"><ele>322.25</ele><time>2026-02-13T23:51:52.000Z</time></trkpt>
        <trkpt lat="29.3246354" lon="105.2520288"><ele>322.61</ele><time>2026-02-13T23:52:00.000Z</time></trkpt>
        <trkpt lat="29.3247322" lon="105.252014"><ele>323.67</ele><time>2026-02-13T23:52:08.000Z</time></trkpt>
        <trkpt lat="29.3248426" lon="105.2520171"><ele>325.41</ele><time>2026-02-13T23:52:16.000Z</time></trkpt>
        <trkpt lat="29.3249403" lon="105.2520402"><ele>326.38</ele><time>2026-02-13T23:52:22.000Z</time></trkpt>
        <trkpt lat="29.3250434" lon="105.252036"><ele>326.76</ele><time>2026-02-13T23:52:30.000Z</time></trkpt>
        <trkpt lat="29.3251414" lon="105.2519838"><ele>327.2</ele><time>2026-02-13T23:52:38.000Z</time></trkpt>
        <trkpt lat="29.3252316" lon="105.2519852"><ele>327.13</ele><time>2026-02-13T23:52:44.000Z</time></trkpt>
        <trkpt lat="29.3253093" lon="105.2520354"><ele>326.31</ele><time>2026-02-13T23:52:50.000Z</time></trkpt>
        <trkpt lat="29.3254142" lon="105.252072"><ele>325.73</ele><time>2026-02-13T23:52:58.000Z</time></trkpt>
        <trkpt lat="29.3255138" lon="105.2520873"><ele>325.69</ele><time>2026-02-13T23:53:04.000Z</time></trkpt>
        <trkpt lat="29.3256018" lon="105.2521257"><ele>325.49</ele><time>2026-02-13T23:53:10.000Z</time></trkpt>
        <trkpt lat="29.3257034" lon="105.2521554"><ele>325.14</ele><time>2026-02-13T23:53:18.000Z</time></trkpt>
        <trkpt lat="29.3257682" lon="105.2520812"><ele>324.63</ele><time>2026-02-13T23:53:26.000Z</time></trkpt>
        <trkpt lat="29.3258013" lon="105.2519691"><ele>325.18</ele><time>2026-02-13T23:53:34.000Z</time></trkpt>
        <trkpt lat="29.325878" lon="105.2519331"><ele>326.44</ele><time>2026-02-13T23:53:40.000Z</time></trkpt>
        <trkpt lat="29.3259757" lon="105.2519122"><ele>327.91</ele><time>2026-02-13T23:53:46.000Z</time></trkpt>
        <trkpt lat="29.3260821" lon="105.2519024"><ele>331.36</ele><time>2026-02-13T23:53:58.000Z</time></trkpt>
        <trkpt lat="29.3261867" lon="105.2519002"><ele>334.48</ele><time>2026-02-13T23:54:10.000Z</time></trkpt>
        <trkpt lat="29.3262793" lon="105.251862"><ele>337.88</ele><time>2026-02-13T23:54:26.000Z</time></trkpt>
        <trkpt lat="29.3263378" lon="105.2517758"><ele>345.44</ele><time>2026-02-13T23:54:44.000Z</time></trkpt>
        <trkpt lat="29.3263605" lon="105.2517134"><ele>351.15</ele><time>2026-02-13T23:54:52.000Z</time></trkpt>
        <trkpt lat="29.3264156" lon="105.2517421"><ele>354.94</ele><time>2026-02-13T23:55:40.000Z</time></trkpt>
        <trkpt lat="29.3263623" lon="105.2517374"><ele>356.68</ele><time>2026-02-13T23:56:22.000Z</time></trkpt>
        <trkpt lat="29.3263074" lon="105.2516518"><ele>358.73</ele><time>2026-02-13T23:56:46.000Z</time></trkpt>
        <trkpt lat="29.3262803" lon="105.2516123"><ele>359.35</ele><time>2026-02-13T23:56:50.000Z</time></trkpt>
        <trkpt lat="29.3262204" lon="105.2515471"><ele>359.51</ele><time>2026-02-13T23:57:08.000Z</time></trkpt>
        <trkpt lat="29.3262607" lon="105.2515852"><ele>357.74</ele><time>2026-02-13T23:57:24.000Z</time></trkpt>
        <trkpt lat="29.3262921" lon="105.2516975"><ele>356.05</ele><time>2026-02-13T23:57:38.000Z</time></trkpt>
        <trkpt lat="29.326283" lon="105.2517767"><ele>354.58</ele><time>2026-02-13T23:57:50.000Z</time></trkpt>
        <trkpt lat="29.326268" lon="105.2518786"><ele>354.63</ele><time>2026-02-13T23:58:22.000Z</time></trkpt>
        <trkpt lat="29.326205" lon="105.2519627"><ele>354.68</ele><time>2026-02-13T23:58:32.000Z</time></trkpt>
        <trkpt lat="29.3261885" lon="105.2520757"><ele>353.32</ele><time>2026-02-13T23:58:42.000Z</time></trkpt>
        <trkpt lat="29.3262274" lon="105.2521726"><ele>352.18</ele><time>2026-02-13T23:58:50.000Z</time></trkpt>
        <trkpt lat="29.326256" lon="105.2522797"><ele>351.42</ele><time>2026-02-13T23:58:58.000Z</time></trkpt>
        <trkpt lat="29.3262688" lon="105.2523391"><ele>350.22</ele><time>2026-02-13T23:59:02.000Z</time></trkpt>
        <trkpt lat="29.3263015" lon="105.2524457"><ele>349.3</ele><time>2026-02-14T00:00:06.000Z</time></trkpt>
        <trkpt lat="29.3263085" lon="105.252553"><ele>348.69</ele><time>2026-02-14T00:00:14.000Z</time></trkpt>
        <trkpt lat="29.3263016" lon="105.2526709"><ele>349.02</ele><time>2026-02-14T00:00:22.000Z</time></trkpt>
        <trkpt lat="29.3262541" lon="105.252762"><ele>348.42</ele><time>2026-02-14T00:00:28.000Z</time></trkpt>
        <trkpt lat="29.326176" lon="105.2528699"><ele>347.14</ele><time>2026-02-14T00:00:34.000Z</time></trkpt>
        <trkpt lat="29.3260862" lon="105.2529633"><ele>347.9</ele><time>2026-02-14T00:00:40.000Z</time></trkpt>
        <trkpt lat="29.3260022" lon="105.2530488"><ele>352.41</ele><time>2026-02-14T00:00:50.000Z</time></trkpt>
        <trkpt lat="29.3259247" lon="105.2531227"><ele>355.08</ele><time>2026-02-14T00:00:58.000Z</time></trkpt>
        <trkpt lat="29.3258431" lon="105.2531938"><ele>355.05</ele><time>2026-02-14T00:01:06.000Z</time></trkpt>
        <trkpt lat="29.3257709" lon="105.2532665"><ele>355.19</ele><time>2026-02-14T00:01:14.000Z</time></trkpt>
        <trkpt lat="29.3257199" lon="105.2533534"><ele>356.07</ele><time>2026-02-14T00:01:22.000Z</time></trkpt>
        <trkpt lat="29.3256897" lon="105.2534507"><ele>356.7</ele><time>2026-02-14T00:01:30.000Z</time></trkpt>
        <trkpt lat="29.3257169" lon="105.2535573"><ele>356.97</ele><time>2026-02-14T00:01:40.000Z</time></trkpt>
        <trkpt lat="29.3257895" lon="105.2536566"><ele>357.25</ele><time>2026-02-14T00:01:50.000Z</time></trkpt>
        <trkpt lat="29.3258752" lon="105.2537581"><ele>356.9</ele><time>2026-02-14T00:01:58.000Z</time></trkpt>
        <trkpt lat="29.3259454" lon="105.2538478"><ele>356.15</ele><time>2026-02-14T00:02:04.000Z</time></trkpt>
        <trkpt lat="29.3259932" lon="105.2539654"><ele>355.76</ele><time>2026-02-14T00:02:12.000Z</time></trkpt>
        <trkpt lat="29.3260246" lon="105.2540724"><ele>355.19</ele><time>2026-02-14T00:02:18.000Z</time></trkpt>
        <trkpt lat="29.3260462" lon="105.2541926"><ele>354.22</ele><time>2026-02-14T00:02:26.000Z</time></trkpt>
        <trkpt lat="29.3260503" lon="105.2543225"><ele>353.56</ele><time>2026-02-14T00:02:34.000Z</time></trkpt>
        <trkpt lat="29.32603" lon="105.2544545"><ele>352.85</ele><time>2026-02-14T00:02:42.000Z</time></trkpt>
        <trkpt lat="29.3260024" lon="105.2545842"><ele>352.32</ele><time>2026-02-14T00:02:50.000Z</time></trkpt>
        <trkpt lat="29.32599" lon="105.2547141"><ele>351.52</ele><time>2026-02-14T00:02:58.000Z</time></trkpt>
        <trkpt lat="29.3259848" lon="105.2547585"><ele>350.5</ele><time>2026-02-14T00:03:02.000Z</time></trkpt>
        <trkpt lat="29.3259906" lon="105.2548477"><ele>350.46</ele><time>2026-02-14T00:03:14.000Z</time></trkpt>
        <trkpt lat="29.3260301" lon="105.2549502"><ele>350.72</ele><time>2026-02-14T00:03:22.000Z</time></trkpt>
        <trkpt lat="29.3260295" lon="105.2550734"><ele>350.33</ele><time>2026-02-14T00:03:32.000Z</time></trkpt>
        <trkpt lat="29.3259849" lon="105.2551973"><ele>349.81</ele><time>2026-02-14T00:03:40.000Z</time></trkpt>
        <trkpt lat="29.3259365" lon="105.2553227"><ele>348.11</ele><time>2026-02-14T00:03:48.000Z</time></trkpt>
        <trkpt lat="29.3258805" lon="105.2554301"><ele>345.94</ele><time>2026-02-14T00:03:54.000Z</time></trkpt>
        <trkpt lat="29.3257934" lon="105.2554838"><ele>344.62</ele><time>2026-02-14T00:04:06.000Z</time></trkpt>
        <trkpt lat="29.3257895" lon="105.2555633"><ele>342.93</ele><time>2026-02-14T00:04:14.000Z</time></trkpt>
        <trkpt lat="29.325761" lon="105.2556644"><ele>342.07</ele><time>2026-02-14T00:04:22.000Z</time></trkpt>
        <trkpt lat="29.325694" lon="105.2557556"><ele>340.63</ele><time>2026-02-14T00:04:30.000Z</time></trkpt>
        <trkpt lat="29.3256529" lon="105.2558717"><ele>338.77</ele><time>2026-02-14T00:04:38.000Z</time></trkpt>
        <trkpt lat="29.3256293" lon="105.2560005"><ele>337.33</ele><time>2026-02-14T00:04:46.000Z</time></trkpt>
        <trkpt lat="29.3256206" lon="105.2561273"><ele>336.49</ele><time>2026-02-14T00:04:54.000Z</time></trkpt>
        <trkpt lat="29.3256134" lon="105.2562216"><ele>335.76</ele><time>2026-02-14T00:05:00.000Z</time></trkpt>
        <trkpt lat="29.3256756" lon="105.2562893"><ele>334.96</ele><time>2026-02-14T00:05:44.000Z</time></trkpt>
        <trkpt lat="29.3257763" lon="105.2563199"><ele>333.57</ele><time>2026-02-14T00:05:52.000Z</time></trkpt>
        <trkpt lat="29.3258921" lon="105.256339"><ele>332.76</ele><time>2026-02-14T00:06:00.000Z</time></trkpt>
        <trkpt lat="29.3260104" lon="105.2563228"><ele>332.67</ele><time>2026-02-14T00:06:08.000Z</time></trkpt>
        <trkpt lat="29.3261279" lon="105.2563244"><ele>333.38</ele><time>2026-02-14T00:06:16.000Z</time></trkpt>
        <trkpt lat="29.3262091" lon="105.2564071"><ele>334.64</ele><time>2026-02-14T00:06:24.000Z</time></trkpt>
        <trkpt lat="29.3262457" lon="105.2565129"><ele>335.77</ele><time>2026-02-14T00:06:30.000Z</time></trkpt>
        <trkpt lat="29.3262793" lon="105.2566155"><ele>336.4</ele><time>2026-02-14T00:06:36.000Z</time></trkpt>
        <trkpt lat="29.3263244" lon="105.256707"><ele>336.8</ele><time>2026-02-14T00:06:42.000Z</time></trkpt>
        <trkpt lat="29.3263916" lon="105.2568075"><ele>337.13</ele><time>2026-02-14T00:06:50.000Z</time></trkpt>
        <trkpt lat="29.3264367" lon="105.2569073"><ele>337</ele><time>2026-02-14T00:06:56.000Z</time></trkpt>
        <trkpt lat="29.32647" lon="105.2570306"><ele>336.69</ele><time>2026-02-14T00:07:04.000Z</time></trkpt>
        <trkpt lat="29.3264885" lon="105.257143"><ele>336.06</ele><time>2026-02-14T00:07:10.000Z</time></trkpt>
        <trkpt lat="29.3265059" lon="105.2572505"><ele>335.25</ele><time>2026-02-14T00:07:16.000Z</time></trkpt>
        <trkpt lat="29.3265275" lon="105.2573514"><ele>334.34</ele><time>2026-02-14T00:07:22.000Z</time></trkpt>
        <trkpt lat="29.3265468" lon="105.2574522"><ele>333.36</ele><time>2026-02-14T00:07:28.000Z</time></trkpt>
        <trkpt lat="29.3265408" lon="105.2575764"><ele>331.71</ele><time>2026-02-14T00:07:36.000Z</time></trkpt>
        <trkpt lat="29.3265007" lon="105.2577002"><ele>330.2</ele><time>2026-02-14T00:07:44.000Z</time></trkpt>
        <trkpt lat="29.3264526" lon="105.2578274"><ele>329.11</ele><time>2026-02-14T00:07:52.000Z</time></trkpt>
        <trkpt lat="29.3264066" lon="105.2579331"><ele>327.84</ele><time>2026-02-14T00:07:58.000Z</time></trkpt>
        <trkpt lat="29.3263526" lon="105.2580501"><ele>326.56</ele><time>2026-02-14T00:08:06.000Z</time></trkpt>
        <trkpt lat="29.3262875" lon="105.2581636"><ele>325.4</ele><time>2026-02-14T00:08:14.000Z</time></trkpt>
        <trkpt lat="29.326234" lon="105.2582608"><ele>324.44</ele><time>2026-02-14T00:08:20.000Z</time></trkpt>
        <trkpt lat="29.3262068" lon="105.2583635"><ele>323.61</ele><time>2026-02-14T00:08:26.000Z</time></trkpt>
        <trkpt lat="29.3261914" lon="105.2584888"><ele>322.63</ele><time>2026-02-14T00:08:34.000Z</time></trkpt>
        <trkpt lat="29.3261589" lon="105.2586127"><ele>321.78</ele><time>2026-02-14T00:08:42.000Z</time></trkpt>
        <trkpt lat="29.3261468" lon="105.2587226"><ele>321.05</ele><time>2026-02-14T00:08:48.000Z</time></trkpt>
        <trkpt lat="29.3261967" lon="105.2588263"><ele>319.72</ele><time>2026-02-14T00:08:56.000Z</time></trkpt>
        <trkpt lat="29.3263001" lon="105.2588379"><ele>318.34</ele><time>2026-02-14T00:09:04.000Z</time></trkpt>
        <trkpt lat="29.326405" lon="105.2588079"><ele>317.73</ele><time>2026-02-14T00:09:10.000Z</time></trkpt>
        <trkpt lat="29.3265045" lon="105.2587674"><ele>317.46</ele><time>2026-02-14T00:09:16.000Z</time></trkpt>
        <trkpt lat="29.3265992" lon="105.2587292"><ele>317.24</ele><time>2026-02-14T00:09:22.000Z</time></trkpt>
        <trkpt lat="29.3266844" lon="105.258682"><ele>316.9</ele><time>2026-02-14T00:09:28.000Z</time></trkpt>
        <trkpt lat="29.3267583" lon="105.2586196"><ele>316.76</ele><time>2026-02-14T00:09:34.000Z</time></trkpt>
        <trkpt lat="29.3268243" lon="105.2585448"><ele>316.31</ele><time>2026-02-14T00:09:40.000Z</time></trkpt>
        <trkpt lat="29.3268911" lon="105.258465"><ele>315.81</ele><time>2026-02-14T00:09:46.000Z</time></trkpt>
        <trkpt lat="29.3269736" lon="105.2584205"><ele>315.55</ele><time>2026-02-14T00:09:52.000Z</time></trkpt>
        <trkpt lat="29.3270736" lon="105.258427"><ele>314.56</ele><time>2026-02-14T00:09:58.000Z</time></trkpt>
        <trkpt lat="29.3271661" lon="105.2584733"><ele>313.23</ele><time>2026-02-14T00:10:04.000Z</time></trkpt>
        <trkpt lat="29.3272543" lon="105.2585248"><ele>312.53</ele><time>2026-02-14T00:10:10.000Z</time></trkpt>
        <trkpt lat="29.327343" lon="105.2585721"><ele>312.14</ele><time>2026-02-14T00:10:16.000Z</time></trkpt>
        <trkpt lat="29.3274329" lon="105.2586139"><ele>311.74</ele><time>2026-02-14T00:10:22.000Z</time></trkpt>
        <trkpt lat="29.3275245" lon="105.2586863"><ele>311.84</ele><time>2026-02-14T00:10:30.000Z</time></trkpt>
        <trkpt lat="29.3275844" lon="105.2587822"><ele>311.81</ele><time>2026-02-14T00:10:36.000Z</time></trkpt>
        <trkpt lat="29.3276277" lon="105.2588851"><ele>311.65</ele><time>2026-02-14T00:10:42.000Z</time></trkpt>
        <trkpt lat="29.3276626" lon="105.2589873"><ele>311.7</ele><time>2026-02-14T00:10:48.000Z</time></trkpt>
        <trkpt lat="29.3277114" lon="105.25908"><ele>311.66</ele><time>2026-02-14T00:10:54.000Z</time></trkpt>
        <trkpt lat="29.3277753" lon="105.2591527"><ele>311.7</ele><time>2026-02-14T00:11:00.000Z</time></trkpt>
        <trkpt lat="29.3278591" lon="105.2591835"><ele>311.62</ele><time>2026-02-14T00:11:06.000Z</time></trkpt>
        <trkpt lat="29.327953" lon="105.2591777"><ele>311.95</ele><time>2026-02-14T00:11:12.000Z</time></trkpt>
        <trkpt lat="29.3280484" lon="105.2591555"><ele>312.69</ele><time>2026-02-14T00:11:18.000Z</time></trkpt>
        <trkpt lat="29.328155" lon="105.2591113"><ele>313.72</ele><time>2026-02-14T00:11:26.000Z</time></trkpt>
        <trkpt lat="29.3282538" lon="105.2590505"><ele>315.3</ele><time>2026-02-14T00:11:34.000Z</time></trkpt>
        <trkpt lat="29.3283396" lon="105.2589775"><ele>316.67</ele><time>2026-02-14T00:11:42.000Z</time></trkpt>
        <trkpt lat="29.3284091" lon="105.2588993"><ele>317.68</ele><time>2026-02-14T00:11:50.000Z</time></trkpt>
        <trkpt lat="29.3284798" lon="105.2588325"><ele>318.6</ele><time>2026-02-14T00:11:56.000Z</time></trkpt>
        <trkpt lat="29.3285739" lon="105.2587573"><ele>319.03</ele><time>2026-02-14T00:12:04.000Z</time></trkpt>
        <trkpt lat="29.3286571" lon="105.2586945"><ele>319.34</ele><time>2026-02-14T00:12:10.000Z</time></trkpt>
        <trkpt lat="29.3287395" lon="105.2586379"><ele>319.4</ele><time>2026-02-14T00:12:16.000Z</time></trkpt>
        <trkpt lat="29.3288383" lon="105.2585802"><ele>319.19</ele><time>2026-02-14T00:12:24.000Z</time></trkpt>
        <trkpt lat="29.3289294" lon="105.2585353"><ele>318.97</ele><time>2026-02-14T00:12:30.000Z</time></trkpt>
        <trkpt lat="29.3290341" lon="105.2584847"><ele>318.6</ele><time>2026-02-14T00:12:38.000Z</time></trkpt>
        <trkpt lat="29.3291495" lon="105.2584569"><ele>318.81</ele><time>2026-02-14T00:12:46.000Z</time></trkpt>
        <trkpt lat="29.3292685" lon="105.2584494"><ele>319.04</ele><time>2026-02-14T00:12:54.000Z</time></trkpt>
        <trkpt lat="29.3293677" lon="105.2584424"><ele>319.61</ele><time>2026-02-14T00:13:00.000Z</time></trkpt>
        <trkpt lat="29.3294611" lon="105.2584491"><ele>320.12</ele><time>2026-02-14T00:13:06.000Z</time></trkpt>
        <trkpt lat="29.3295719" lon="105.2584564"><ele>320.35</ele><time>2026-02-14T00:13:14.000Z</time></trkpt>
        <trkpt lat="29.3296714" lon="105.2584633"><ele>320.62</ele><time>2026-02-14T00:13:20.000Z</time></trkpt>
        <trkpt lat="29.329771" lon="105.2584616"><ele>320.54</ele><time>2026-02-14T00:13:26.000Z</time></trkpt>
        <trkpt lat="29.3298681" lon="105.2584515"><ele>320.12</ele><time>2026-02-14T00:13:32.000Z</time></trkpt>
        <trkpt lat="29.3299633" lon="105.2584398"><ele>320.15</ele><time>2026-02-14T00:13:38.000Z</time></trkpt>
        <trkpt lat="29.3300588" lon="105.258433"><ele>320.29</ele><time>2026-02-14T00:13:44.000Z</time></trkpt>
        <trkpt lat="29.3301552" lon="105.2584318"><ele>320.34</ele><time>2026-02-14T00:13:50.000Z</time></trkpt>
        <trkpt lat="29.330251" lon="105.2584319"><ele>320.64</ele><time>2026-02-14T00:13:56.000Z</time></trkpt>
        <trkpt lat="29.3303631" lon="105.2584278"><ele>320.79</ele><time>2026-02-14T00:14:04.000Z</time></trkpt>
        <trkpt lat="29.3304649" lon="105.2584206"><ele>320.93</ele><time>2026-02-14T00:14:10.000Z</time></trkpt>
        <trkpt lat="29.3305586" lon="105.2583996"><ele>321.2</ele><time>2026-02-14T00:14:16.000Z</time></trkpt>
        <trkpt lat="29.330652" lon="105.2583748"><ele>321.57</ele><time>2026-02-14T00:14:22.000Z</time></trkpt>
        <trkpt lat="29.3307426" lon="105.2583388"><ele>322.07</ele><time>2026-02-14T00:14:28.000Z</time></trkpt>
        <trkpt lat="29.3308423" lon="105.2582833"><ele>322.77</ele><time>2026-02-14T00:14:34.000Z</time></trkpt>
        <trkpt lat="29.3309288" lon="105.258208"><ele>324.11</ele><time>2026-02-14T00:14:42.000Z</time></trkpt>
        <trkpt lat="29.3310136" lon="105.258126"><ele>325.74</ele><time>2026-02-14T00:14:50.000Z</time></trkpt>
        <trkpt lat="29.3311119" lon="105.258055"><ele>327.17</ele><time>2026-02-14T00:14:58.000Z</time></trkpt>
        <trkpt lat="29.3312002" lon="105.2580035"><ele>327.61</ele><time>2026-02-14T00:15:04.000Z</time></trkpt>
        <trkpt lat="29.3312851" lon="105.2579532"><ele>327.62</ele><time>2026-02-14T00:15:10.000Z</time></trkpt>
        <trkpt lat="29.3313752" lon="105.2579241"><ele>327.56</ele><time>2026-02-14T00:15:16.000Z</time></trkpt>
        <trkpt lat="29.331472" lon="105.2579181"><ele>327.55</ele><time>2026-02-14T00:15:22.000Z</time></trkpt>
        <trkpt lat="29.3315666" lon="105.2579191"><ele>327.8</ele><time>2026-02-14T00:15:28.000Z</time></trkpt>
        <trkpt lat="29.3316616" lon="105.2579285"><ele>328.01</ele><time>2026-02-14T00:15:34.000Z</time></trkpt>
        <trkpt lat="29.3317558" lon="105.2579717"><ele>328.27</ele><time>2026-02-14T00:15:40.000Z</time></trkpt>
        <trkpt lat="29.3318369" lon="105.2580516"><ele>327.3</ele><time>2026-02-14T00:15:46.000Z</time></trkpt>
        <trkpt lat="29.3319173" lon="105.2581133"><ele>326.52</ele><time>2026-02-14T00:15:52.000Z</time></trkpt>
        <trkpt lat="29.3320059" lon="105.2581461"><ele>326.01</ele><time>2026-02-14T00:15:58.000Z</time></trkpt>
        <trkpt lat="29.3320951" lon="105.2581862"><ele>326.27</ele><time>2026-02-14T00:16:04.000Z</time></trkpt>
        <trkpt lat="29.3321793" lon="105.2582419"><ele>325.92</ele><time>2026-02-14T00:16:10.000Z</time></trkpt>
        <trkpt lat="29.3322576" lon="105.2583115"><ele>324.63</ele><time>2026-02-14T00:16:16.000Z</time></trkpt>
        <trkpt lat="29.3323381" lon="105.2584055"><ele>323.4</ele><time>2026-02-14T00:16:24.000Z</time></trkpt>
        <trkpt lat="29.3324225" lon="105.2585042"><ele>322.41</ele><time>2026-02-14T00:16:32.000Z</time></trkpt>
        <trkpt lat="29.3325213" lon="105.2585848"><ele>321.71</ele><time>2026-02-14T00:16:40.000Z</time></trkpt>
        <trkpt lat="29.3326153" lon="105.2586106"><ele>320.68</ele><time>2026-02-14T00:16:46.000Z</time></trkpt>
        <trkpt lat="29.3327285" lon="105.2586032"><ele>319.5</ele><time>2026-02-14T00:16:54.000Z</time></trkpt>
        <trkpt lat="29.3328291" lon="105.2586003"><ele>318.29</ele><time>2026-02-14T00:17:00.000Z</time></trkpt>
        <trkpt lat="29.3329212" lon="105.2586071"><ele>317.26</ele><time>2026-02-14T00:17:06.000Z</time></trkpt>
        <trkpt lat="29.3330052" lon="105.2586482"><ele>316.25</ele><time>2026-02-14T00:17:12.000Z</time></trkpt>
        <trkpt lat="29.333103" lon="105.258708"><ele>315.23</ele><time>2026-02-14T00:17:20.000Z</time></trkpt>
        <trkpt lat="29.3332096" lon="105.2587557"><ele>314.63</ele><time>2026-02-14T00:17:28.000Z</time></trkpt>
        <trkpt lat="29.3333253" lon="105.2587843"><ele>314.22</ele><time>2026-02-14T00:17:36.000Z</time></trkpt>
        <trkpt lat="29.3334438" lon="105.2587996"><ele>313.98</ele><time>2026-02-14T00:17:44.000Z</time></trkpt>
        <trkpt lat="29.3335426" lon="105.2588075"><ele>313.77</ele><time>2026-02-14T00:17:50.000Z</time></trkpt>
        <trkpt lat="29.3336525" lon="105.2588176"><ele>313.52</ele><time>2026-02-14T00:17:56.000Z</time></trkpt>
        <trkpt lat="29.3337544" lon="105.2588272"><ele>313.43</ele><time>2026-02-14T00:18:02.000Z</time></trkpt>
        <trkpt lat="29.3338517" lon="105.2588354"><ele>313.65</ele><time>2026-02-14T00:18:08.000Z</time></trkpt>
        <trkpt lat="29.3339485" lon="105.2588445"><ele>313.97</ele><time>2026-02-14T00:18:14.000Z</time></trkpt>
        <trkpt lat="29.3340427" lon="105.2588546"><ele>314.08</ele><time>2026-02-14T00:18:20.000Z</time></trkpt>
        <trkpt lat="29.3341366" lon="105.2588719"><ele>314.09</ele><time>2026-02-14T00:18:26.000Z</time></trkpt>
        <trkpt lat="29.3342312" lon="105.2588932"><ele>314.1</ele><time>2026-02-14T00:18:32.000Z</time></trkpt>
        <trkpt lat="29.3343263" lon="105.2589118"><ele>314.1</ele><time>2026-02-14T00:18:38.000Z</time></trkpt>
        <trkpt lat="29.3344355" lon="105.2589493"><ele>314.03</ele><time>2026-02-14T00:18:46.000Z</time></trkpt>
        <trkpt lat="29.3345454" lon="105.2590002"><ele>314.28</ele><time>2026-02-14T00:18:54.000Z</time></trkpt>
        <trkpt lat="29.3346566" lon="105.2590508"><ele>314.7</ele><time>2026-02-14T00:19:02.000Z</time></trkpt>
        <trkpt lat="29.3347706" lon="105.2590847"><ele>315.18</ele><time>2026-02-14T00:19:10.000Z</time></trkpt>
        <trkpt lat="29.3348863" lon="105.2591142"><ele>315.37</ele><time>2026-02-14T00:19:18.000Z</time></trkpt>
        <trkpt lat="29.3349825" lon="105.259135"><ele>315.32</ele><time>2026-02-14T00:19:24.000Z</time></trkpt>
        <trkpt lat="29.3350715" lon="105.2591565"><ele>314.73</ele><time>2026-02-14T00:19:30.000Z</time></trkpt>
        <trkpt lat="29.3351595" lon="105.2591777"><ele>314.11</ele><time>2026-02-14T00:19:36.000Z</time></trkpt>
        <trkpt lat="29.3352662" lon="105.2592067"><ele>313.9</ele><time>2026-02-14T00:19:44.000Z</time></trkpt>
        <trkpt lat="29.3353772" lon="105.2592504"><ele>313.42</ele><time>2026-02-14T00:19:52.000Z</time></trkpt>
        <trkpt lat="29.3354779" lon="105.2593065"><ele>312.86</ele><time>2026-02-14T00:20:00.000Z</time></trkpt>
        <trkpt lat="29.3355792" lon="105.2593697"><ele>311.85</ele><time>2026-02-14T00:20:08.000Z</time></trkpt>
        <trkpt lat="29.3356894" lon="105.2594245"><ele>310.72</ele><time>2026-02-14T00:20:14.000Z</time></trkpt>
        <trkpt lat="29.3357996" lon="105.25947"><ele>310.03</ele><time>2026-02-14T00:20:18.000Z</time></trkpt>
        <trkpt lat="29.3359027" lon="105.2595421"><ele>310.34</ele><time>2026-02-14T00:20:22.000Z</time></trkpt>
        <trkpt lat="29.3359983" lon="105.2596184"><ele>310.16</ele><time>2026-02-14T00:20:26.000Z</time></trkpt>
        <trkpt lat="29.3360932" lon="105.2596899"><ele>309.76</ele><time>2026-02-14T00:20:32.000Z</time></trkpt>
        <trkpt lat="29.3361838" lon="105.2597469"><ele>309.35</ele><time>2026-02-14T00:20:38.000Z</time></trkpt>
        <trkpt lat="29.3362686" lon="105.2598012"><ele>309.21</ele><time>2026-02-14T00:20:44.000Z</time></trkpt>
        <trkpt lat="29.3363542" lon="105.2598536"><ele>309.17</ele><time>2026-02-14T00:20:50.000Z</time></trkpt>
        <trkpt lat="29.3364417" lon="105.2598981"><ele>309.24</ele><time>2026-02-14T00:20:56.000Z</time></trkpt>
        <trkpt lat="29.3365372" lon="105.2599184"><ele>309.43</ele><time>2026-02-14T00:21:02.000Z</time></trkpt>
        <trkpt lat="29.3366385" lon="105.2599223"><ele>309.65</ele><time>2026-02-14T00:21:08.000Z</time></trkpt>
        <trkpt lat="29.3367395" lon="105.2599226"><ele>310.53</ele><time>2026-02-14T00:21:14.000Z</time></trkpt>
        <trkpt lat="29.3368583" lon="105.2599229"><ele>310.96</ele><time>2026-02-14T00:21:22.000Z</time></trkpt>
        <trkpt lat="29.336968" lon="105.2599206"><ele>311.37</ele><time>2026-02-14T00:21:30.000Z</time></trkpt>
        <trkpt lat="29.3369876" lon="105.2598406"><ele>312.08</ele><time>2026-02-14T00:21:46.000Z</time></trkpt>
        <trkpt lat="29.3370072" lon="105.2597248"><ele>312.09</ele><time>2026-02-14T00:21:54.000Z</time></trkpt>
        <trkpt lat="29.3370731" lon="105.2596505"><ele>312.89</ele><time>2026-02-14T00:22:02.000Z</time></trkpt>
        <trkpt lat="29.3371051" lon="105.2596385"><ele>312.69</ele><time>2026-02-14T00:22:04.000Z</time></trkpt>
        <trkpt lat="29.3371051" lon="105.2596385"><ele>312.69</ele><time>2026-02-14T00:22:04.000Z</time></trkpt>
        <trkpt lat="29.337115" lon="105.2596616"><ele>326.48</ele><time>2026-02-14T00:32:37.000Z</time></trkpt>
        <trkpt lat="29.3370309" lon="105.259575"><ele>311.7</ele><time>2026-02-14T00:37:58.000Z</time></trkpt>
        <trkpt lat="29.3370325" lon="105.2594529"><ele>311.7</ele><time>2026-02-14T00:38:06.000Z</time></trkpt>
        <trkpt lat="29.3370537" lon="105.259339"><ele>312.88</ele><time>2026-02-14T00:38:14.000Z</time></trkpt>
        <trkpt lat="29.3370969" lon="105.2592348"><ele>313.81</ele><time>2026-02-14T00:38:22.000Z</time></trkpt>
        <trkpt lat="29.3371504" lon="105.2591199"><ele>314.75</ele><time>2026-02-14T00:38:32.000Z</time></trkpt>
        <trkpt lat="29.3372037" lon="105.2590165"><ele>315.26</ele><time>2026-02-14T00:38:40.000Z</time></trkpt>
        <trkpt lat="29.3372254" lon="105.2589122"><ele>315.75</ele><time>2026-02-14T00:38:48.000Z</time></trkpt>
        <trkpt lat="29.3372255" lon="105.258804"><ele>315.95</ele><time>2026-02-14T00:38:56.000Z</time></trkpt>
        <trkpt lat="29.3372261" lon="105.2586861"><ele>315.94</ele><time>2026-02-14T00:39:04.000Z</time></trkpt>
        <trkpt lat="29.3372682" lon="105.2585847"><ele>315.71</ele><time>2026-02-14T00:39:12.000Z</time></trkpt>
        <trkpt lat="29.3373327" lon="105.2584942"><ele>315.78</ele><time>2026-02-14T00:39:20.000Z</time></trkpt>
        <trkpt lat="29.3374056" lon="105.2584068"><ele>316.24</ele><time>2026-02-14T00:39:28.000Z</time></trkpt>
        <trkpt lat="29.3375085" lon="105.2583631"><ele>316.89</ele><time>2026-02-14T00:39:36.000Z</time></trkpt>
        <trkpt lat="29.3376215" lon="105.2583322"><ele>317.32</ele><time>2026-02-14T00:39:44.000Z</time></trkpt>
        <trkpt lat="29.3377211" lon="105.2582908"><ele>317.8</ele><time>2026-02-14T00:39:52.000Z</time></trkpt>
        <trkpt lat="29.3377814" lon="105.2582062"><ele>318.35</ele><time>2026-02-14T00:40:00.000Z</time></trkpt>
        <trkpt lat="29.3378094" lon="105.258095"><ele>317.86</ele><time>2026-02-14T00:40:08.000Z</time></trkpt>
        <trkpt lat="29.3378316" lon="105.2579723"><ele>317.86</ele><time>2026-02-14T00:40:16.000Z</time></trkpt>
        <trkpt lat="29.3378492" lon="105.2578495"><ele>318.41</ele><time>2026-02-14T00:40:24.000Z</time></trkpt>
        <trkpt lat="29.3378366" lon="105.2577242"><ele>319.04</ele><time>2026-02-14T00:40:32.000Z</time></trkpt>
        <trkpt lat="29.3378156" lon="105.2576097"><ele>319.88</ele><time>2026-02-14T00:40:40.000Z</time></trkpt>
        <trkpt lat="29.3378023" lon="105.2575002"><ele>320.38</ele><time>2026-02-14T00:40:48.000Z</time></trkpt>
        <trkpt lat="29.3378104" lon="105.25739"><ele>320.57</ele><time>2026-02-14T00:40:56.000Z</time></trkpt>
        <trkpt lat="29.3378366" lon="105.257278"><ele>320.58</ele><time>2026-02-14T00:41:04.000Z</time></trkpt>
        <trkpt lat="29.3378701" lon="105.2571598"><ele>320.65</ele><time>2026-02-14T00:41:12.000Z</time></trkpt>
        <trkpt lat="29.3379009" lon="105.2570432"><ele>320.9</ele><time>2026-02-14T00:41:20.000Z</time></trkpt>
        <trkpt lat="29.3379349" lon="105.2569283"><ele>321</ele><time>2026-02-14T00:41:28.000Z</time></trkpt>
        <trkpt lat="29.3379676" lon="105.2568141"><ele>320.71</ele><time>2026-02-14T00:41:36.000Z</time></trkpt>
        <trkpt lat="29.3380043" lon="105.2567021"><ele>320.44</ele><time>2026-02-14T00:41:44.000Z</time></trkpt>
        <trkpt lat="29.3380368" lon="105.2565933"><ele>320.05</ele><time>2026-02-14T00:41:52.000Z</time></trkpt>
        <trkpt lat="29.3380522" lon="105.2564812"><ele>319.57</ele><time>2026-02-14T00:42:00.000Z</time></trkpt>
        <trkpt lat="29.3380342" lon="105.2563687"><ele>318.52</ele><time>2026-02-14T00:42:08.000Z</time></trkpt>
        <trkpt lat="29.3379899" lon="105.2562668"><ele>318.02</ele><time>2026-02-14T00:42:16.000Z</time></trkpt>
        <trkpt lat="29.3379386" lon="105.2561595"><ele>317.7</ele><time>2026-02-14T00:42:24.000Z</time></trkpt>
        <trkpt lat="29.3378865" lon="105.2560409"><ele>317.59</ele><time>2026-02-14T00:42:32.000Z</time></trkpt>
        <trkpt lat="29.3378338" lon="105.2559241"><ele>317.36</ele><time>2026-02-14T00:42:40.000Z</time></trkpt>
        <trkpt lat="29.337793" lon="105.2558051"><ele>317.11</ele><time>2026-02-14T00:42:48.000Z</time></trkpt>
        <trkpt lat="29.3377713" lon="105.2556766"><ele>316.71</ele><time>2026-02-14T00:42:56.000Z</time></trkpt>
        <trkpt lat="29.3377512" lon="105.2555478"><ele>316.07</ele><time>2026-02-14T00:43:04.000Z</time></trkpt>
        <trkpt lat="29.3377243" lon="105.2554225"><ele>315.68</ele><time>2026-02-14T00:43:12.000Z</time></trkpt>
        <trkpt lat="29.337712" lon="105.2552907"><ele>315.95</ele><time>2026-02-14T00:43:20.000Z</time></trkpt>
        <trkpt lat="29.3377014" lon="105.2551604"><ele>315.91</ele><time>2026-02-14T00:43:28.000Z</time></trkpt>
        <trkpt lat="29.3376783" lon="105.2550308"><ele>316.23</ele><time>2026-02-14T00:43:36.000Z</time></trkpt>
        <trkpt lat="29.3376556" lon="105.2549037"><ele>316.84</ele><time>2026-02-14T00:43:44.000Z</time></trkpt>
        <trkpt lat="29.3376301" lon="105.2547819"><ele>317.33</ele><time>2026-02-14T00:43:52.000Z</time></trkpt>
        <trkpt lat="29.3376192" lon="105.2547575"><ele>317.89</ele><time>2026-02-14T00:43:56.000Z</time></trkpt>
        <trkpt lat="29.3376076" lon="105.2546636"><ele>317.74</ele><time>2026-02-14T00:44:08.000Z</time></trkpt>
        <trkpt lat="29.337584" lon="105.2545439"><ele>317.65</ele><time>2026-02-14T00:44:16.000Z</time></trkpt>
        <trkpt lat="29.3375641" lon="105.2544337"><ele>317.69</ele><time>2026-02-14T00:44:22.000Z</time></trkpt>
        <trkpt lat="29.3375399" lon="105.2543173"><ele>317.58</ele><time>2026-02-14T00:44:30.000Z</time></trkpt>
        <trkpt lat="29.3375271" lon="105.254198"><ele>317.87</ele><time>2026-02-14T00:44:38.000Z</time></trkpt>
        <trkpt lat="29.3375536" lon="105.2540749"><ele>317.81</ele><time>2026-02-14T00:44:46.000Z</time></trkpt>
        <trkpt lat="29.3376215" lon="105.2539656"><ele>317.77</ele><time>2026-02-14T00:44:54.000Z</time></trkpt>
        <trkpt lat="29.3377076" lon="105.2538709"><ele>317.77</ele><time>2026-02-14T00:45:02.000Z</time></trkpt>
        <trkpt lat="29.3378023" lon="105.2537795"><ele>317.53</ele><time>2026-02-14T00:45:10.000Z</time></trkpt>
        <trkpt lat="29.3378749" lon="105.2536992"><ele>317.29</ele><time>2026-02-14T00:45:16.000Z</time></trkpt>
        <trkpt lat="29.337946" lon="105.2536032"><ele>316.96</ele><time>2026-02-14T00:45:24.000Z</time></trkpt>
        <trkpt lat="29.3380095" lon="105.2535019"><ele>316.68</ele><time>2026-02-14T00:45:32.000Z</time></trkpt>
        <trkpt lat="29.3380733" lon="105.2533954"><ele>316.94</ele><time>2026-02-14T00:45:40.000Z</time></trkpt>
        <trkpt lat="29.3381372" lon="105.2532925"><ele>317.74</ele><time>2026-02-14T00:45:48.000Z</time></trkpt>
        <trkpt lat="29.3382042" lon="105.2531862"><ele>318.23</ele><time>2026-02-14T00:45:56.000Z</time></trkpt>
        <trkpt lat="29.3382682" lon="105.2530805"><ele>318.28</ele><time>2026-02-14T00:46:04.000Z</time></trkpt>
        <trkpt lat="29.3383292" lon="105.2529762"><ele>317.57</ele><time>2026-02-14T00:46:12.000Z</time></trkpt>
        <trkpt lat="29.3383623" lon="105.2528602"><ele>316.78</ele><time>2026-02-14T00:46:20.000Z</time></trkpt>
        <trkpt lat="29.3383465" lon="105.2527412"><ele>316.44</ele><time>2026-02-14T00:46:28.000Z</time></trkpt>
        <trkpt lat="29.3382881" lon="105.2526346"><ele>316.13</ele><time>2026-02-14T00:46:36.000Z</time></trkpt>
        <trkpt lat="29.3382206" lon="105.2525312"><ele>315.43</ele><time>2026-02-14T00:46:44.000Z</time></trkpt>
        <trkpt lat="29.3381531" lon="105.2524214"><ele>315</ele><time>2026-02-14T00:46:52.000Z</time></trkpt>
        <trkpt lat="29.338093" lon="105.2523047"><ele>314.63</ele><time>2026-02-14T00:47:00.000Z</time></trkpt>
        <trkpt lat="29.3380502" lon="105.2521844"><ele>314.12</ele><time>2026-02-14T00:47:08.000Z</time></trkpt>
        <trkpt lat="29.3380118" lon="105.2520603"><ele>313.83</ele><time>2026-02-14T00:47:16.000Z</time></trkpt>
        <trkpt lat="29.3379779" lon="105.2519342"><ele>313.87</ele><time>2026-02-14T00:47:24.000Z</time></trkpt>
        <trkpt lat="29.3379513" lon="105.2518254"><ele>314.02</ele><time>2026-02-14T00:47:30.000Z</time></trkpt>
        <trkpt lat="29.3379295" lon="105.2517019"><ele>314.24</ele><time>2026-02-14T00:47:38.000Z</time></trkpt>
        <trkpt lat="29.3379065" lon="105.2515747"><ele>315.09</ele><time>2026-02-14T00:47:46.000Z</time></trkpt>
        <trkpt lat="29.3378798" lon="105.2514506"><ele>315.11</ele><time>2026-02-14T00:47:54.000Z</time></trkpt>
        <trkpt lat="29.3378492" lon="105.2513253"><ele>315.52</ele><time>2026-02-14T00:48:02.000Z</time></trkpt>
        <trkpt lat="29.337834" lon="105.2511966"><ele>315.87</ele><time>2026-02-14T00:48:10.000Z</time></trkpt>
        <trkpt lat="29.3378609" lon="105.2510685"><ele>315.54</ele><time>2026-02-14T00:48:18.000Z</time></trkpt>
        <trkpt lat="29.3379302" lon="105.2509801"><ele>315.3</ele><time>2026-02-14T00:48:24.000Z</time></trkpt>
        <trkpt lat="29.3380105" lon="105.2508927"><ele>314.32</ele><time>2026-02-14T00:48:32.000Z</time></trkpt>
        <trkpt lat="29.3380878" lon="105.2508181"><ele>313.71</ele><time>2026-02-14T00:48:38.000Z</time></trkpt>
        <trkpt lat="29.3381621" lon="105.2507486"><ele>313.14</ele><time>2026-02-14T00:48:44.000Z</time></trkpt>
        <trkpt lat="29.338233" lon="105.2506787"><ele>312.58</ele><time>2026-02-14T00:48:50.000Z</time></trkpt>
        <trkpt lat="29.3383051" lon="105.2506135"><ele>312.16</ele><time>2026-02-14T00:48:56.000Z</time></trkpt>
        <trkpt lat="29.3383663" lon="105.2505112"><ele>311.68</ele><time>2026-02-14T00:49:04.000Z</time></trkpt>
        <trkpt lat="29.3384016" lon="105.2503966"><ele>311.73</ele><time>2026-02-14T00:49:12.000Z</time></trkpt>
        <trkpt lat="29.3383939" lon="105.2502741"><ele>311.86</ele><time>2026-02-14T00:49:20.000Z</time></trkpt>
        <trkpt lat="29.3383698" lon="105.2501644"><ele>312.14</ele><time>2026-02-14T00:49:26.000Z</time></trkpt>
        <trkpt lat="29.3383371" lon="105.2500564"><ele>312.28</ele><time>2026-02-14T00:49:34.000Z</time></trkpt>
        <trkpt lat="29.3383327" lon="105.250003"><ele>313.38</ele><time>2026-02-14T00:49:38.000Z</time></trkpt>
        <trkpt lat="29.3383065" lon="105.2499102"><ele>314.49</ele><time>2026-02-14T00:49:54.000Z</time></trkpt>
        <trkpt lat="29.3382888" lon="105.2497857"><ele>314.8</ele><time>2026-02-14T00:50:04.000Z</time></trkpt>
        <trkpt lat="29.3382769" lon="105.2496574"><ele>314.68</ele><time>2026-02-14T00:50:12.000Z</time></trkpt>
        <trkpt lat="29.3382808" lon="105.2495276"><ele>314.64</ele><time>2026-02-14T00:50:20.000Z</time></trkpt>
        <trkpt lat="29.3383632" lon="105.2494592"><ele>314.59</ele><time>2026-02-14T00:50:30.000Z</time></trkpt>
        <trkpt lat="29.3384673" lon="105.249448"><ele>314.04</ele><time>2026-02-14T00:50:38.000Z</time></trkpt>
        <trkpt lat="29.3385263" lon="105.2495278"><ele>315.44</ele><time>2026-02-14T00:50:44.000Z</time></trkpt>
        <trkpt lat="29.3385523" lon="105.2496468"><ele>316.03</ele><time>2026-02-14T00:50:50.000Z</time></trkpt>
        <trkpt lat="29.3385912" lon="105.2497576"><ele>316.44</ele><time>2026-02-14T00:50:58.000Z</time></trkpt>
        <trkpt lat="29.3385948" lon="105.2499031"><ele>317.18</ele><time>2026-02-14T00:51:06.000Z</time></trkpt>
        <trkpt lat="29.3386021" lon="105.2500297"><ele>317.32</ele><time>2026-02-14T00:51:14.000Z</time></trkpt>
        <trkpt lat="29.3386668" lon="105.2501199"><ele>318.07</ele><time>2026-02-14T00:51:22.000Z</time></trkpt>
        <trkpt lat="29.3387625" lon="105.2501425"><ele>319.45</ele><time>2026-02-14T00:51:28.000Z</time></trkpt>
        <trkpt lat="29.3388475" lon="105.2501731"><ele>321.6</ele><time>2026-02-14T00:51:38.000Z</time></trkpt>
        <trkpt lat="29.338904" lon="105.2502455"><ele>324.12</ele><time>2026-02-14T00:51:48.000Z</time></trkpt>
        <trkpt lat="29.3389605" lon="105.2503405"><ele>326.5</ele><time>2026-02-14T00:52:00.000Z</time></trkpt>
        <trkpt lat="29.3390168" lon="105.250433"><ele>329.41</ele><time>2026-02-14T00:52:08.000Z</time></trkpt>
        <trkpt lat="29.33909" lon="105.2505148"><ele>332.15</ele><time>2026-02-14T00:52:16.000Z</time></trkpt>
        <trkpt lat="29.3391734" lon="105.2505868"><ele>333.86</ele><time>2026-02-14T00:52:24.000Z</time></trkpt>
        <trkpt lat="29.3392572" lon="105.2506586"><ele>334.96</ele><time>2026-02-14T00:52:32.000Z</time></trkpt>
        <trkpt lat="29.3393241" lon="105.2507571"><ele>336.48</ele><time>2026-02-14T00:52:40.000Z</time></trkpt>
        <trkpt lat="29.3393834" lon="105.2508623"><ele>338.02</ele><time>2026-02-14T00:52:48.000Z</time></trkpt>
        <trkpt lat="29.339437" lon="105.2509687"><ele>339.28</ele><time>2026-02-14T00:52:56.000Z</time></trkpt>
        <trkpt lat="29.3394823" lon="105.2510781"><ele>340.5</ele><time>2026-02-14T00:53:04.000Z</time></trkpt>
        <trkpt lat="29.3394932" lon="105.2511976"><ele>341.66</ele><time>2026-02-14T00:53:12.000Z</time></trkpt>
        <trkpt lat="29.3395127" lon="105.2512475"><ele>343.09</ele><time>2026-02-14T00:53:16.000Z</time></trkpt>
        <trkpt lat="29.339479" lon="105.2513244"><ele>343.82</ele><time>2026-02-14T00:53:30.000Z</time></trkpt>
        <trkpt lat="29.3394821" lon="105.2514244"><ele>344.85</ele><time>2026-02-14T00:53:38.000Z</time></trkpt>
        <trkpt lat="29.3395267" lon="105.2515156"><ele>346.1</ele><time>2026-02-14T00:53:46.000Z</time></trkpt>
        <trkpt lat="29.3395775" lon="105.2516174"><ele>346.97</ele><time>2026-02-14T00:53:54.000Z</time></trkpt>
        <trkpt lat="29.3396293" lon="105.2517223"><ele>348.07</ele><time>2026-02-14T00:54:02.000Z</time></trkpt>
        <trkpt lat="29.3396597" lon="105.2518311"><ele>349.23</ele><time>2026-02-14T00:54:08.000Z</time></trkpt>
        <trkpt lat="29.33972" lon="105.2519298"><ele>350.76</ele><time>2026-02-14T00:54:18.000Z</time></trkpt>
        <trkpt lat="29.3397628" lon="105.2520381"><ele>352.96</ele><time>2026-02-14T00:54:26.000Z</time></trkpt>
        <trkpt lat="29.3397799" lon="105.2521551"><ele>354.87</ele><time>2026-02-14T00:54:34.000Z</time></trkpt>
        <trkpt lat="29.339799" lon="105.252271"><ele>356.28</ele><time>2026-02-14T00:54:42.000Z</time></trkpt>
        <trkpt lat="29.3398428" lon="105.2523817"><ele>357.19</ele><time>2026-02-14T00:54:50.000Z</time></trkpt>
        <trkpt lat="29.3399266" lon="105.252458"><ele>358.36</ele><time>2026-02-14T00:54:58.000Z</time></trkpt>
        <trkpt lat="29.3400237" lon="105.2525188"><ele>359.8</ele><time>2026-02-14T00:55:06.000Z</time></trkpt>
        <trkpt lat="29.3401361" lon="105.2525029"><ele>361.18</ele><time>2026-02-14T00:55:14.000Z</time></trkpt>
        <trkpt lat="29.3401755" lon="105.2524872"><ele>363.44</ele><time>2026-02-14T00:55:16.000Z</time></trkpt>
        <trkpt lat="29.3402292" lon="105.2524204"><ele>364.52</ele><time>2026-02-14T00:55:28.000Z</time></trkpt>
        <trkpt lat="29.3403092" lon="105.2524162"><ele>365.04</ele><time>2026-02-14T00:55:40.000Z</time></trkpt>
        <trkpt lat="29.34034" lon="105.2525076"><ele>364.81</ele><time>2026-02-14T00:55:52.000Z</time></trkpt>
        <trkpt lat="29.3402705" lon="105.25257"><ele>365.21</ele><time>2026-02-14T00:56:02.000Z</time></trkpt>
        <trkpt lat="29.3401858" lon="105.2526375"><ele>365.7</ele><time>2026-02-14T00:56:16.000Z</time></trkpt>
        <trkpt lat="29.3401831" lon="105.2527346"><ele>364.53</ele><time>2026-02-14T00:56:24.000Z</time></trkpt>
        <trkpt lat="29.3401979" lon="105.2528402"><ele>363.75</ele><time>2026-02-14T00:56:30.000Z</time></trkpt>
        <trkpt lat="29.3402009" lon="105.252966"><ele>363.37</ele><time>2026-02-14T00:56:38.000Z</time></trkpt>
        <trkpt lat="29.3402156" lon="105.2530782"><ele>363.7</ele><time>2026-02-14T00:56:44.000Z</time></trkpt>
        <trkpt lat="29.3402611" lon="105.253189"><ele>364.15</ele><time>2026-02-14T00:56:52.000Z</time></trkpt>
        <trkpt lat="29.3403384" lon="105.2532841"><ele>363.66</ele><time>2026-02-14T00:57:00.000Z</time></trkpt>
        <trkpt lat="29.3403791" lon="105.253401"><ele>363.18</ele><time>2026-02-14T00:57:08.000Z</time></trkpt>
        <trkpt lat="29.3403686" lon="105.2535292"><ele>363.44</ele><time>2026-02-14T00:57:16.000Z</time></trkpt>
        <trkpt lat="29.3403553" lon="105.2536573"><ele>364.09</ele><time>2026-02-14T00:57:24.000Z</time></trkpt>
        <trkpt lat="29.3403736" lon="105.2536107"><ele>364.61</ele><time>2026-02-14T00:57:30.000Z</time></trkpt>
        <trkpt lat="29.3403803" lon="105.2534961"><ele>364.12</ele><time>2026-02-14T00:57:36.000Z</time></trkpt>
        <trkpt lat="29.3404607" lon="105.2534576"><ele>363.19</ele><time>2026-02-14T00:57:46.000Z</time></trkpt>
        <trkpt lat="29.3405336" lon="105.2534531"><ele>362.41</ele><time>2026-02-14T00:57:52.000Z</time></trkpt>
        <trkpt lat="29.3404915" lon="105.2534101"><ele>362.68</ele><time>2026-02-14T00:58:22.000Z</time></trkpt>
        <trkpt lat="29.3404136" lon="105.2534437"><ele>362.72</ele><time>2026-02-14T00:58:30.000Z</time></trkpt>
        <trkpt lat="29.3403548" lon="105.2535558"><ele>363.39</ele><time>2026-02-14T00:58:38.000Z</time></trkpt>
        <trkpt lat="29.340319" lon="105.2536918"><ele>363.84</ele><time>2026-02-14T00:58:46.000Z</time></trkpt>
        <trkpt lat="29.3403158" lon="105.2538337"><ele>363.77</ele><time>2026-02-14T00:58:54.000Z</time></trkpt>
        <trkpt lat="29.3403444" lon="105.2539661"><ele>363.67</ele><time>2026-02-14T00:59:02.000Z</time></trkpt>
        <trkpt lat="29.3403524" lon="105.2540925"><ele>363.69</ele><time>2026-02-14T00:59:10.000Z</time></trkpt>
        <trkpt lat="29.3403488" lon="105.25422"><ele>364.08</ele><time>2026-02-14T00:59:18.000Z</time></trkpt>
        <trkpt lat="29.3403419" lon="105.254331"><ele>364.96</ele><time>2026-02-14T00:59:24.000Z</time></trkpt>
        <trkpt lat="29.3403607" lon="105.2544525"><ele>365.55</ele><time>2026-02-14T00:59:32.000Z</time></trkpt>
        <trkpt lat="29.3404181" lon="105.2545658"><ele>366.11</ele><time>2026-02-14T00:59:40.000Z</time></trkpt>
        <trkpt lat="29.3404735" lon="105.2546604"><ele>366.18</ele><time>2026-02-14T00:59:46.000Z</time></trkpt>
        <trkpt lat="29.3404976" lon="105.254779"><ele>366.13</ele><time>2026-02-14T00:59:54.000Z</time></trkpt>
        <trkpt lat="29.340482" lon="105.2548856"><ele>366.37</ele><time>2026-02-14T01:00:00.000Z</time></trkpt>
        <trkpt lat="29.340419" lon="105.2549867"><ele>367.15</ele><time>2026-02-14T01:00:08.000Z</time></trkpt>
        <trkpt lat="29.3403409" lon="105.2550581"><ele>368.37</ele><time>2026-02-14T01:00:14.000Z</time></trkpt>
        <trkpt lat="29.3402544" lon="105.255137"><ele>369.3</ele><time>2026-02-14T01:00:22.000Z</time></trkpt>
        <trkpt lat="29.3402293" lon="105.2552488"><ele>370.1</ele><time>2026-02-14T01:00:30.000Z</time></trkpt>
        <trkpt lat="29.3402762" lon="105.255364"><ele>370.27</ele><time>2026-02-14T01:00:38.000Z</time></trkpt>
        <trkpt lat="29.3403542" lon="105.2554743"><ele>369.93</ele><time>2026-02-14T01:00:46.000Z</time></trkpt>
        <trkpt lat="29.3404377" lon="105.2555812"><ele>369.85</ele><time>2026-02-14T01:00:54.000Z</time></trkpt>
        <trkpt lat="29.3404635" lon="105.2556868"><ele>370.61</ele><time>2026-02-14T01:01:00.000Z</time></trkpt>
        <trkpt lat="29.3404306" lon="105.2557932"><ele>371.41</ele><time>2026-02-14T01:01:08.000Z</time></trkpt>
        <trkpt lat="29.3403663" lon="105.2558896"><ele>372.99</ele><time>2026-02-14T01:01:16.000Z</time></trkpt>
        <trkpt lat="29.3403045" lon="105.2559942"><ele>374.58</ele><time>2026-02-14T01:01:24.000Z</time></trkpt>
        <trkpt lat="29.3402655" lon="105.2561159"><ele>375.54</ele><time>2026-02-14T01:01:32.000Z</time></trkpt>
        <trkpt lat="29.3402459" lon="105.2562488"><ele>376.58</ele><time>2026-02-14T01:01:40.000Z</time></trkpt>
        <trkpt lat="29.3402235" lon="105.2563799"><ele>377.32</ele><time>2026-02-14T01:01:48.000Z</time></trkpt>
        <trkpt lat="29.340211" lon="105.2565126"><ele>378.28</ele><time>2026-02-14T01:01:56.000Z</time></trkpt>
        <trkpt lat="29.3402478" lon="105.2566246"><ele>378.75</ele><time>2026-02-14T01:02:04.000Z</time></trkpt>
        <trkpt lat="29.3403423" lon="105.2566771"><ele>379.15</ele><time>2026-02-14T01:02:12.000Z</time></trkpt>
        <trkpt lat="29.3404583" lon="105.2567148"><ele>379.85</ele><time>2026-02-14T01:02:20.000Z</time></trkpt>
        <trkpt lat="29.3405663" lon="105.2567692"><ele>380.45</ele><time>2026-02-14T01:02:28.000Z</time></trkpt>
        <trkpt lat="29.3406646" lon="105.2568371"><ele>380.53</ele><time>2026-02-14T01:02:36.000Z</time></trkpt>
        <trkpt lat="29.3407652" lon="105.2568758"><ele>380.56</ele><time>2026-02-14T01:02:44.000Z</time></trkpt>
        <trkpt lat="29.3408771" lon="105.2568969"><ele>380.23</ele><time>2026-02-14T01:02:52.000Z</time></trkpt>
        <trkpt lat="29.3409831" lon="105.2568891"><ele>379.65</ele><time>2026-02-14T01:03:00.000Z</time></trkpt>
        <trkpt lat="29.3410178" lon="105.2568713"><ele>379.05</ele><time>2026-02-14T01:03:04.000Z</time></trkpt>
        <trkpt lat="29.3410906" lon="105.2568674"><ele>378.82</ele><time>2026-02-14T01:03:34.000Z</time></trkpt>
        <trkpt lat="29.3411756" lon="105.2568199"><ele>378.74</ele><time>2026-02-14T01:03:42.000Z</time></trkpt>
        <trkpt lat="29.3412648" lon="105.2567427"><ele>378.95</ele><time>2026-02-14T01:03:50.000Z</time></trkpt>
        <trkpt lat="29.3413541" lon="105.2566645"><ele>379.43</ele><time>2026-02-14T01:03:58.000Z</time></trkpt>
        <trkpt lat="29.3414534" lon="105.2566059"><ele>380.26</ele><time>2026-02-14T01:04:06.000Z</time></trkpt>
        <trkpt lat="29.341566" lon="105.2566004"><ele>380.82</ele><time>2026-02-14T01:04:14.000Z</time></trkpt>
        <trkpt lat="29.3416815" lon="105.2565917"><ele>380.23</ele><time>2026-02-14T01:04:22.000Z</time></trkpt>
        <trkpt lat="29.3417874" lon="105.2565597"><ele>379.81</ele><time>2026-02-14T01:04:30.000Z</time></trkpt>
        <trkpt lat="29.3418532" lon="105.2565231"><ele>379.79</ele><time>2026-02-14T01:04:38.000Z</time></trkpt>
        <trkpt lat="29.3419391" lon="105.2564962"><ele>380.13</ele><time>2026-02-14T01:04:48.000Z</time></trkpt>
        <trkpt lat="29.3420374" lon="105.2564743"><ele>380.74</ele><time>2026-02-14T01:04:56.000Z</time></trkpt>
        <trkpt lat="29.3420488" lon="105.2563752"><ele>381.45</ele><time>2026-02-14T01:05:12.000Z</time></trkpt>
        <trkpt lat="29.3420373" lon="105.2562968"><ele>382.48</ele><time>2026-02-14T01:05:18.000Z</time></trkpt>
        <trkpt lat="29.3420307" lon="105.256365"><ele>383.29</ele><time>2026-02-14T01:06:12.000Z</time></trkpt>
        <trkpt lat="29.342085" lon="105.2564503"><ele>383.62</ele><time>2026-02-14T01:06:20.000Z</time></trkpt>
        <trkpt lat="29.3421727" lon="105.2564753"><ele>383.5</ele><time>2026-02-14T01:06:26.000Z</time></trkpt>
        <trkpt lat="29.3422851" lon="105.2564594"><ele>383.78</ele><time>2026-02-14T01:06:34.000Z</time></trkpt>
        <trkpt lat="29.3424055" lon="105.2564313"><ele>384.09</ele><time>2026-02-14T01:06:42.000Z</time></trkpt>
        <trkpt lat="29.3425221" lon="105.2564099"><ele>384.47</ele><time>2026-02-14T01:06:50.000Z</time></trkpt>
        <trkpt lat="29.3426363" lon="105.2564011"><ele>384.77</ele><time>2026-02-14T01:06:58.000Z</time></trkpt>
        <trkpt lat="29.3427502" lon="105.2564132"><ele>384.91</ele><time>2026-02-14T01:07:06.000Z</time></trkpt>
        <trkpt lat="29.3428557" lon="105.2564518"><ele>385.22</ele><time>2026-02-14T01:07:14.000Z</time></trkpt>
        <trkpt lat="29.3429585" lon="105.2564956"><ele>385.64</ele><time>2026-02-14T01:07:22.000Z</time></trkpt>
        <trkpt lat="29.3430667" lon="105.2565122"><ele>385.94</ele><time>2026-02-14T01:07:30.000Z</time></trkpt>
        <trkpt lat="29.3430701" lon="105.2564272"><ele>386.18</ele><time>2026-02-14T01:07:46.000Z</time></trkpt>
        <trkpt lat="29.3430687" lon="105.2563054"><ele>385.86</ele><time>2026-02-14T01:07:54.000Z</time></trkpt>
        <trkpt lat="29.3431244" lon="105.2561989"><ele>385.62</ele><time>2026-02-14T01:08:02.000Z</time></trkpt>
        <trkpt lat="29.3432227" lon="105.2561458"><ele>385.24</ele><time>2026-02-14T01:08:10.000Z</time></trkpt>
        <trkpt lat="29.3433009" lon="105.2560674"><ele>384.95</ele><time>2026-02-14T01:08:18.000Z</time></trkpt>
        <trkpt lat="29.3433677" lon="105.2559607"><ele>384.81</ele><time>2026-02-14T01:08:26.000Z</time></trkpt>
        <trkpt lat="29.3434223" lon="105.2558449"><ele>384.68</ele><time>2026-02-14T01:08:34.000Z</time></trkpt>
        <trkpt lat="29.3434133" lon="105.2557224"><ele>383.96</ele><time>2026-02-14T01:08:42.000Z</time></trkpt>
        <trkpt lat="29.3434156" lon="105.2556027"><ele>383.36</ele><time>2026-02-14T01:08:50.000Z</time></trkpt>
        <trkpt lat="29.3434713" lon="105.2554958"><ele>382.84</ele><time>2026-02-14T01:08:58.000Z</time></trkpt>
        <trkpt lat="29.3435529" lon="105.2553979"><ele>382.7</ele><time>2026-02-14T01:09:06.000Z</time></trkpt>
        <trkpt lat="29.3436018" lon="105.2552845"><ele>382.67</ele><time>2026-02-14T01:09:14.000Z</time></trkpt>
        <trkpt lat="29.3435712" lon="105.2551676"><ele>382.27</ele><time>2026-02-14T01:09:22.000Z</time></trkpt>
        <trkpt lat="29.3435013" lon="105.2550576"><ele>381.16</ele><time>2026-02-14T01:09:30.000Z</time></trkpt>
        <trkpt lat="29.343448" lon="105.2549395"><ele>380.52</ele><time>2026-02-14T01:09:38.000Z</time></trkpt>
        <trkpt lat="29.3434254" lon="105.2548089"><ele>379.68</ele><time>2026-02-14T01:09:46.000Z</time></trkpt>
        <trkpt lat="29.3434628" lon="105.2546925"><ele>379.59</ele><time>2026-02-14T01:09:54.000Z</time></trkpt>
        <trkpt lat="29.3435324" lon="105.2546123"><ele>379.97</ele><time>2026-02-14T01:10:00.000Z</time></trkpt>
        <trkpt lat="29.3435664" lon="105.2545029"><ele>380.67</ele><time>2026-02-14T01:10:08.000Z</time></trkpt>
        <trkpt lat="29.3435793" lon="105.2543873"><ele>382</ele><time>2026-02-14T01:10:16.000Z</time></trkpt>
        <trkpt lat="29.3436217" lon="105.2542731"><ele>383.5</ele><time>2026-02-14T01:10:24.000Z</time></trkpt>
        <trkpt lat="29.3436637" lon="105.2541545"><ele>384.8</ele><time>2026-02-14T01:10:32.000Z</time></trkpt>
        <trkpt lat="29.3437095" lon="105.2540346"><ele>385.61</ele><time>2026-02-14T01:10:40.000Z</time></trkpt>
        <trkpt lat="29.343751" lon="105.2539161"><ele>386.47</ele><time>2026-02-14T01:10:48.000Z</time></trkpt>
        <trkpt lat="29.3437947" lon="105.2537976"><ele>387.13</ele><time>2026-02-14T01:10:56.000Z</time></trkpt>
        <trkpt lat="29.3438476" lon="105.2536818"><ele>387.75</ele><time>2026-02-14T01:11:04.000Z</time></trkpt>
        <trkpt lat="29.3438968" lon="105.2535613"><ele>388.15</ele><time>2026-02-14T01:11:12.000Z</time></trkpt>
        <trkpt lat="29.3439311" lon="105.253436"><ele>388.69</ele><time>2026-02-14T01:11:20.000Z</time></trkpt>
        <trkpt lat="29.3439573" lon="105.2533091"><ele>388.97</ele><time>2026-02-14T01:11:28.000Z</time></trkpt>
        <trkpt lat="29.3440076" lon="105.2531891"><ele>388.9</ele><time>2026-02-14T01:11:36.000Z</time></trkpt>
        <trkpt lat="29.3440864" lon="105.2530896"><ele>388.89</ele><time>2026-02-14T01:11:44.000Z</time></trkpt>
        <trkpt lat="29.3441868" lon="105.253037"><ele>388.49</ele><time>2026-02-14T01:11:52.000Z</time></trkpt>
        <trkpt lat="29.3442869" lon="105.2530813"><ele>387.96</ele><time>2026-02-14T01:12:00.000Z</time></trkpt>
        <trkpt lat="29.3443809" lon="105.2531247"><ele>387.81</ele><time>2026-02-14T01:12:06.000Z</time></trkpt>
        <trkpt lat="29.3444748" lon="105.2531382"><ele>387.32</ele><time>2026-02-14T01:12:12.000Z</time></trkpt>
        <trkpt lat="29.344563" lon="105.2531121"><ele>386.82</ele><time>2026-02-14T01:12:18.000Z</time></trkpt>
        <trkpt lat="29.3446454" lon="105.2530652"><ele>386.22</ele><time>2026-02-14T01:12:24.000Z</time></trkpt>
        <trkpt lat="29.3447514" lon="105.2530486"><ele>385.65</ele><time>2026-02-14T01:12:32.000Z</time></trkpt>
        <trkpt lat="29.3448629" lon="105.2530634"><ele>385.09</ele><time>2026-02-14T01:12:40.000Z</time></trkpt>
        <trkpt lat="29.3449725" lon="105.2530394"><ele>385.61</ele><time>2026-02-14T01:12:48.000Z</time></trkpt>
        <trkpt lat="29.3450602" lon="105.2529591"><ele>386.18</ele><time>2026-02-14T01:12:56.000Z</time></trkpt>
        <trkpt lat="29.3451294" lon="105.2528489"><ele>385.91</ele><time>2026-02-14T01:13:04.000Z</time></trkpt>
        <trkpt lat="29.3451725" lon="105.2527189"><ele>385.39</ele><time>2026-02-14T01:13:12.000Z</time></trkpt>
        <trkpt lat="29.3452083" lon="105.2525903"><ele>384.27</ele><time>2026-02-14T01:13:20.000Z</time></trkpt>
        <trkpt lat="29.3452256" lon="105.2524568"><ele>383.27</ele><time>2026-02-14T01:13:28.000Z</time></trkpt>
        <trkpt lat="29.3452633" lon="105.2523312"><ele>382.57</ele><time>2026-02-14T01:13:36.000Z</time></trkpt>
        <trkpt lat="29.345324" lon="105.2522194"><ele>381.86</ele><time>2026-02-14T01:13:44.000Z</time></trkpt>
        <trkpt lat="29.345387" lon="105.2521323"><ele>380.83</ele><time>2026-02-14T01:13:50.000Z</time></trkpt>
        <trkpt lat="29.3454556" lon="105.2520323"><ele>379.65</ele><time>2026-02-14T01:13:58.000Z</time></trkpt>
        <trkpt lat="29.3455235" lon="105.2519214"><ele>379.11</ele><time>2026-02-14T01:14:06.000Z</time></trkpt>
        <trkpt lat="29.3455893" lon="105.2518101"><ele>378.08</ele><time>2026-02-14T01:14:14.000Z</time></trkpt>
        <trkpt lat="29.3456762" lon="105.2517462"><ele>376.99</ele><time>2026-02-14T01:14:20.000Z</time></trkpt>
        <trkpt lat="29.3457792" lon="105.2517309"><ele>375.36</ele><time>2026-02-14T01:14:26.000Z</time></trkpt>
        <trkpt lat="29.3458783" lon="105.2517342"><ele>373.83</ele><time>2026-02-14T01:14:32.000Z</time></trkpt>
        <trkpt lat="29.3459721" lon="105.2517446"><ele>372.99</ele><time>2026-02-14T01:14:38.000Z</time></trkpt>
        <trkpt lat="29.3460718" lon="105.2517661"><ele>371.97</ele><time>2026-02-14T01:14:46.000Z</time></trkpt>
        <trkpt lat="29.3461243" lon="105.2517831"><ele>371.33</ele><time>2026-02-14T01:14:52.000Z</time></trkpt>
        <trkpt lat="29.3461815" lon="105.2518587"><ele>371.08</ele><time>2026-02-14T01:15:08.000Z</time></trkpt>
        <trkpt lat="29.3462642" lon="105.2518703"><ele>371.28</ele><time>2026-02-14T01:15:16.000Z</time></trkpt>
        <trkpt lat="29.3463232" lon="105.2517829"><ele>371.39</ele><time>2026-02-14T01:15:24.000Z</time></trkpt>
        <trkpt lat="29.346371" lon="105.2516562"><ele>371.34</ele><time>2026-02-14T01:15:32.000Z</time></trkpt>
        <trkpt lat="29.3464134" lon="105.2515452"><ele>371.26</ele><time>2026-02-14T01:15:38.000Z</time></trkpt>
        <trkpt lat="29.3464515" lon="105.2514432"><ele>371.2</ele><time>2026-02-14T01:15:44.000Z</time></trkpt>
        <trkpt lat="29.3465013" lon="105.2513281"><ele>371.08</ele><time>2026-02-14T01:15:52.000Z</time></trkpt>
        <trkpt lat="29.3465473" lon="105.251228"><ele>370.68</ele><time>2026-02-14T01:15:58.000Z</time></trkpt>
        <trkpt lat="29.3466061" lon="105.2511186"><ele>370.43</ele><time>2026-02-14T01:16:06.000Z</time></trkpt>
        <trkpt lat="29.346658" lon="105.2510038"><ele>370.21</ele><time>2026-02-14T01:16:14.000Z</time></trkpt>
        <trkpt lat="29.3466937" lon="105.2509001"><ele>369.93</ele><time>2026-02-14T01:16:20.000Z</time></trkpt>
        <trkpt lat="29.3467288" lon="105.250802"><ele>369.72</ele><time>2026-02-14T01:16:26.000Z</time></trkpt>
        <trkpt lat="29.3467803" lon="105.2507159"><ele>369.35</ele><time>2026-02-14T01:16:32.000Z</time></trkpt>
        <trkpt lat="29.3468589" lon="105.2506428"><ele>368.98</ele><time>2026-02-14T01:16:40.000Z</time></trkpt>
        <trkpt lat="29.3469429" lon="105.2505507"><ele>368.63</ele><time>2026-02-14T01:16:48.000Z</time></trkpt>
        <trkpt lat="29.3470164" lon="105.2504446"><ele>368.5</ele><time>2026-02-14T01:16:56.000Z</time></trkpt>
        <trkpt lat="29.3470916" lon="105.2503374"><ele>368.26</ele><time>2026-02-14T01:17:04.000Z</time></trkpt>
        <trkpt lat="29.3471737" lon="105.2502546"><ele>367.3</ele><time>2026-02-14T01:17:12.000Z</time></trkpt>
        <trkpt lat="29.3472679" lon="105.2502114"><ele>366.83</ele><time>2026-02-14T01:17:20.000Z</time></trkpt>
        <trkpt lat="29.3472935" lon="105.2502082"><ele>366.68</ele><time>2026-02-14T01:17:22.000Z</time></trkpt>
        <trkpt lat="29.3472935" lon="105.2502082"><ele>366.68</ele><time>2026-02-14T01:18:43.000Z</time></trkpt>
      </trkseg>
  </trk>
</gpx>